Date StartTime U_cm/s V_cm/s W_cm/s Ustd_cm/s Vstd_cm/s Wstd_cm/s Uvar_(cm/s)^2 Vvar_(cm/s)^2 Wvar_(cm/s)^2 KE_(m/s)^2 TurbulentKE_(m/s)^2 HorizWindSpeed_cm/s FrictionSpeec_cm/s DragCoef SpeedOfSound_m/s SonicTemperature_C Pressure_mb 
07/09/2013  00:00:00       45.007       38.574       29.153       21.535       16.248       20.783      463.776      264.006      431.914        0.276        0.058       59.275       15.299        0.067      346.292       24.435      864.266
07/09/2013  00:01:00       60.151       38.280       26.818       44.448       38.193       32.995     1975.661     1458.671     1088.653        0.516        0.226       71.298       14.233        0.040      346.344       24.524      864.272
07/09/2013  00:02:00      107.871       80.887       17.008       18.506       25.912       20.900      342.472      671.431      436.822        0.996        0.073      134.829       12.268        0.008      346.325       24.492      864.268
07/09/2013  00:03:00       76.666       45.908        4.359       21.820       20.566       15.898      476.124      422.974      252.744        0.458        0.058       89.360        3.825        0.002      346.317       24.478      864.259
07/09/2013  00:04:00       68.996       46.631        1.238       20.167       19.370       14.386      406.696      375.185      206.964        0.396        0.049       83.276       11.029        0.018      346.363       24.557      864.259
07/09/2013  00:05:00       77.606       65.131       21.354       28.453       20.596       33.800      809.566      424.195     1142.421        0.655        0.119      101.316       21.475        0.045      346.348       24.531      864.246
07/09/2013  00:06:00       60.625       48.172       47.864       39.059       39.163       22.976     1525.616     1533.716      527.898        0.594        0.179       77.434       13.162        0.029      346.423       24.661      864.244
07/09/2013  00:07:00       30.186       40.120       43.434       25.156       23.562       27.139      632.830      555.173      736.551        0.317        0.096       50.208       14.394        0.082      346.327       24.495      864.254
07/09/2013  00:08:00       71.292       19.697       13.296       32.441       32.515       21.851     1052.428     1057.195      477.465        0.412        0.129       73.963       14.016        0.036      346.257       24.373      864.262
07/09/2013  00:09:00       88.644       48.780       38.883       34.150       31.721       31.798     1166.211     1006.235     1011.132        0.747        0.159      101.179       23.881        0.056      346.164       24.214      864.255
07/09/2013  00:10:00       39.215       41.599       61.423       42.700       26.735       22.321     1823.263      714.778      498.219        0.504        0.152       57.169       17.351        0.092      346.217       24.306      864.253
07/09/2013  00:11:00       18.348       30.089       52.082       39.381       36.669       27.699     1550.833     1344.605      767.221        0.381        0.183       35.242       25.141        0.509      346.298       24.445      864.266
07/09/2013  00:12:00       31.008        6.803       11.022       23.203       18.646       20.811      538.391      347.678      433.098        0.122        0.066       31.746       15.065        0.225      346.277       24.410      864.280
07/09/2013  00:13:00       45.699      -56.942       -2.722       15.855       19.238       13.802      251.374      370.108      190.489        0.307        0.041       73.012        6.162        0.007      346.304       24.453      864.271
07/09/2013  00:14:00        1.004       -6.894       14.524       18.890       25.891       18.310      356.832      670.339      335.248        0.081        0.068        6.966       18.288        6.891      346.185       24.250      864.271
07/09/2013  00:15:00       26.812      -36.657        2.334       21.202       39.824       29.885      449.543     1585.988      893.096        0.250        0.146       45.416       22.518        0.246      346.253       24.367      864.258
07/09/2013  00:16:00       15.522       20.004       44.267       21.115       26.545       23.693      445.856      704.657      561.338        0.216        0.086       25.320       19.111        0.570      346.164       24.215      864.267
07/09/2013  00:17:00        1.084        6.214       49.096       17.346       42.905       21.332      300.886     1840.868      455.051        0.252        0.130        6.308       20.773       10.845      346.216       24.304      864.278
07/09/2013  00:18:00       28.557      -50.861        5.734       24.163       39.367       26.877      583.860     1549.777      722.362        0.315        0.143       58.330       25.902        0.197      346.244       24.352      864.290
07/09/2013  00:19:00       -1.109       24.498       44.519       13.246       23.103       12.817      175.448      533.731      164.281        0.173        0.044       24.523       13.225        0.291      346.137       24.167      864.286
07/09/2013  00:20:00       -1.404       20.993       52.718       18.782       30.975       16.719      352.745      959.429      279.534        0.241        0.080       21.040       18.380        0.763      346.067       24.049      864.276
07/09/2013  00:21:00        9.942      -30.429       22.695       19.099       24.452       16.311      364.764      597.886      266.044        0.138        0.061       32.012       10.039        0.098      346.100       24.103      864.274
07/09/2013  00:22:00       10.427      -30.218       -0.965       11.456       12.184       16.702      131.248      148.447      278.945        0.079        0.028       31.966        9.337        0.085      346.066       24.044      864.270
07/09/2013  00:23:00       -1.182       -9.002        7.087       10.512       12.034        9.785      110.500      144.820       95.747        0.024        0.018        9.079        9.685        1.138      345.973       23.888      864.264
07/09/2013  00:24:00      -10.104       11.032       13.040        7.661        7.795        7.279       58.689       60.763       52.981        0.028        0.009       14.960        3.997        0.071      345.793       23.579      864.246
07/09/2013  00:25:00      -13.175       15.522        8.433       11.573       15.066       10.700      133.945      226.995      114.481        0.048        0.024       20.360        6.920        0.116      345.598       23.243      864.241
07/09/2013  00:26:00      -42.682       11.671       -8.769       29.862       26.572       14.487      891.766      706.066      209.875        0.192        0.090       44.249       11.977        0.073      345.836       23.650      864.253
07/09/2013  00:27:00       -8.633      -21.040        3.347       11.467       13.979        8.314      131.501      195.421       69.127        0.046        0.020       22.743        4.475        0.039      345.666       23.360      864.261
07/09/2013  00:28:00        4.232      -15.284        7.302       27.920       20.326       13.984      779.542      413.158      195.551        0.085        0.069       15.859        7.609        0.230      345.881       23.730      864.255
07/09/2013  00:29:00       -2.207      -19.750       21.288       22.144       30.073       18.815      490.351      904.371      354.003        0.130        0.087       19.873       15.581        0.615      345.893       23.750      864.258
07/09/2013  00:30:00       -1.154        7.477        8.352        7.053       13.930       12.333       49.746      194.039      152.099        0.026        0.020        7.565       11.235        2.206      345.662       23.351      864.266
07/09/2013  00:31:00        5.154       -8.059        1.637       21.114       25.255        7.649      445.794      637.816       58.506        0.062        0.057        9.566        8.288        0.751      345.823       23.630      864.267
07/09/2013  00:32:00       -6.367      -48.435       -2.671       23.347       19.740       21.859      545.081      389.675      477.800        0.190        0.071       48.851        9.217        0.036      346.118       24.136      864.265
07/09/2013  00:33:00       -1.191      -45.148        3.201       12.665       29.100       13.295      160.401      846.797      176.756        0.162        0.059       45.164       10.347        0.052      345.902       23.765      864.271
07/09/2013  00:34:00        1.702      -37.841        1.364        9.381       15.669       10.585       88.001      245.528      112.049        0.094        0.022       37.879        3.204        0.007      345.785       23.564      864.281
07/09/2013  00:35:00        1.479      -25.996       -1.520       15.105       29.066       12.131      228.172      844.839      147.151        0.095        0.061       26.038       10.168        0.152      345.815       23.615      864.279
07/09/2013  00:36:00        3.281        5.666        4.022       12.115       20.785       10.373      146.767      432.020      107.590        0.037        0.034        6.548       11.967        3.340      345.689       23.401      864.280
07/09/2013  00:37:00       -8.848       -2.238        8.885       10.118        9.727        7.110      102.374       94.607       50.557        0.020        0.012        9.127        4.719        0.267      345.536       23.135      864.284
07/09/2013  00:38:00       33.792       30.754       29.928       25.279       21.640       16.156      639.030      468.274      261.028        0.218        0.068       45.692       17.428        0.145      345.424       22.945      864.281
07/09/2013  00:39:00       56.090       54.762        8.145       23.508       18.880       16.623      552.615      356.465      276.323        0.370        0.059       78.390       13.363        0.029      345.404       22.910      864.282
07/09/2013  00:40:00       96.729       47.238        2.299       17.187       17.851       12.339      295.395      318.660      152.240        0.618        0.038      107.647        7.546        0.005      345.515       23.100      864.274
07/09/2013  00:41:00       33.872       15.887       25.738       44.722       26.742       22.259     2000.081      715.118      495.449        0.264        0.161       37.412       26.454        0.500      345.434       22.963      864.272
07/09/2013  00:42:00        3.718       13.949       30.233       12.572       12.119        7.881      158.059      146.866       62.115        0.074        0.018       14.436        4.963        0.118      345.408       22.917      864.267
07/09/2013  00:43:00       10.022       10.865       13.134       12.745       10.501        7.719      162.435      110.274       59.580        0.036        0.017       14.782        6.631        0.201      345.447       22.983      864.267
07/09/2013  00:44:00       -0.618       -2.789        1.887        7.332       18.474        6.382       53.756      341.294       40.726        0.022        0.022        2.856        7.856        7.566      345.558       23.175      864.268
07/09/2013  00:45:00       -6.141        1.657        4.281        6.390        5.394        4.364       40.837       29.092       19.047        0.007        0.004        6.360        3.377        0.282      345.545       23.152      864.280
07/09/2013  00:46:00       14.471      -14.482       -5.939       13.322       18.654        7.509      177.471      347.974       56.381        0.052        0.029       20.472        5.182        0.064      345.666       23.359      864.280
07/09/2013  00:47:00      -11.238      -26.697       -0.898       19.242       13.657       11.712      370.239      186.522      137.175        0.077        0.035       28.966        5.394        0.035      345.761       23.523      864.274
07/09/2013  00:48:00       -8.654      -38.554       -2.703       15.442       18.762       13.552      238.464      352.015      183.663        0.117        0.039       39.513        9.222        0.054      345.716       23.445      864.275
07/09/2013  00:49:00      -45.122      -96.089       -6.481       25.823       27.853       16.617      666.824      775.785      276.120        0.651        0.086      106.156       14.972        0.020      345.854       23.682      864.286
07/09/2013  00:50:00      -18.597      -44.911        0.134       26.000       21.529       14.311      675.990      463.476      204.799        0.185        0.067       48.609       14.186        0.085      345.727       23.463      864.266
07/09/2013  00:51:00      -24.032      -37.260       -4.759       15.865       14.255        8.101      251.711      203.211       65.619        0.125        0.026       44.338        7.943        0.032      345.637       23.308      864.268
07/09/2013  00:52:00      -15.741      -56.581       -0.525       13.602       19.353       11.554      185.010      374.530      133.497        0.207        0.035       58.730        7.443        0.016      345.675       23.375      864.268
07/09/2013  00:53:00      -25.691      -77.699       -4.035       17.185       22.639       16.410      295.328      512.537      269.279        0.390        0.054       81.836       13.971        0.029      345.748       23.499      864.271
07/09/2013  00:54:00      -17.923      -28.194        7.504       14.857       16.891       11.315      220.720      285.301      128.020        0.090        0.032       33.408        7.837        0.055      345.611       23.265      864.259
07/09/2013  00:55:00       -8.339      -34.548       -1.851       11.214       11.679       10.068      125.747      136.408      101.356        0.081        0.018       35.540        6.887        0.038      345.674       23.375      864.262
07/09/2013  00:56:00       -1.868      -20.064        6.364       12.932       25.205       11.246      167.227      635.312      126.471        0.069        0.046       20.151       13.197        0.429      345.560       23.176      864.262
07/09/2013  00:57:00      -43.798        6.613        7.750       24.815       18.436       14.396      615.798      339.895      207.252        0.159        0.058       44.294       15.780        0.127      345.384       22.876      864.270
07/09/2013  00:58:00      -48.127       -4.041       -2.021       21.377       25.717       14.672      456.977      661.349      215.253        0.183        0.067       48.297       10.995        0.052      345.468       23.020      864.286
07/09/2013  00:59:00      -42.907      -37.977       -4.553       28.979       16.861        8.699      839.769      284.309       75.671        0.225        0.060       57.300        5.803        0.010      345.212       22.581      864.287
07/09/2013  01:00:00      -68.503      -77.249       -4.496       40.358       33.453       19.150     1628.774     1119.113      366.717        0.690        0.156      103.248       17.378        0.028      345.482       23.042      864.290
07/09/2013  01:01:00      -67.713     -107.583       -0.269       39.140       48.184       27.105     1531.972     2321.697      734.695        1.037        0.229      127.119       24.042        0.036      345.553       23.164      864.292
07/09/2013  01:02:00      -47.780      -66.007        8.362       39.396       42.308       26.545     1552.052     1789.989      704.663        0.538        0.202       81.485       22.669        0.077      345.491       23.060      864.298
07/09/2013  01:03:00      -16.923      -20.780        9.396       31.954       26.457       19.108     1021.030      699.953      365.120        0.145        0.104       26.799       12.317        0.211      345.410       22.922      864.301
07/09/2013  01:04:00      -41.879      -66.300        2.095       33.099       31.036       16.243     1095.531      963.229      263.839        0.424        0.116       78.419       11.353        0.021      345.484       23.049      864.295
07/09/2013  01:05:00      -25.574      -40.935        8.977       28.436       23.305       18.809      808.623      543.112      353.768        0.206        0.085       48.267       16.829        0.122      345.468       23.020      864.297
07/09/2013  01:06:00      -32.871      -49.206       -1.210       27.503       36.272       17.398      756.418     1315.661      302.676        0.294        0.119       59.175       20.516        0.120      345.466       23.016      864.301
07/09/2013  01:07:00      -57.527      -58.380       -4.072       37.783       31.690       16.744     1427.574     1004.237      280.376        0.472        0.136       81.961       18.370        0.050      345.487       23.052      864.300
07/09/2013  01:08:00      -34.501      -69.092       -2.820       27.972       38.540       16.228      782.409     1485.330      263.335        0.425        0.127       77.227       15.376        0.040      345.385       22.877      864.306
07/09/2013  01:09:00      -35.796     -106.545       -2.372       26.607       28.360       18.928      707.924      804.309      358.270        0.725        0.094      112.397       13.857        0.015      345.547       23.156      864.299
07/09/2013  01:10:00       -4.517      -74.723      -13.929       23.620       19.625       15.792      557.894      385.132      249.386        0.349        0.060       74.859       13.155        0.031      345.448       22.987      864.290
07/09/2013  01:11:00       10.408      -67.595        8.492       30.232       39.310       23.887      913.986     1545.255      570.612        0.389        0.151       68.391       17.320        0.064      345.488       23.054      864.271
07/09/2013  01:12:00      -12.368      -71.887       -0.532       28.086       32.120       21.062      788.845     1031.666      443.619        0.379        0.113       72.943       14.465        0.039      345.467       23.018      864.272
07/09/2013  01:13:00       -0.179        0.658       21.260       16.779       29.380       26.294      281.531      863.189      691.379        0.114        0.092        0.682       26.415     1500.979      345.225       22.603      864.275
07/09/2013  01:14:00       -0.788       13.571       23.039        9.071       12.479       16.493       82.287      155.721      272.004        0.061        0.026       13.594       10.349        0.580      345.137       22.453      864.282
07/09/2013  01:15:00       -2.102       14.524       11.658        5.080        8.577        4.988       25.803       73.566       24.880        0.024        0.006       14.675        2.936        0.040      345.092       22.375      864.298
07/09/2013  01:16:00        1.211        2.264        4.760        6.746        3.054        5.175       45.514        9.328       26.782        0.006        0.004        2.567        3.971        2.393      345.063       22.325      864.310
07/09/2013  01:17:00       14.677        6.783        7.041        6.339        4.611        5.225       40.181       21.265       27.303        0.020        0.004       16.169        3.812        0.056      345.083       22.361      864.314
07/09/2013  01:18:00       14.722       18.019        4.341        7.440        6.604        5.909       55.361       43.617       34.917        0.035        0.007       23.269        4.278        0.034      345.138       22.453      864.315
07/09/2013  01:19:00       11.549       35.739       -2.523        8.165       10.480        8.290       66.671      109.836       68.718        0.083        0.012       37.559        3.090        0.007      345.152       22.474      864.325
07/09/2013  01:20:00       33.033       40.018       -4.212        6.641       10.894        5.061       44.108      118.676       25.611        0.145        0.009       51.891        1.753        0.001      345.132       22.441      864.329
07/09/2013  01:21:00       27.244       27.961       -5.865        8.402        9.759        8.419       70.598       95.234       70.875        0.090        0.012       39.039        4.037        0.011      345.159       22.489      864.322
07/09/2013  01:22:00       20.201       35.598        7.116       15.817       14.659       13.971      250.190      214.897      195.188        0.119        0.033       40.930       12.583        0.095      345.233       22.616      864.316
07/09/2013  01:23:00        9.226       18.546       19.568       17.113       21.296       11.617      292.851      453.513      134.960        0.085        0.044       20.714        5.863        0.080      345.023       22.258      864.316
07/09/2013  01:24:00       -4.422      -35.914        9.228       13.192       21.769       12.941      174.041      473.890      167.457        0.110        0.041       36.185        7.850        0.047      345.170       22.508      864.316
07/09/2013  01:25:00      -27.949        4.279       -6.630       10.882        7.126        6.131      118.417       50.779       37.595        0.053        0.010       28.274        1.826        0.004      345.144       22.465      864.315
07/09/2013  01:26:00        1.418       18.406        0.696       10.655        9.141        5.702      113.529       83.566       32.516        0.029        0.011       18.461        6.527        0.125      345.187       22.537      864.299
07/09/2013  01:27:00       -1.583       38.079       -1.788       13.533       11.074        6.398      183.140      122.623       40.937        0.090        0.017       38.111        6.995        0.034      345.299       22.733      864.287
07/09/2013  01:28:00      -36.126       17.024       -5.652        7.724       10.270        4.183       59.661      105.466       17.495        0.090        0.009       39.936        4.461        0.012      345.308       22.744      864.295
07/09/2013  01:29:00        0.296        3.381        5.005       10.401        3.261        6.279      108.183       10.633       39.428        0.010        0.008        3.394        7.243        4.554      345.266       22.674      864.305
07/09/2013  01:30:00        4.097       -2.673        5.067        3.758        4.381        4.274       14.120       19.191       18.268        0.005        0.003        4.891        3.341        0.467      345.212       22.580      864.299
07/09/2013  01:31:00       18.912        1.667        2.271       13.682       10.842        4.483      187.188      117.557       20.098        0.035        0.016       18.985        6.847        0.130      345.238       22.625      864.287
07/09/2013  01:32:00       52.098       16.780        9.614       12.732       13.441        9.655      162.100      180.670       93.226        0.176        0.022       54.733        2.818        0.003      345.249       22.643      864.279
07/09/2013  01:33:00       11.473       -4.585        2.290       19.221       15.212       10.869      369.445      231.412      118.133        0.044        0.036       12.355        8.026        0.422      345.232       22.615      864.279
07/09/2013  01:34:00       14.487        4.728        7.692        9.536        4.853        6.109       90.931       23.547       37.315        0.022        0.008       15.239        2.428        0.025      345.230       22.610      864.278
07/09/2013  01:35:00       17.443        3.920        9.663       11.360       20.071       12.808      129.045      402.843      164.033        0.055        0.035       17.878       11.913        0.444      345.009       22.234      864.270
07/09/2013  01:36:00      -10.727       -5.475       10.188       16.107       17.195       14.195      259.437      295.652      201.484        0.050        0.038       12.044       14.093        1.369      344.923       22.085      864.267
07/09/2013  01:37:00      -10.355      -15.972        6.527        8.704       11.070        7.524       75.766      122.537       56.613        0.033        0.013       19.035        5.820        0.093      344.991       22.204      864.273
07/09/2013  01:38:00       -2.744       -1.466        9.891        6.471       14.577       11.048       41.868      212.501      122.059        0.024        0.019        3.111       10.597       11.601      344.960       22.149      864.270
07/09/2013  01:39:00       -3.900       21.205       11.478       12.470       13.139       11.894      155.504      172.646      141.463        0.053        0.023       21.560        8.673        0.162      344.886       22.025      864.269
07/09/2013  01:40:00      -20.195        0.644        1.618       13.877       12.727        8.222      192.570      161.989       67.606        0.042        0.021       20.206        6.213        0.095      344.940       22.116      864.278
07/09/2013  01:41:00       -6.578      -28.654       -0.342       10.021       21.230        6.871      100.421      450.715       47.217        0.073        0.030       29.399        9.208        0.098      344.991       22.204      864.294
07/09/2013  01:42:00        4.594      -47.945       -5.056       16.906       15.843       11.136      285.800      250.987      124.001        0.150        0.033       48.165        5.859        0.015      344.998       22.214      864.294
07/09/2013  01:43:00       -1.560      -36.262        7.820       11.402       15.590       13.911      129.996      243.049      193.518        0.097        0.028       36.296       10.645        0.086      345.034       22.278      864.295
07/09/2013  01:44:00      -10.766      -25.763       -1.953       24.267       10.848       10.117      588.877      117.679      102.351        0.080        0.040       27.922        4.205        0.023      345.020       22.254      864.310
07/09/2013  01:45:00       -5.240      -20.236        3.092       21.341       10.430        8.688      455.455      108.787       75.477        0.054        0.032       20.904        7.448        0.127      345.025       22.261      864.311
07/09/2013  01:46:00        4.507       -0.013        3.678        5.156        6.738        3.720       26.588       45.403       13.841        0.006        0.004        4.507        1.882        0.174      344.952       22.135      864.302
07/09/2013  01:47:00        1.855        3.618       -6.112        3.983        3.400        6.856       15.862       11.563       47.005        0.006        0.004        4.065        3.027        0.555      344.960       22.150      864.315
07/09/2013  01:48:00       -7.446      -22.456       -2.204        8.826       15.277        4.349       77.894      233.396       18.913        0.045        0.017       23.658        4.543        0.037      345.057       22.317      864.319
07/09/2013  01:49:00      -12.578      -39.139       -6.835        9.798       13.179       11.072       95.998      173.684      122.595        0.106        0.020       41.111        7.383        0.032      345.260       22.663      864.306
07/09/2013  01:50:00       -5.925      -20.530       -1.430        5.774        7.279        6.660       33.341       52.989       44.362        0.029        0.007       21.368        1.466        0.005      345.262       22.667      864.296
07/09/2013  01:51:00        5.158       -1.249        5.583       10.670       11.554        3.931      113.856      133.499       15.453        0.016        0.013        5.307        5.017        0.894      345.081       22.358      864.286
07/09/2013  01:52:00       31.720       28.565        7.239        6.095        7.607        5.109       37.151       57.862       26.105        0.100        0.006       42.687        3.359        0.006      344.981       22.184      864.285
07/09/2013  01:53:00       35.412       54.046       -2.897        7.407       10.584        8.050       54.857      112.019       64.797        0.221        0.012       64.614        6.908        0.011      344.962       22.155      864.273
07/09/2013  01:54:00       36.361       23.605        2.185       17.407       16.302       13.104      302.994      265.741      171.712        0.131        0.037       43.352        7.557        0.030      345.010       22.234      864.269
07/09/2013  01:55:00      -18.823        2.684       -0.393       33.290        7.565        6.362     1108.192       57.228       40.469        0.078        0.060       19.013        7.200        0.143      345.037       22.283      864.276
07/09/2013  01:56:00      -50.387      -12.012      -10.747        8.614        8.911        7.281       74.201       79.409       53.018        0.150        0.010       51.799        4.563        0.008      344.721       21.742      864.292
07/09/2013  01:57:00      -34.733      -28.165      -10.243       11.308       10.590        7.328      127.872      112.154       53.702        0.120        0.015       44.718        6.343        0.020      344.630       21.585      864.313
07/09/2013  01:58:00      -42.289      -25.242       -3.935        6.591        5.690        6.797       43.438       32.382       46.204        0.128        0.006       49.249        3.941        0.006      345.025       22.263      864.337
07/09/2013  01:59:00       -8.568      -21.308        1.301       14.999        6.141        5.065      224.974       37.712       25.658        0.041        0.014       22.966        5.694        0.061      344.941       22.119      864.352
07/09/2013  02:00:00       18.579       -9.626       -0.350       15.954        8.370        5.928      254.514       70.051       35.138        0.040        0.018       20.924        5.731        0.075      345.037       22.281      864.367
07/09/2013  02:01:00       27.028       -3.385        3.727        7.770        7.907        7.271       60.380       62.522       52.874        0.047        0.009       27.240        6.489        0.057      345.110       22.406      864.384
07/09/2013  02:02:00        8.224      -28.907       -5.181        8.777       11.579        7.665       77.038      134.076       58.760        0.060        0.013       30.054        8.599        0.082      344.804       21.884      864.389
07/09/2013  02:03:00      -54.596      -10.751      -10.634       18.201        8.798       10.551      331.275       77.403      111.331        0.186        0.026       55.645        2.141        0.001      344.695       21.695      864.391
07/09/2013  02:04:00      -84.218       -7.298      -10.760       11.040       18.705       10.295      121.891      349.892      105.978        0.392        0.029       84.534        8.145        0.009      344.543       21.435      864.399
07/09/2013  02:05:00     -110.758      -49.112       -6.901       18.493       17.788       10.493      341.999      316.422      110.099        0.775        0.038      121.158        8.524        0.005      344.618       21.566      864.413
07/09/2013  02:06:00      -65.898      -46.392        4.502       36.080       27.682       17.766     1301.735      766.267      315.623        0.445        0.119       80.590       15.678        0.038      344.567       21.478      864.412
07/09/2013  02:07:00      -59.190      -49.272        7.287       34.552       24.973       21.836     1193.839      623.635      476.828        0.414        0.115       77.014       17.049        0.049      344.564       21.472      864.421
07/09/2013  02:08:00      -63.202      -58.365        7.128       48.830       35.422       21.488     2384.368     1254.730      461.733        0.578        0.205       86.029       21.796        0.064      344.574       21.489      864.430
07/09/2013  02:09:00      -68.830      -43.430        7.524       39.117       26.807       18.637     1530.155      718.591      347.337        0.464        0.130       81.386       16.847        0.043      344.632       21.588      864.435
07/09/2013  02:10:00      -72.789      -13.380      -11.017       13.680       13.372       11.911      187.150      178.812      141.866        0.305        0.025       74.008        8.648        0.014      344.710       21.721      864.435
07/09/2013  02:11:00      -20.702      -25.852       -3.649       19.434       11.308       10.448      377.680      127.870      109.170        0.086        0.031       33.120       10.434        0.099      344.697       21.699      864.436
07/09/2013  02:12:00        9.113      -45.026       -6.319       13.884       19.762       14.569      192.754      390.549      212.256        0.147        0.040       45.939       12.854        0.078      344.708       21.717      864.429
07/09/2013  02:13:00       -0.256      -21.853       -1.821       22.155       27.430       20.650      490.863      752.414      426.428        0.107        0.083       21.855       15.255        0.487      344.851       21.963      864.431
07/09/2013  02:14:00       -4.459      -38.521        5.325       13.911       18.228       19.611      193.503      332.250      384.603        0.122        0.046       38.779        8.227        0.045      344.946       22.126      864.440
07/09/2013  02:15:00      -71.193      -25.389       -5.731       24.849       12.821        9.669      617.498      164.373       93.497        0.331        0.044       75.585        9.485        0.016      344.592       21.521      864.451
07/09/2013  02:16:00      -72.088      -11.683       -6.154       29.842       17.476       12.835      890.567      305.410      164.744        0.337        0.068       73.029       14.117        0.037      344.240       20.918      864.459
07/09/2013  02:17:00     -122.183       -6.892       -5.943       40.834       26.047       16.433     1667.385      678.469      270.047        0.881        0.131      122.377       14.662        0.014      344.200       20.851      864.476
07/09/2013  02:18:00     -100.867        7.589        1.123       48.675       37.645       28.530     2369.296     1417.159      813.951        0.742        0.230      101.152       23.720        0.055      343.920       20.371      864.484
07/09/2013  02:19:00      -76.535       -9.353       -1.277       45.549       36.673       23.536     2074.668     1344.925      553.949        0.496        0.199       77.104       25.485        0.109      343.879       20.301      864.475
07/09/2013  02:20:00      -85.684      -33.262        6.583       29.073       36.176       21.055      845.228     1308.673      443.298        0.554        0.130       91.914       16.453        0.032      343.873       20.292      864.470
07/09/2013  02:21:00     -118.139      -32.206       -6.926       23.526       22.217       13.454      553.457      493.578      181.007        0.813        0.061      122.450        9.356        0.006      343.978       20.470      864.467
07/09/2013  02:22:00      -80.203      -18.650       -0.773       26.857       24.962       16.343      721.297      623.116      267.089        0.420        0.081       82.343       12.655        0.024      343.997       20.503      864.459
07/09/2013  02:23:00      -77.881      -30.381       -2.008       22.180       14.811       12.766      491.938      219.370      162.971        0.393        0.044       83.597       11.682        0.020      344.018       20.539      864.445
07/09/2013  02:24:00      -77.061      -28.236        0.182       18.615       21.439       11.802      346.520      459.643      139.295        0.384        0.047       82.071        8.940        0.012      344.063       20.616      864.461
07/09/2013  02:25:00      -58.304      -34.411        3.062       22.293       25.985       13.015      496.957      675.215      169.387        0.297        0.067       67.702       10.736        0.025      344.113       20.700      864.458
07/09/2013  02:26:00      -56.184      -32.580        1.498       31.816       21.168       13.679     1012.234      448.088      187.102        0.293        0.082       64.947       16.046        0.061      344.119       20.712      864.460
07/09/2013  02:27:00      -75.188      -16.712       -1.577       16.509       14.560       10.039      272.531      211.992      100.786        0.326        0.029       77.023        8.745        0.013      344.134       20.738      864.479
07/09/2013  02:28:00      -98.270      -14.287       -4.904       21.720       17.516       12.970      471.757      306.827      168.232        0.542        0.047       99.303       10.316        0.011      344.064       20.617      864.487
07/09/2013  02:29:00      -75.510      -21.924        1.339       33.378       16.491       15.350     1114.062      271.947      235.618        0.390        0.081       78.628       14.685        0.035      343.947       20.417      864.490
07/09/2013  02:30:00      -68.846      -21.900       -7.446       17.996       15.720       13.017      323.849      247.117      169.447        0.301        0.037       72.245        9.091        0.016      343.826       20.211      864.495
07/09/2013  02:31:00      -59.003      -24.110       -3.284       22.671       16.213       13.119      513.995      262.870      172.106        0.251        0.047       63.739       12.390        0.038      343.772       20.119      864.502
07/09/2013  02:32:00      -60.174       -7.453       -0.030       34.341       21.595       17.198     1179.289      466.337      295.785        0.281        0.097       60.634       16.742        0.076      343.772       20.119      864.504
07/09/2013  02:33:00      -47.863       -7.495        2.271       33.048       33.739       19.339     1092.164     1138.296      373.988        0.248        0.130       48.446       20.630        0.181      343.638       19.890      864.506
07/09/2013  02:34:00      -27.489      -12.987        3.548       28.726       25.950       11.972      825.194      673.406      143.332        0.129        0.082       30.402       13.345        0.193      343.630       19.877      864.505
07/09/2013  02:35:00      -87.208      -50.791      -10.105       27.083       21.213       14.783      733.473      449.997      218.524        0.584        0.070      100.920        7.504        0.006      343.694       19.985      864.498
07/09/2013  02:36:00      -95.792      -36.311       -1.043       25.695       27.088       19.312      660.256      733.754      372.953        0.613        0.088      102.444       13.835        0.018      343.653       19.915      864.486
07/09/2013  02:37:00     -116.083      -14.300       -2.194       38.958       37.388       24.463     1517.705     1397.828      598.459        0.860        0.176      116.960       20.127        0.030      343.646       19.903      864.491
07/09/2013  02:38:00     -169.287      -11.154      -17.791       28.044       26.933       18.278      786.493      725.367      334.086        1.547        0.092      169.654       13.847        0.007      343.770       20.114      864.500
07/09/2013  02:39:00     -153.554      -24.613       -5.268       41.392       34.816       21.924     1713.313     1212.124      480.667        1.381        0.170      155.514       18.922        0.015      343.708       20.009      864.504
07/09/2013  02:40:00      -94.736        6.456      -12.491       39.216       28.979       19.112     1537.919      839.760      365.261        0.596        0.137       94.956       19.486        0.042      343.620       19.861      864.509
07/09/2013  02:41:00     -109.157        4.878      -14.119       29.537       46.250       23.760      872.458     2139.081      564.515        0.786        0.179      109.265       17.080        0.024      343.729       20.045      864.523
07/09/2013  02:42:00     -125.190        2.039       -9.750       38.032       36.409       24.087     1446.401     1325.617      580.204        0.956        0.168      125.207       19.572        0.024      343.803       20.171      864.524
07/09/2013  02:43:00      -96.086        0.412       -9.857       30.320       28.331       18.966      919.314      802.653      359.704        0.571        0.104       96.086       17.263        0.032      343.807       20.180      864.528
07/09/2013  02:44:00      -99.312        2.304      -10.948       23.478       27.140       14.354      551.207      736.587      206.029        0.574        0.075       99.339       10.031        0.010      343.810       20.184      864.539
07/09/2013  02:45:00      -67.396      -28.480      -11.945       36.139       27.259       18.210     1306.044      743.045      331.597        0.394        0.119       73.167       16.468        0.051      343.797       20.160      864.531
07/09/2013  02:46:00      -69.692      -32.483       -0.635       35.759       27.354       13.582     1278.735      748.263      184.461        0.406        0.111       76.891       15.054        0.038      343.804       20.174      864.535
07/09/2013  02:47:00      -76.870      -15.459       -3.340       44.881       33.881       18.903     2014.341     1147.944      357.308        0.484        0.176       78.409       21.175        0.073      343.748       20.077      864.529
07/09/2013  02:48:00      -96.278      -31.424      -15.040       32.892       38.901       18.355     1081.856     1513.324      336.906        0.671        0.147      101.277       14.330        0.020      343.793       20.156      864.522
07/09/2013  02:49:00      -58.319      -14.619       -6.533       33.082       30.568       17.159     1094.427      934.426      294.424        0.299        0.116       60.123       12.669        0.044      343.763       20.103      864.534
07/09/2013  02:50:00      -79.513      -20.032        1.232       28.587       27.815       21.600      817.202      773.693      466.580        0.439        0.103       81.997       17.142        0.044      343.692       19.982      864.526
07/09/2013  02:51:00      -73.675      -23.546       -6.101       17.294       26.642       15.319      299.090      709.821      234.666        0.363        0.062       77.347        9.672        0.016      343.698       19.993      864.528
07/09/2013  02:52:00      -56.874      -14.599       -0.602       23.517       23.420       13.264      553.065      548.483      175.925        0.236        0.064       58.718       11.451        0.038      343.680       19.963      864.529
07/09/2013  02:53:00      -85.705      -17.673      -13.506       22.030       20.623       13.405      485.332      425.315      179.684        0.446        0.055       87.508       10.842        0.015      343.712       20.017      864.517
07/09/2013  02:54:00      -38.046      -15.915       -7.083       19.471       23.009       12.624      379.108      529.405      159.361        0.141        0.053       41.241        8.796        0.045      343.604       19.832      864.509
07/09/2013  02:55:00      -42.150      -24.726       -7.338       20.058       17.065       13.568      402.320      291.204      184.095        0.166        0.044       48.867       11.050        0.051      343.554       19.747      864.514
07/09/2013  02:56:00      -27.623       -9.622      -11.729       15.264       14.181       11.507      232.988      201.108      132.405        0.078        0.028       29.251        3.561        0.015      343.600       19.826      864.510
07/09/2013  02:57:00      -57.524      -20.361       -0.034       18.457       14.056       11.731      340.679      197.579      137.628        0.220        0.034       61.022       10.321        0.029      343.578       19.788      864.519
07/09/2013  02:58:00      -69.154      -19.624      -19.491       17.496       20.868       13.774      306.103      435.483      189.732        0.324        0.047       71.884       10.363        0.021      343.602       19.829      864.522
07/09/2013  02:59:00      -59.484      -16.240       -8.024       25.590       17.350       12.239      654.858      301.010      149.792        0.249        0.055       61.661        8.202        0.018      343.585       19.799      864.525
07/09/2013  03:00:00      -84.156      -25.954      -13.686       19.165       20.071       14.300      367.300      402.830      204.490        0.446        0.049       88.067        8.687        0.010      343.492       19.642      864.530
07/09/2013  03:01:00      -70.249      -13.396      -13.430       17.812       20.713       14.345      317.263      429.044      205.775        0.312        0.048       71.514       11.279        0.025      343.469       19.602      864.525
07/09/2013  03:02:00      -89.853      -25.325      -11.912       27.760       21.424       14.283      770.598      458.998      203.991        0.514        0.072       93.354       13.576        0.021      343.416       19.512      864.523
07/09/2013  03:03:00     -101.269      -24.545      -11.899       22.473       19.361       15.597      505.051      374.855      243.253        0.606        0.056      104.201        9.741        0.009      343.454       19.577      864.523
07/09/2013  03:04:00      -91.359      -23.576      -15.181       18.693       15.281       13.489      349.417      233.509      181.950        0.495        0.038       94.352        5.238        0.003      343.454       19.575      864.512
07/09/2013  03:05:00      -84.391      -13.284      -11.494       20.756       19.674       14.617      430.821      387.082      213.646        0.423        0.052       85.431       11.135        0.017      343.426       19.530      864.504
07/09/2013  03:06:00      -93.280      -26.250      -10.691       18.890       18.852       12.283      356.838      355.388      150.880        0.518        0.043       96.903        7.565        0.006      343.452       19.572      864.508
07/09/2013  03:07:00     -125.036      -23.081      -18.032       24.803       18.936       21.813      615.202      358.587      475.804        0.897        0.072      127.148       10.458        0.007      343.414       19.508      864.496
07/09/2013  03:08:00     -114.958       -4.858       -9.630       48.334       29.572       28.573     2336.192      874.523      816.440        0.868        0.201      115.060       28.198        0.060      343.309       19.330      864.486
07/09/2013  03:09:00      -66.345       -1.155       -3.712       55.026       29.459       22.456     3027.874      867.851      504.266        0.441        0.220       66.355       25.680        0.150      343.252       19.233      864.491
07/09/2013  03:10:00      -96.711      -27.603       -9.189       32.970       23.710       19.076     1087.042      562.144      363.904        0.611        0.101      100.573       14.561        0.021      343.289       19.296      864.478
07/09/2013  03:11:00      -38.814       10.496       -8.888       49.653       24.496       17.870     2465.415      600.047      319.354        0.254        0.169       40.208       15.031        0.140      343.229       19.192      864.475
07/09/2013  03:12:00     -100.654       -4.529       -9.648       38.655       39.899       21.138     1494.194     1591.944      446.817        0.689        0.177      100.756       13.892        0.019      343.300       19.315      864.485
07/09/2013  03:13:00     -116.177        4.495       -8.250       46.735       42.289       25.740     2184.198     1788.331      662.564        0.911        0.232      116.264       12.726        0.012      343.283       19.285      864.488
07/09/2013  03:14:00     -137.614       -6.822      -19.730       51.253       32.443       21.172     2626.898     1052.562      448.245        1.175        0.206      137.783       20.751        0.023      343.343       19.387      864.491
07/09/2013  03:15:00     -130.426      -40.035       -4.485       46.347       37.443       24.641     2148.088     1401.989      607.156        1.139        0.208      136.432       22.028        0.026      343.212       19.165      864.512
07/09/2013  03:16:00      -93.427      -38.942        4.912       46.064       40.178       23.767     2121.933     1614.242      564.887        0.728        0.215      101.218       21.736        0.046      343.226       19.188      864.513
07/09/2013  03:17:00      -10.280       -5.607        2.118       40.935       29.108       23.266     1675.681      847.258      541.288        0.160        0.153       11.710       13.526        1.334      343.247       19.224      864.524
07/09/2013  03:18:00      -54.803      -11.740        5.790       42.453       46.170       23.812     1802.269     2131.712      567.013        0.384        0.225       56.046       22.893        0.167      343.174       19.099      864.528
07/09/2013  03:19:00     -109.310        4.066        0.370       66.682       43.402       27.508     4446.487     1883.726      756.676        0.952        0.354      109.386       31.748        0.084      343.199       19.143      864.517
07/09/2013  03:20:00      -90.785        8.305        4.064       49.233       39.670       28.500     2423.917     1573.697      812.275        0.657        0.240       91.164       26.914        0.087      343.187       19.122      864.512
07/09/2013  03:21:00      -35.756       -5.409        2.622       50.530       39.407       17.662     2553.307     1552.884      311.936        0.287        0.221       36.163       18.726        0.268      343.217       19.174      864.498
07/09/2013  03:22:00      -35.140      -13.387        1.626       20.728       22.576       12.253      429.634      509.667      150.147        0.125        0.054       37.603        6.952        0.034      343.295       19.305      864.497
07/09/2013  03:23:00      -50.589      -37.754       -2.322       23.847       26.480       15.247      568.659      701.167      232.458        0.275        0.075       63.124       12.572        0.040      343.296       19.305      864.495
07/09/2013  03:24:00      -49.956      -28.587        1.423       30.985       20.441       13.164      960.080      417.825      173.288        0.243        0.078       57.557       14.136        0.060      343.303       19.319      864.494
07/09/2013  03:25:00      -28.463      -38.746       -1.921       26.150       23.019       20.935      683.843      529.887      438.259        0.198        0.083       48.077       18.225        0.144      343.487       19.632      864.507
07/09/2013  03:26:00      -57.826      -48.562       -0.023       28.066       29.138       16.817      787.685      849.000      282.803        0.381        0.096       75.513       11.126        0.022      343.565       19.766      864.513
07/09/2013  03:27:00      -71.856      -47.321        5.509       30.582       26.881       23.524      935.262      722.571      553.383        0.482        0.111       86.038       19.541        0.052      343.550       19.742      864.531
07/09/2013  03:28:00     -105.772      -68.254       -1.276       56.843       31.652       18.749     3231.091     1001.876      351.534        1.022        0.229      125.882       18.313        0.021      343.511       19.673      864.539
07/09/2013  03:29:00      -59.351      -58.018        2.496       47.756       26.345       22.104     2280.671      694.040      488.594        0.518        0.173       82.997       22.322        0.072      343.426       19.528      864.546
07/09/2013  03:30:00      -40.805      -59.857        4.201       42.799       22.718       26.192     1831.743      516.109      686.039        0.415        0.152       72.442       23.292        0.103      343.398       19.480      864.549
07/09/2013  03:31:00      -52.774      -62.472       11.582       47.465       35.687       23.533     2252.923     1273.549      553.786        0.545        0.204       81.779       26.152        0.102      343.322       19.353      864.535
07/09/2013  03:32:00      -59.550      -55.208       14.155       48.479       27.602       23.455     2350.239      761.878      550.144        0.523        0.183       81.204       27.182        0.112      343.347       19.394      864.531
07/09/2013  03:33:00     -102.104      -76.565       -5.055       50.646       36.753       23.052     2565.020     1350.813      531.387        1.038        0.222      127.623       25.057        0.039      343.327       19.360      864.531
07/09/2013  03:34:00     -130.835      -71.007       -0.101       31.960       31.462       22.406     1021.412      989.853      502.025        1.234        0.126      148.861       14.273        0.009      343.342       19.387      864.525
07/09/2013  03:35:00     -160.415      -58.790       -3.950       35.480       23.435       19.169     1258.821      549.222      367.454        1.569        0.109      170.848       17.865        0.011      343.353       19.403      864.538
07/09/2013  03:36:00     -152.963      -63.061       -6.221       39.928       37.815       21.310     1594.236     1430.012      454.100        1.544        0.174      165.452       16.438        0.010      343.346       19.393      864.544
07/09/2013  03:37:00     -147.910      -58.000       -6.083       51.530       37.386       22.062     2655.375     1397.696      486.732        1.491        0.227      158.876       13.993        0.008      343.347       19.395      864.548
07/09/2013  03:38:00     -108.547      -61.121       -0.893       40.934       33.748       24.382     1675.568     1138.958      594.501        0.946        0.170      124.572       22.830        0.034      343.321       19.348      864.550
07/09/2013  03:39:00     -137.099      -51.051       -4.732       39.797       35.573       23.242     1583.786     1265.413      540.174        1.241        0.169      146.295       23.457        0.026      343.317       19.344      864.533
07/09/2013  03:40:00     -140.302      -34.813       -6.618       34.933       30.891       20.299     1220.339      954.236      412.050        1.176        0.129      144.557       18.258        0.016      343.255       19.239      864.519
07/09/2013  03:41:00     -135.868      -37.901       -2.030       24.607       23.884       16.232      605.485      570.425      263.477        1.067        0.072      141.056       14.172        0.010      343.248       19.226      864.512
07/09/2013  03:42:00     -101.393      -55.422       -4.800       30.120       18.133       17.167      907.236      328.815      294.695        0.745        0.077      115.552        6.031        0.003      343.241       19.214      864.498
07/09/2013  03:43:00      -74.163      -44.203       -5.288       36.848       18.038       13.248     1357.811      325.361      175.520        0.467        0.093       86.336       14.456        0.028      343.241       19.214      864.494
07/09/2013  03:44:00      -76.165      -52.517       -8.062       21.778       14.439       14.351      474.263      208.490      205.946        0.476        0.044       92.516       11.126        0.014      343.220       19.177      864.500
07/09/2013  03:45:00      -70.743      -44.903       -1.059       28.983       21.077       16.839      840.031      444.231      283.549        0.429        0.078       83.791       14.019        0.028      343.177       19.105      864.496
07/09/2013  03:46:00      -82.782      -41.503       -7.810       25.163       23.397       14.514      633.184      547.428      210.649        0.501        0.070       92.603       15.884        0.029      343.158       19.072      864.500
07/09/2013  03:47:00     -100.028      -43.673       -7.587       25.461       20.759       16.569      648.279      430.954      274.548        0.666        0.068      109.146       15.082        0.019      343.075       18.933      864.514
07/09/2013  03:48:00     -124.552      -37.281       -3.769       26.064       21.590       15.941      679.345      466.120      254.119        0.916        0.070      130.012       14.279        0.012      343.075       18.932      864.515
07/09/2013  03:49:00     -104.928      -55.338       -5.326       31.557       23.075       17.834      995.836      532.472      318.050        0.797        0.092      118.626       15.540        0.017      343.096       18.968      864.512
07/09/2013  03:50:00      -87.847      -59.749        1.300       38.460       18.197       18.032     1479.152      331.149      325.156        0.671        0.107      106.240       17.807        0.028      343.119       19.006      864.503
07/09/2013  03:51:00      -68.371      -48.090       -1.599       38.729       23.916       16.635     1499.902      571.957      276.738        0.467        0.117       83.590       10.817        0.017      343.166       19.087      864.501
07/09/2013  03:52:00      -96.968      -60.879       -7.444       36.097       21.379       17.681     1302.995      457.050      312.635        0.762        0.104      114.495       12.455        0.012      343.116       19.003      864.486
07/09/2013  03:53:00     -105.362      -57.296        0.943       29.434       24.630       14.966      866.342      606.624      223.980        0.804        0.085      119.933       17.067        0.020      343.099       18.971      864.474
07/09/2013  03:54:00      -52.957      -41.963       -3.937       38.315       19.466       15.577     1468.017      378.910      242.642        0.333        0.104       67.567        7.433        0.012      343.136       19.036      864.470
07/09/2013  03:55:00      -66.781      -46.435        2.988       47.238       30.542       20.944     2231.434      932.826      438.647        0.511        0.180       81.338       21.698        0.071      343.073       18.928      864.484
07/09/2013  03:56:00      -96.883      -61.716       -3.525       38.057       26.103       18.549     1448.310      681.379      344.064        0.784        0.124      114.870       21.179        0.034      343.089       18.954      864.492
07/09/2013  03:57:00      -91.549      -43.936       -1.219       20.687       17.711       15.255      427.954      313.693      232.719        0.564        0.049      101.546        6.963        0.005      343.100       18.975      864.496
07/09/2013  03:58:00     -107.593      -40.190       -6.753       37.140       31.484       21.214     1379.365      991.257      450.047        0.803        0.141      114.854       19.354        0.028      343.153       19.063      864.503
07/09/2013  03:59:00      -92.807      -27.638       -1.781       33.104       24.146       14.825     1095.901      583.008      219.778        0.564        0.095       96.834       17.696        0.033      343.083       18.945      864.514
07/09/2013  04:00:00      -68.440       -7.120       -1.945       35.721       18.592       16.472     1275.959      345.667      271.338        0.332        0.095       68.809       18.458        0.072      342.993       18.791      864.513
07/09/2013  04:01:00      -73.847       -2.021        0.502       51.130       31.531       20.251     2614.242      994.177      410.114        0.474        0.201       73.875       23.393        0.100      343.017       18.832      864.510
07/09/2013  04:02:00      -77.289        1.281       -1.290       46.854       43.933       25.561     2195.306     1930.086      653.352        0.538        0.239       77.299       22.349        0.084      343.170       19.094      864.507
07/09/2013  04:03:00      -91.425       14.033        2.829       55.710       33.857       31.417     3103.658     1146.323      987.029        0.690        0.262       92.496       31.755        0.118      343.131       19.027      864.509
07/09/2013  04:04:00     -109.083      -13.733       -3.862       58.437       32.565       25.794     3414.923     1060.459      665.334        0.862        0.257      109.944       28.943        0.069      343.016       18.831      864.517
07/09/2013  04:05:00     -124.559       -8.521      -11.312       46.751       34.292       23.398     2185.682     1175.954      547.467        0.981        0.195      124.850       18.102        0.021      342.999       18.803      864.514
07/09/2013  04:06:00     -121.747      -41.160      -10.622       43.335       40.432       19.313     1877.913     1634.783      372.989        1.026        0.194      128.516        9.607        0.006      343.018       18.835      864.516
07/09/2013  04:07:00     -107.201      -37.883       -4.976       36.329       32.125       21.332     1319.785     1032.027      455.068        0.788        0.140      113.697       17.582        0.024      342.933       18.690      864.518
07/09/2013  04:08:00     -122.673      -29.367       -2.173       49.382       29.402       21.399     2438.618      864.466      457.936        0.984        0.188      126.140       21.778        0.030      342.913       18.656      864.527
07/09/2013  04:09:00      -82.002      -40.424      -11.019       49.576       17.422       14.830     2457.754      303.523      219.934        0.573        0.149       91.424       18.321        0.040      343.005       18.812      864.541
07/09/2013  04:10:00       -7.459      -22.371       10.825       28.403       24.035       18.228      806.736      577.702      332.277        0.119        0.086       23.581       15.689        0.443      343.032       18.859      864.546
07/09/2013  04:11:00      -10.001      -16.113       15.405       31.373       18.819       17.830      984.258      354.139      317.891        0.113        0.083       18.964       16.298        0.739      343.036       18.865      864.559
07/09/2013  04:12:00      -55.644      -16.380       -0.772       32.367       15.318       16.568     1047.643      234.642      274.489        0.246        0.078       58.004       19.785        0.116      343.072       18.926      864.581
07/09/2013  04:13:00      -37.227       -5.137        1.371       15.794       13.083        7.661      249.438      171.154       58.690        0.095        0.024       37.580        8.457        0.051      343.083       18.947      864.587
07/09/2013  04:14:00      -39.756        0.044       -8.835       10.043        8.683        7.616      100.869       75.390       57.998        0.095        0.012       39.756        4.728        0.014      343.088       18.952      864.599
07/09/2013  04:15:00      -51.723       -3.498       -8.770       13.860       11.537        7.694      192.099      133.097       59.202        0.157        0.019       51.841        7.857        0.023      343.120       19.010      864.618
07/09/2013  04:16:00      -32.737      -22.951       -1.396       15.943       12.192        8.680      254.168      148.634       75.348        0.104        0.024       39.981        5.343        0.018      343.162       19.080      864.629
07/09/2013  04:17:00      -37.616      -20.862       -2.794       25.041       11.380        9.664      627.044      129.505       93.393        0.135        0.042       43.014        9.035        0.044      343.160       19.076      864.635
07/09/2013  04:18:00      -50.198      -23.837       -1.685       15.391       16.354        8.382      236.877      267.457       70.253        0.183        0.029       55.570        3.150        0.003      343.092       18.961      864.644
07/09/2013  04:19:00      -82.542      -59.803       -2.312       23.223       22.977       14.907      539.314      527.940      222.229        0.584        0.064      101.929       12.046        0.014      343.057       18.899      864.654
07/09/2013  04:20:00      -40.280      -36.624        5.072       59.960       34.041       26.974     3595.157     1158.759      727.591        0.423        0.274       54.441       30.570        0.315      342.941       18.703      864.679
07/09/2013  04:21:00      -97.099      -69.567        2.914       47.448       39.962       25.887     2251.301     1596.926      670.115        0.940        0.226      119.447       21.364        0.032      342.846       18.543      864.687
07/09/2013  04:22:00      -73.066      -54.710        2.813       53.101       39.751       33.420     2819.757     1580.105     1116.919        0.693        0.276       91.279       29.003        0.101      342.846       18.541      864.697
07/09/2013  04:23:00      -65.821      -59.105        7.261       44.891       43.344       25.227     2015.171     1878.706      636.377        0.620        0.227       88.464       28.216        0.102      342.821       18.499      864.700
07/09/2013  04:24:00      -77.982      -59.055      -10.589       25.426       23.068       18.164      646.468      532.111      329.938        0.559        0.075       97.820       12.557        0.016      342.891       18.617      864.700
07/09/2013  04:25:00      -63.620      -40.759       -3.887       20.851       18.045       13.897      434.768      325.616      193.117        0.334        0.048       75.556        7.984        0.011      342.985       18.777      864.726
07/09/2013  04:26:00      -50.961      -16.914       -5.950        8.574       10.030        4.710       73.515      100.599       22.182        0.156        0.010       53.694        3.740        0.005      343.024       18.845      864.733
07/09/2013  04:27:00      -23.010      -23.200       -6.432       13.201       14.840        9.176      174.259      220.214       84.207        0.079        0.024       32.675        8.096        0.061      343.287       19.292      864.744
07/09/2013  04:28:00       -4.855      -17.781       -0.027       16.092       17.621       13.351      258.965      310.492      178.260        0.054        0.037       18.432        9.382        0.259      343.541       19.725      864.745
07/09/2013  04:29:00       -2.987      -10.046       10.832        7.977       12.212        6.728       63.636      149.134       45.268        0.024        0.013       10.480        5.456        0.271      343.271       19.265      864.756
07/09/2013  04:30:00      -56.733      -24.070       -9.143       39.870       14.521       11.217     1589.645      210.853      125.832        0.290        0.096       61.628        8.199        0.018      342.978       18.766      864.752
07/09/2013  04:31:00      -53.917      -44.325       -0.179       46.416       23.482       16.872     2154.484      551.401      284.678        0.393        0.150       69.798       11.655        0.028      342.815       18.489      864.750
07/09/2013  04:32:00      -20.439      -13.197        5.073       28.462       20.509       14.967      810.074      420.618      224.006        0.104        0.073       24.329       15.307        0.396      342.717       18.322      864.747
07/09/2013  04:33:00      -47.137      -22.831       -8.105       12.173       16.243        6.915      148.194      263.850       47.812        0.163        0.023       52.375        5.360        0.010      342.775       18.419      864.752
07/09/2013  04:34:00      -64.143      -31.906       -7.992       15.936       12.827        7.419      253.958      164.533       55.040        0.283        0.024       71.641        7.817        0.012      342.903       18.640      864.749
07/09/2013  04:35:00      -17.460      -45.168       14.965       36.648       24.198       19.098     1343.090      585.526      364.731        0.243        0.115       48.425       20.201        0.174      342.899       18.631      864.758
07/09/2013  04:36:00     -122.436      -89.987       -9.053       48.007       49.651       26.382     2304.637     2465.259      696.018        1.432        0.273      151.948       24.069        0.025      342.774       18.418      864.757
07/09/2013  04:37:00      -99.563      -79.016       -0.037       36.584       38.400       22.783     1338.416     1474.593      519.045        0.974        0.167      127.108       18.696        0.022      342.784       18.436      864.753
07/09/2013  04:38:00      -90.970      -42.709        5.030       45.185       39.813       19.742     2041.681     1585.090      389.744        0.707        0.201      100.497       19.554        0.038      342.772       18.415      864.751
07/09/2013  04:39:00      -73.855      -26.932        3.555       30.782       24.186       13.423      947.514      584.950      180.175        0.395        0.086       78.612       11.204        0.020      342.774       18.418      864.742
07/09/2013  04:40:00      -89.262      -28.402       -3.106       22.970       15.298       11.478      527.626      234.035      131.734        0.484        0.045       93.671        9.337        0.010      342.828       18.511      864.751
07/09/2013  04:41:00     -105.065      -21.734      -12.540       21.326       14.792       12.943      454.809      218.817      167.534        0.625        0.042      107.290       11.816        0.012      342.680       18.258      864.757
07/09/2013  04:42:00     -127.348      -27.163      -12.019       15.979       16.863       12.647      255.319      284.345      159.942        0.890        0.035      130.213        8.659        0.004      342.579       18.087      864.769
07/09/2013  04:43:00     -135.494      -41.551       -7.278       23.893       20.564       13.110      570.893      422.875      171.883        1.065        0.058      141.722       12.736        0.008      342.596       18.117      864.792
07/09/2013  04:44:00     -122.632      -40.791       -7.507       23.624       19.886       13.497      558.085      395.457      182.168        0.895        0.057      129.238       10.150        0.006      342.582       18.093      864.793
07/09/2013  04:45:00     -101.201      -62.194        2.883       38.135       30.102       20.651     1454.248      906.123      426.446        0.845        0.139      118.785       22.446        0.036      342.565       18.062      864.790
07/09/2013  04:46:00     -119.495      -59.736       -3.488       43.667       25.505       23.911     1906.811      650.509      571.752        1.049        0.156      133.594       21.498        0.026      342.545       18.028      864.795
07/09/2013  04:47:00     -109.425      -49.681       -2.842       34.419       38.455       20.970     1184.701     1478.749      439.731        0.878        0.155      120.175       18.832        0.025      342.493       17.941      864.802
07/09/2013  04:48:00      -85.099       -7.838       -2.417       44.800       25.726       19.051     2007.013      661.802      362.936        0.517        0.152       85.459       20.182        0.056      342.300       17.613      864.805
07/09/2013  04:49:00      -76.658      -20.514       -1.650       36.151       24.965       15.402     1306.877      623.238      237.207        0.423        0.108       79.356       18.133        0.052      342.335       17.673      864.809
07/09/2013  04:50:00      -70.886      -71.682       -7.828       18.768       20.626       15.336      352.227      425.444      235.192        0.562        0.051      100.812       14.744        0.021      342.461       17.887      864.818
07/09/2013  04:51:00      -95.807      -35.251       -6.674       22.999       26.638       16.384      528.932      709.557      268.445        0.599        0.075      102.086        7.398        0.005      342.474       17.911      864.826
07/09/2013  04:52:00      -82.035      -32.340       -9.734       15.403       14.241       11.913      237.245      202.795      141.908        0.423        0.029       88.180        6.140        0.005      342.446       17.862      864.846
07/09/2013  04:53:00      -80.840      -43.398       -5.347       11.773       18.265        7.890      138.601      333.614       62.247        0.449        0.027       91.752        4.685        0.003      342.493       17.943      864.852
07/09/2013  04:54:00      -79.074      -39.083      -10.900       15.699       18.461       11.731      246.459      340.794      137.627        0.431        0.036       88.205        6.309        0.005      342.450       17.870      864.844
07/09/2013  04:55:00      -76.999      -14.490      -10.549       23.851       15.991       14.346      568.869      255.700      205.819        0.364        0.052       78.350       14.347        0.034      342.359       17.714      864.841
07/09/2013  04:56:00      -72.127      -34.205      -11.899       30.921       15.037       12.374      956.127      226.108      153.127        0.392        0.067       79.826       13.215        0.027      342.356       17.707      864.861
07/09/2013  04:57:00      -52.303       -6.435       -4.199       26.924       17.300       11.255      724.884      299.282      126.674        0.197        0.058       52.698       11.259        0.046      342.396       17.777      864.866
07/09/2013  04:58:00      -42.534      -20.166       -6.824       12.698       14.789       11.053      161.227      218.701      122.179        0.138        0.025       47.073        3.414        0.005      342.439       17.853      864.873
07/09/2013  04:59:00      -35.187        2.938       -4.293       13.540       18.503       11.190      183.342      342.378      125.219        0.096        0.033       35.310        7.380        0.044      342.504       17.960      864.892
07/09/2013  05:00:00      -25.081       17.598       -6.206       14.513       12.274        9.552      210.623      150.648       91.241        0.071        0.023       30.639        9.964        0.106      342.724       18.334      864.913
07/09/2013  05:01:00      -17.378        5.032       -0.209       20.907       17.251       12.027      437.123      297.585      144.639        0.060        0.044       18.092       11.886        0.432      342.781       18.432      864.924
07/09/2013  05:02:00      -20.720      -18.638       -6.052        9.151       10.650        7.951       83.735      113.417       63.223        0.054        0.013       27.869        4.704        0.028      342.889       18.616      864.938
07/09/2013  05:03:00      -38.040      -26.238       -7.258       11.285       13.380        9.588      127.351      179.014       91.937        0.129        0.020       46.211        3.290        0.005      342.716       18.319      864.962
07/09/2013  05:04:00      -64.442      -24.380      -10.449       17.334       17.289       10.305      300.458      298.908      106.200        0.278        0.035       68.900        6.247        0.008      342.454       17.877      864.978
07/09/2013  05:05:00     -116.204      -40.289      -10.667       22.139       19.341        8.825      490.140      374.093       77.875        0.809        0.047      122.990        5.295        0.002      342.269       17.561      864.986
07/09/2013  05:06:00      -60.827      -51.486       -2.853       27.787       20.842       18.081      772.105      434.407      326.918        0.395        0.077       79.691       12.448        0.024      342.218       17.473      864.992
07/09/2013  05:07:00      -44.086      -33.474       -3.410       27.581       14.122       12.870      760.701      199.434      165.636        0.210        0.056       55.354        8.011        0.021      342.233       17.500      865.008
07/09/2013  05:08:00      -39.000      -47.507       -2.936       21.093       16.898       10.120      444.928      285.551      102.419        0.231        0.042       61.465        6.615        0.012      342.321       17.649      865.013
07/09/2013  05:09:00      -51.963      -35.712       -4.227       21.822       10.713        8.827      476.190      114.774       77.925        0.233        0.033       63.051        5.012        0.006      342.467       17.899      865.022
07/09/2013  05:10:00      -89.243      -35.892      -16.242       11.346       19.199        8.775      128.737      368.609       76.999        0.505        0.029       96.190        7.058        0.005      342.449       17.867      865.025
07/09/2013  05:11:00      -91.773      -47.744       -3.982       15.782       15.103       12.995      249.072      228.111      168.876        0.568        0.032      103.449        8.125        0.006      342.389       17.764      865.048
07/09/2013  05:12:00      -35.670      -22.512       12.018       42.548       21.232       19.552     1810.365      450.800      382.286        0.228        0.132       42.180       19.705        0.218      342.301       17.614      865.073
07/09/2013  05:13:00      -55.697      -51.549       10.131       40.818       32.905       22.678     1666.080     1082.765      514.276        0.456        0.163       75.891       24.754        0.106      342.268       17.559      865.079
07/09/2013  05:14:00     -121.149      -44.386       -3.705       34.004       23.131       19.320     1156.290      535.027      373.255        0.936        0.103      129.024       19.055        0.022      342.373       17.737      865.082
07/09/2013  05:15:00     -115.468      -57.624       -3.209       30.470       17.009       13.468      928.412      289.294      181.397        0.903        0.070      129.048       11.301        0.008      342.413       17.806      865.087
07/09/2013  05:16:00      -88.022      -38.071       -6.754       13.091       15.376       11.873      171.365      236.427      140.966        0.490        0.027       95.903        5.748        0.004      342.404       17.790      865.080
07/09/2013  05:17:00      -74.190      -40.699      -10.782       17.564       13.776        9.030      308.486      189.766       81.535        0.393        0.029       84.620        8.146        0.009      342.426       17.827      865.083
07/09/2013  05:18:00      -82.794      -44.076       -9.045       31.581       23.637       18.563      997.368      558.687      344.576        0.539        0.095       93.795       17.757        0.036      342.364       17.722      865.082
07/09/2013  05:19:00      -96.322      -32.368       -4.706       24.507       19.840       16.328      600.616      393.623      266.593        0.580        0.063      101.615       13.791        0.018      342.197       17.438      865.091
07/09/2013  05:20:00     -101.470      -28.692       -1.305       37.306       29.105       25.564     1391.753      847.091      653.529        0.701        0.145      105.448       24.435        0.054      342.051       17.191      865.088
07/09/2013  05:21:00      -63.735      -11.066        5.053       46.173       34.372       20.770     2131.984     1181.406      431.388        0.398        0.187       64.688       21.689        0.112      342.095       17.265      865.100
07/09/2013  05:22:00      -15.740       -6.294        3.184       21.542       15.837       16.533      464.069      250.807      273.342        0.064        0.049       16.952       15.533        0.840      342.175       17.402      865.107
07/09/2013  05:23:00      -34.316      -30.402       -0.378       50.204       21.320       15.872     2520.490      454.563      251.914        0.266        0.161       45.846       25.122        0.300      342.244       17.517      865.116
07/09/2013  05:24:00     -157.176      -77.828      -12.480       25.690       26.441       14.268      659.977      699.152      203.568        1.624        0.078      175.389        5.854        0.001      342.087       17.250      865.131
07/09/2013  05:25:00     -173.448        0.462      -19.220       37.359       32.711       26.884     1395.678     1069.988      722.761        1.682        0.159      173.449       22.433        0.017      342.187       17.421      865.154
07/09/2013  05:26:00     -147.614       38.702       -7.391       52.920       38.871       26.995     2800.547     1510.946      728.724        1.419        0.252      152.603       22.081        0.021      342.345       17.690      865.153
07/09/2013  05:27:00     -164.906       33.455      -18.546       38.173       37.177       20.853     1457.203     1382.119      434.836        1.596        0.164      168.265       11.748        0.005      342.349       17.696      865.136
07/09/2013  05:28:00      -67.955       15.009       -6.458       30.833       34.103       21.837      950.683     1162.981      476.870        0.374        0.130       69.593        6.632        0.009      342.234       17.501      865.127
07/09/2013  05:29:00      -44.505       11.775       -3.102       22.768       26.023       13.420      518.395      677.212      180.091        0.175        0.069       46.037       11.986        0.068      342.309       17.628      865.119
07/09/2013  05:30:00      -52.138      -12.494      -16.399       19.285       14.970       11.821      371.899      224.096      139.743        0.194        0.037       53.615        7.679        0.021      342.389       17.763      865.112
07/09/2013  05:31:00      -88.515      -24.024      -11.844       33.763       19.075       15.817     1139.914      363.861      250.168        0.515        0.088       91.718       13.661        0.022      342.293       17.602      865.117
07/09/2013  05:32:00      -98.475      -53.124       -7.715       27.890       29.695       18.908      777.874      881.765      357.515        0.730        0.101      111.891       12.666        0.013      342.193       17.431      865.146
07/09/2013  05:33:00     -170.024      -24.469       -8.229       52.820       40.303       27.000     2789.967     1624.355      729.022        1.736        0.257      171.776       21.333        0.015      342.176       17.402      865.159
07/09/2013  05:34:00     -129.104       -6.606       -7.505       60.529       45.522       32.205     3663.817     2072.254     1037.175        1.177        0.339      129.273       30.380        0.055      342.123       17.312      865.187
07/09/2013  05:35:00     -104.499       12.262      -13.996       36.411       36.917       21.615     1325.786     1362.881      467.216        0.721        0.158      105.216       15.646        0.022      342.119       17.307      865.192
07/09/2013  05:36:00      -77.125      -21.909       -4.978       35.732       34.410       22.241     1276.755     1184.016      494.646        0.470        0.148       80.177       16.434        0.042      342.170       17.392      865.185
07/09/2013  05:37:00      -90.728      -42.303       -8.444       24.307       24.162       14.630      590.836      583.808      214.045        0.574        0.069      100.105       11.947        0.014      342.126       17.317      865.184
07/09/2013  05:38:00      -53.429      -37.467      -10.796       42.506       26.959       21.563     1806.777      726.807      464.960        0.369        0.150       65.257       19.671        0.091      342.150       17.358      865.175
07/09/2013  05:39:00      -67.667      -55.534       10.819       55.008       35.050       23.071     3025.898     1228.492      532.260        0.628        0.239       87.538       26.541        0.092      342.168       17.388      865.172
07/09/2013  05:40:00      -90.439      -50.285       -2.400       61.698       31.973       27.147     3806.622     1022.277      736.945        0.814        0.278      103.479       33.919        0.107      342.256       17.540      865.167
07/09/2013  05:41:00      -96.278      -67.160        0.506       34.730       19.279       17.757     1206.154      371.672      315.299        0.784        0.095      117.388        4.720        0.002      342.279       17.578      865.183
07/09/2013  05:42:00      -85.930      -71.888        4.782       47.872       40.002       25.013     2291.719     1600.188      625.654        0.855        0.226      112.035       18.490        0.027      342.255       17.537      865.202
07/09/2013  05:43:00      -93.072      -79.160       -5.822       58.570       48.457       28.860     3430.395     2348.070      832.878        1.079        0.331      122.183       33.281        0.074      342.215       17.469      865.217
07/09/2013  05:44:00      -66.600      -63.579       -0.012       45.493       45.056       25.724     2069.648     2030.020      661.722        0.662        0.238       92.075       28.784        0.098      342.287       17.591      865.227
07/09/2013  05:45:00     -117.565      -50.335       -7.261       25.776       22.247       13.601      664.392      494.922      184.981        0.888        0.067      127.887       12.223        0.009      342.343       17.686      865.235
07/09/2013  05:46:00      -87.997      -51.547      -11.977       27.302       13.887       12.507      745.410      192.859      156.428        0.582        0.055      101.984        4.002        0.002      342.339       17.681      865.250
07/09/2013  05:47:00      -76.112      -46.976        0.024       22.554       17.163       16.972      508.690      294.567      288.033        0.455        0.055       89.442       15.552        0.030      342.307       17.626      865.261
07/09/2013  05:48:00      -86.300      -51.395        1.379       28.270       25.243       16.038      799.201      637.222      257.204        0.589        0.085      100.445        9.708        0.009      342.336       17.675      865.272
07/09/2013  05:49:00      -10.185      -34.131        9.733       35.027       30.560       25.445     1226.896      933.885      647.471        0.209        0.140       35.618       21.699        0.371      342.332       17.668      865.282
07/09/2013  05:50:00       15.281      -14.100       18.427       20.416       16.959       18.788      416.814      287.609      352.977        0.091        0.053       20.792       14.425        0.481      342.321       17.648      865.293
07/09/2013  05:51:00      -25.910      -27.945       -6.332       15.013       20.498       13.831      225.396      420.152      191.291        0.116        0.042       38.108       13.370        0.123      342.406       17.793      865.295
07/09/2013  05:52:00      -75.087      -25.266       -8.086       34.290       18.214        9.782     1175.817      331.733       95.693        0.397        0.080       79.224       13.341        0.028      342.393       17.772      865.308
07/09/2013  05:53:00      -85.428      -84.395       -0.129       61.932       50.302       26.736     3835.591     2530.315      714.837        1.075        0.354      120.085       27.077        0.051      342.247       17.524      865.323
07/09/2013  05:54:00      -95.151      -80.385        1.339       49.545       33.403       28.456     2454.731     1115.791      809.744        0.995        0.219      124.561       20.881        0.028      342.169       17.390      865.335
07/09/2013  05:55:00      -92.581      -64.462       -5.308       19.982       32.067       13.322      399.272     1028.311      177.468        0.718        0.080      112.812        6.526        0.003      342.221       17.479      865.321
07/09/2013  05:56:00      -93.847      -64.526       -6.244       21.526       26.215       14.455      463.369      687.241      208.934        0.718        0.068      113.890        9.283        0.007      342.269       17.559      865.312
07/09/2013  05:57:00      -99.655      -42.186      -10.347       18.725       11.963       10.238      350.615      143.111      104.810        0.621        0.030      108.217        6.081        0.003      342.329       17.662      865.317
07/09/2013  05:58:00      -65.462      -41.517       -0.754       38.551       19.073       13.441     1486.205      363.763      180.671        0.402        0.102       77.517       17.520        0.051      342.387       17.762      865.318
07/09/2013  05:59:00      -19.049      -33.737       10.190       36.238       23.633       17.222     1313.208      558.509      296.587        0.189        0.108       38.743       19.689        0.258      342.428       17.832      865.314
07/09/2013  06:00:00      -13.649      -20.294       12.707       31.204       32.083       20.046      973.661     1029.316      401.833        0.158        0.120       24.457       21.057        0.741      342.424       17.823      865.329
07/09/2013  06:01:00      -58.707      -56.264        1.814       46.789       32.017       22.508     2189.250     1025.115      506.591        0.517        0.186       81.315       24.131        0.088      342.431       17.836      865.352
07/09/2013  06:02:00     -133.576      -80.636       -5.439       34.815       33.564       21.928     1212.099     1126.523      480.853        1.360        0.141      156.028       16.178        0.011      342.412       17.803      865.367
07/09/2013  06:03:00     -130.563      -92.558       -9.846       45.602       30.235       22.433     2079.534      914.146      503.224        1.460        0.175      160.043       23.556        0.022      342.418       17.814      865.388
07/09/2013  06:04:00      -91.727      -63.094      -12.780       16.490       21.404       14.152      271.906      458.118      200.279        0.674        0.047      111.331        8.570        0.006      342.385       17.757      865.398
07/09/2013  06:05:00      -95.973      -30.191       -1.303       14.531       14.964       10.116      211.145      223.919      102.326        0.533        0.027      100.610        2.222        0.000      342.341       17.682      865.397
07/09/2013  06:06:00      -82.961      -37.175       -9.133       11.864        9.539       10.388      140.755       90.997      107.907        0.434        0.017       90.910        8.074        0.008      342.317       17.641      865.392
07/09/2013  06:07:00     -109.014      -46.359       -8.318       16.022       17.001        9.867      256.713      289.021       97.348        0.737        0.032      118.462        5.426        0.002      342.463       17.891      865.391
07/09/2013  06:08:00      -77.499      -40.747       -0.307       23.583       24.191       13.310      556.174      585.197      177.146        0.449        0.066       87.558        9.065        0.011      342.480       17.919      865.397
07/09/2013  06:09:00      -53.365      -34.180       -4.555       15.080        9.205        7.205      227.397       84.725       51.909        0.220        0.018       63.373        6.772        0.011      342.666       18.235      865.389
07/09/2013  06:10:00      -52.624      -40.527       -2.128       11.725       13.774       10.277      137.485      189.718      105.624        0.242        0.022       66.421        7.193        0.012      342.669       18.240      865.392
07/09/2013  06:11:00      -20.635      -33.795        8.872       42.788       17.027       21.146     1830.811      289.905      447.158        0.211        0.128       39.597       19.746        0.249      342.367       17.726      865.402
07/09/2013  06:12:00      -88.709      -45.450       -4.499       22.723       15.194       12.299      516.351      230.850      151.270        0.543        0.045       99.675       12.789        0.016      342.472       17.905      865.414
07/09/2013  06:13:00      -68.082      -37.431       -5.603       30.612       24.298       15.210      937.125      590.408      231.353        0.391        0.088       77.693       10.805        0.019      342.424       17.824      865.417
07/09/2013  06:14:00      -52.594      -43.988       -4.536       27.170       23.877       14.514      738.187      570.094      210.652        0.312        0.076       68.564        9.762        0.020      342.436       17.846      865.412
07/09/2013  06:15:00      -63.151      -36.146       -6.508       14.021       10.192        9.359      196.600      103.881       87.592        0.286        0.019       72.764        4.983        0.005      342.421       17.820      865.414
07/09/2013  06:16:00      -60.761      -39.944       -6.384       21.066       11.649       11.064      443.788      135.703      122.405        0.301        0.035       72.715       10.390        0.020      342.481       17.921      865.418
07/09/2013  06:17:00     -105.992      -53.897      -12.943       15.826       14.455       10.857      250.459      208.949      117.878        0.744        0.029      118.909        5.764        0.002      342.438       17.848      865.413
07/09/2013  06:18:00     -112.231      -57.580       -7.093       12.970       17.283        9.817      168.217      298.697       96.376        0.826        0.028      126.140        5.541        0.002      342.408       17.798      865.421
07/09/2013  06:19:00      -98.238      -59.679       -8.586       25.825       18.891       14.863      666.931      356.888      220.909        0.727        0.062      114.944       14.456        0.016      342.359       17.712      865.427
07/09/2013  06:20:00      -84.525      -36.076       -5.852       19.763       19.781       13.326      390.592      391.294      177.586        0.472        0.048       91.902       11.775        0.016      342.383       17.754      865.426
07/09/2013  06:21:00      -59.376      -42.123       -6.958       10.133       13.088        7.752      102.676      171.298       60.101        0.284        0.017       72.800        5.693        0.006      342.451       17.870      865.422
07/09/2013  06:22:00      -61.030      -37.810       -4.918       13.781       14.940       13.703      189.916      223.207      187.769        0.289        0.030       71.793        7.495        0.011      342.467       17.896      865.428
07/09/2013  06:23:00      -27.500      -34.644        2.987       41.197       14.201       15.084     1697.166      201.661      227.538        0.205        0.106       44.232       22.531        0.259      342.498       17.952      865.436
07/09/2013  06:24:00      -48.497      -41.896       -3.287       22.316       20.643       17.483      497.987      426.120      305.666        0.267        0.061       64.088       14.885        0.054      342.425       17.823      865.448
07/09/2013  06:25:00      -80.891      -26.306       -8.268       19.849       13.878        9.986      393.994      192.590       99.720        0.399        0.034       85.061        3.609        0.002      342.340       17.679      865.468
07/09/2013  06:26:00      -29.103      -26.763       -8.046       30.780       11.433       13.796      947.380      130.706      190.322        0.145        0.063       39.538        4.906        0.015      342.431       17.836      865.474
07/09/2013  06:27:00       31.756      -28.080       12.839       14.947       11.211       13.852      223.412      125.693      191.878        0.125        0.027       42.390        4.949        0.014      342.292       17.599      865.488
07/09/2013  06:28:00      -10.594      -16.710        8.384       26.349       14.278       12.390      694.290      203.861      153.500        0.076        0.053       19.786       11.953        0.365      342.396       17.776      865.495
07/09/2013  06:29:00      -60.790      -16.869       -1.927       13.779        8.493        7.831      189.859       72.132       61.331        0.215        0.016       63.087        4.707        0.006      342.510       17.971      865.516
07/09/2013  06:30:00      -76.738      -29.895      -10.812       16.673       11.473       10.126      277.980      131.638      102.538        0.371        0.026       82.355        8.083        0.010      342.560       18.056      865.515
07/09/2013  06:31:00      -86.567      -27.230      -15.707       13.503        7.544        8.977      182.341       56.916       80.584        0.440        0.016       90.749        4.019        0.002      342.588       18.104      865.531
07/09/2013  06:32:00      -74.798      -17.235       -8.000       13.765        9.301       10.118      189.464       86.506      102.373        0.317        0.019       76.757        8.086        0.011      342.596       18.115      865.524
07/09/2013  06:33:00      -32.133      -28.743        4.298       21.465       13.744       13.337      460.763      188.884      177.887        0.135        0.041       43.113       13.592        0.099      342.673       18.247      865.532
07/09/2013  06:34:00      -35.117      -26.049        3.646       20.372       15.490       14.569      415.011      239.951      212.270        0.140        0.043       43.723        7.045        0.026      342.648       18.204      865.538
07/09/2013  06:35:00      -50.713      -31.279       -3.244       28.480       14.303       12.958      811.090      204.568      167.904        0.237        0.059       59.584       15.113        0.064      342.657       18.220      865.547
07/09/2013  06:36:00      -48.149      -30.890       -4.053       17.864       13.756       12.307      319.115      189.218      151.472        0.197        0.033       57.206        6.135        0.011      342.580       18.091      865.568
07/09/2013  06:37:00      -36.075      -20.122       -2.833       10.388        7.524        7.211      107.919       56.606       51.998        0.097        0.011       41.307        6.348        0.024      342.646       18.200      865.582
07/09/2013  06:38:00        1.886       -3.037        9.767       11.738        7.090       10.163      137.791       50.271      103.292        0.020        0.015        3.575        6.446        3.251      342.870       18.581      865.606
07/09/2013  06:39:00       -4.613      -21.171        6.341        8.661       14.840       11.498       75.012      220.229      132.198        0.047        0.021       21.667        9.720        0.201      342.883       18.605      865.619
07/09/2013  06:40:00       20.107      -70.632      -10.516       28.606       30.421       17.708      818.287      925.423      313.563        0.378        0.103       73.439       11.275        0.024      342.530       18.005      865.636
07/09/2013  06:41:00       15.815      -12.019       14.307       16.701       15.030       21.301      278.907      225.896      453.727        0.078        0.048       19.864       11.547        0.338      342.783       18.435      865.641
07/09/2013  06:42:00        4.425       -4.965        5.832       16.060       13.946       18.359      257.929      194.484      337.058        0.043        0.039        6.651       11.867        3.183      342.740       18.361      865.644
07/09/2013  06:43:00       27.969      -10.543      -12.513       14.594       12.497       16.908      212.991      156.179      285.889        0.085        0.033       29.890        9.676        0.105      342.657       18.220      865.635
07/09/2013  06:44:00       28.646       -5.935       -8.276       19.274       26.747       11.772      371.504      715.377      138.572        0.107        0.061       29.254       13.448        0.211      342.781       18.431      865.631
07/09/2013  06:45:00        8.069      -16.556      -10.601       14.376       23.950       16.586      206.662      573.591      275.091        0.075        0.053       18.418       14.113        0.587      342.747       18.375      865.630
07/09/2013  06:46:00        9.973      -14.929        5.873       15.272       12.078       10.411      233.244      145.874      108.383        0.042        0.024       17.954        9.051        0.254      342.745       18.369      865.629
07/09/2013  06:47:00      -46.278      -24.217       -7.679       21.566       17.937       14.852      465.083      321.730      220.584        0.190        0.050       52.232       11.044        0.045      342.802       18.466      865.637
07/09/2013  06:48:00      -32.697      -29.584        6.404       32.836       20.511       14.781     1078.179      420.720      218.473        0.185        0.086       44.094       12.691        0.083      342.838       18.526      865.630
07/09/2013  06:49:00      -45.690      -20.791        3.908       37.111       18.903       17.739     1377.231      357.316      314.664        0.229        0.102       50.198       18.410        0.134      342.978       18.766      865.640
07/09/2013  06:50:00        9.901        6.466       10.860        9.057       13.031        7.848       82.037      169.804       61.598        0.029        0.016       11.825        8.261        0.488      342.955       18.726      865.628
07/09/2013  06:51:00        2.315       11.308        6.600        7.574        8.440        8.688       57.361       71.237       75.477        0.019        0.010       11.543        5.186        0.202      343.120       19.006      865.636
07/09/2013  06:52:00      -10.385       29.491        7.924       24.235       13.847       13.063      587.317      191.738      170.645        0.099        0.047       31.266       10.783        0.119      343.177       19.104      865.634
07/09/2013  06:53:00       16.946       17.781        3.747        7.004       11.217        6.252       49.058      125.815       39.084        0.042        0.011       24.563        2.923        0.014      343.014       18.828      865.655
07/09/2013  06:54:00       22.506       10.586       -7.910       17.350       22.573       19.296      301.015      509.521      372.348        0.093        0.059       24.871       13.913        0.313      342.989       18.784      865.660
07/09/2013  06:55:00       -1.450        5.789       17.680       14.983       20.050       19.269      224.480      402.001      371.283        0.067        0.050        5.968        9.278        2.417      343.377       19.446      865.668
07/09/2013  06:56:00       21.632        7.528        3.079       13.987       18.065       17.164      195.629      326.337      294.607        0.068        0.041       22.905        7.641        0.111      342.941       18.704      865.662
07/09/2013  06:57:00       26.703      -31.402        3.740       24.332       14.824       16.168      592.031      219.737      261.397        0.139        0.054       41.221       11.198        0.074      342.568       18.070      865.661
07/09/2013  06:58:00        1.167      -35.967      -12.025       19.056       21.889       20.974      363.137      479.124      439.920        0.136        0.064       35.986        7.778        0.047      342.611       18.141      865.672
07/09/2013  06:59:00       -3.517        3.466       -1.693       22.474       32.588       20.868      505.077     1061.969      435.478        0.101        0.100        4.938       22.777       21.278      342.776       18.423      865.677
07/09/2013  07:00:00       39.123       -8.080       13.114       24.206       15.724       24.178      585.922      247.236      584.579        0.159        0.071       39.948        9.986        0.062      342.853       18.554      865.694
07/09/2013  07:01:00        5.796       -2.609       29.150       30.714       12.033       16.274      943.358      144.788      264.835        0.112        0.068        6.356       16.113        6.427      343.193       19.133      865.712
07/09/2013  07:02:00       -8.406       -0.680       25.309       22.447       16.558       17.141      503.887      274.163      293.817        0.089        0.054        8.434       16.064        3.628      343.376       19.444      865.725
07/09/2013  07:03:00      -14.374      -42.020        9.844       30.192       39.495       19.619      911.547     1559.817      384.912        0.246        0.143       44.410       23.100        0.271      343.206       19.155      865.744
07/09/2013  07:04:00      -35.753      -32.906        4.006       21.366       17.733       12.424      456.493      314.473      154.346        0.165        0.046       48.591        4.425        0.008      343.044       18.878      865.748
07/09/2013  07:05:00       16.418       12.988       17.796       21.064       16.368       15.352      443.682      267.897      235.690        0.085        0.047       20.935       11.358        0.294      343.233       19.200      865.738
07/09/2013  07:06:00       38.144        3.823        9.803       37.532       30.977       21.482     1408.669      959.546      461.494        0.220        0.141       38.335       15.560        0.165      342.930       18.685      865.736
07/09/2013  07:07:00        9.234       14.412       27.267       30.981       18.648       14.179      959.803      347.735      201.035        0.127        0.075       17.117        6.568        0.147      343.076       18.934      865.738
07/09/2013  07:08:00        6.498        9.973       17.191       14.626       18.326       12.859      213.907      335.849      165.345        0.058        0.036       11.904       10.494        0.777      343.286       19.291      865.756
07/09/2013  07:09:00        6.200        3.857       27.782       15.004       14.108       10.260      225.133      199.031      105.258        0.068        0.026        7.302        5.613        0.591      343.489       19.636      865.771
07/09/2013  07:10:00       -3.237        3.533       25.073       10.432       13.569       13.314      108.824      184.108      177.255        0.056        0.024        4.792       10.580        4.875      343.608       19.840      865.797
07/09/2013  07:11:00      -14.890       27.075        5.888       14.211       30.415       14.151      201.957      925.048      200.263        0.116        0.066       30.900       14.098        0.208      343.248       19.226      865.821
07/09/2013  07:12:00        5.767       18.539        6.376       19.895       17.139       16.975      395.804      293.747      288.165        0.070        0.049       19.416        7.540        0.151      343.339       19.380      865.822
07/09/2013  07:13:00       32.591       18.383        0.776       16.252       19.994       16.801      264.138      399.748      282.285        0.117        0.047       37.418       12.588        0.113      343.225       19.187      865.832
07/09/2013  07:14:00       16.694        9.282       15.064       15.223       17.676       15.949      231.747      312.432      254.372        0.070        0.040       19.101       10.035        0.276      343.688       19.977      865.830
07/09/2013  07:15:00       17.468        7.228       10.020       26.126       23.151       17.283      682.561      535.970      298.695        0.099        0.076       18.905       11.985        0.402      343.653       19.917      865.837
07/09/2013  07:16:00        5.384      -11.462       21.484       17.798       26.648       15.551      316.752      710.101      241.840        0.095        0.063       12.663        9.574        0.572      343.696       19.990      865.834
07/09/2013  07:17:00       10.853       -1.922       22.098       10.412       13.716       11.151      108.410      188.137      124.345        0.052        0.021       11.022        8.639        0.614      343.812       20.188      865.836
07/09/2013  07:18:00       12.347      -13.786        8.705       20.610       17.184       16.393      424.785      295.290      268.742        0.070        0.049       18.507       11.675        0.398      343.526       19.700      865.841
07/09/2013  07:19:00        2.109        6.700       22.083       17.948       16.320       15.760      322.126      266.347      248.381        0.069        0.042        7.024        9.660        1.892      343.849       20.253      865.839
07/09/2013  07:20:00      -10.448       11.194       25.439       19.309       23.251       21.056      372.830      540.599      443.349        0.112        0.068       15.312       18.463        1.454      343.480       19.621      865.828
07/09/2013  07:21:00       34.585       25.713       13.951       22.201       16.479       16.087      492.902      271.569      258.794        0.154        0.051       43.096       12.372        0.082      343.363       19.423      865.828
07/09/2013  07:22:00       55.472       47.245       10.466       18.202       20.382       19.798      331.297      415.422      391.971        0.328        0.057       72.865        9.153        0.016      343.342       19.386      865.833
07/09/2013  07:23:00       51.758       39.424        4.553       20.377       16.975       18.008      415.205      288.151      324.298        0.264        0.051       65.063       11.322        0.030      343.611       19.844      865.841
07/09/2013  07:24:00       50.738       38.983       12.085       21.903       19.554       19.093      479.739      382.365      364.561        0.273        0.061       63.984       13.671        0.046      343.624       19.868      865.867
07/09/2013  07:25:00       75.484       63.821       18.588       29.630       27.829       16.096      877.924      774.458      259.095        0.601        0.096       98.848       12.750        0.017      343.515       19.679      865.868
07/09/2013  07:26:00      108.513       65.365       15.694       32.887       27.142       21.450     1081.559      736.705      460.104        0.929        0.114      126.679       16.685        0.017      343.575       19.784      865.867
07/09/2013  07:27:00       58.041       46.823       36.163       50.109       32.482       37.151     2510.914     1055.103     1380.232        0.591        0.247       74.573       22.409        0.090      343.809       20.183      865.863
07/09/2013  07:28:00       18.326       31.958       59.305       26.316       29.357       22.114      692.508      861.855      489.015        0.346        0.102       36.840       13.244        0.129      343.843       20.240      865.877
07/09/2013  07:29:00        8.876       36.003       45.399       26.355       25.207       21.620      694.604      635.382      467.412        0.262        0.090       37.081       11.812        0.101      343.831       20.222      865.892
07/09/2013  07:30:00       35.806       29.908       55.868       44.270       37.648       23.120     1959.804     1417.373      534.529        0.460        0.196       46.653       15.138        0.105      343.788       20.146      865.897
07/09/2013  07:31:00       47.553       48.535       28.205       54.482       29.322       28.718     2968.329      859.760      824.715        0.503        0.233       67.948       20.173        0.088      343.889       20.318      865.900
07/09/2013  07:32:00      121.398       53.366       16.106       47.793       29.763       35.315     2284.144      885.860     1247.155        1.113        0.221      132.611       25.727        0.038      343.626       19.871      865.905
07/09/2013  07:33:00       78.982       60.823       32.499       28.448       26.624       28.648      809.290      708.860      820.706        0.667        0.117       99.688        7.022        0.005      343.615       19.851      865.909
07/09/2013  07:34:00       86.029       61.207       11.364       32.238       24.149       24.927     1039.262      583.177      621.336        0.676        0.112      105.581       13.988        0.018      343.725       20.039      865.926
07/09/2013  07:35:00      101.934       63.390       11.492       31.800       21.517       32.516     1011.228      462.993     1057.283        0.854        0.127      120.037       14.711        0.015      343.645       19.902      865.928
07/09/2013  07:36:00       26.979       35.819       21.822       25.795       21.599       22.266      665.382      466.497      495.793        0.206        0.081       44.842        9.095        0.041      343.723       20.035      865.942
07/09/2013  07:37:00       19.081       22.672       19.770       34.438       32.763       19.484     1185.954     1073.405      379.619        0.195        0.132       29.633       11.653        0.155      344.086       20.656      865.935
07/09/2013  07:38:00       80.061       57.890       15.931       26.938       18.963       19.197      725.681      359.590      368.532        0.573        0.073       98.798       12.123        0.015      343.797       20.163      865.928
07/09/2013  07:39:00       76.303       32.104        5.184       52.050       32.207       29.030     2709.251     1037.271      842.762        0.573        0.229       82.782       22.806        0.076      343.957       20.435      865.926
07/09/2013  07:40:00       90.954       72.731        7.958       28.700       33.444       25.582      823.690     1118.480      654.414        0.811        0.130      116.458       16.876        0.021      343.877       20.297      865.924
07/09/2013  07:41:00       77.246       69.801       11.961       46.427       25.261       22.264     2155.457      638.124      495.696        0.714        0.164      104.111       12.898        0.015      343.853       20.257      865.934
07/09/2013  07:42:00       88.978       61.718       11.917       23.343       20.574       16.959      544.911      423.278      287.595        0.656        0.063      108.288        6.800        0.004      343.817       20.195      865.936
07/09/2013  07:43:00       42.973       19.395        7.278       36.178       24.013       23.534     1308.830      576.604      553.853        0.236        0.122       47.147       21.573        0.209      344.008       20.523      865.951
07/09/2013  07:44:00       16.251       19.154       35.403       16.417       17.539       13.180      269.509      307.601      173.717        0.132        0.038       25.119       11.083        0.195      344.402       21.196      865.950
07/09/2013  07:45:00        7.702       20.457       21.477       21.080       20.616       22.847      444.370      425.038      521.972        0.116        0.070       21.859        4.929        0.051      344.293       21.010      865.953
07/09/2013  07:46:00       13.478        6.570       16.797       23.761       22.500       21.246      564.599      506.265      451.387        0.101        0.076       14.994       14.940        0.993      343.838       20.231      865.954
07/09/2013  07:47:00       71.823       30.947       15.779       49.074       28.830       23.748     2408.267      831.145      563.963        0.508        0.190       78.206       24.962        0.102      343.977       20.468      865.947
07/09/2013  07:48:00       84.919       64.760        4.458       28.308       19.122       19.277      801.360      365.640      371.588        0.648        0.077      106.794       14.627        0.019      343.965       20.447      865.954
07/09/2013  07:49:00       34.233       36.029       -3.437       20.823       32.765       21.760      433.589     1073.532      473.493        0.223        0.099       49.698       13.782        0.077      344.181       20.818      865.956
07/09/2013  07:50:00       61.523       50.517       13.161       34.632       18.331       17.054     1199.381      336.040      290.852        0.417        0.091       79.606       11.222        0.020      344.146       20.759      865.967
07/09/2013  07:51:00       90.558       47.589       15.115       23.167       20.214       22.294      536.712      408.616      497.028        0.607        0.072      102.301       10.098        0.010      344.016       20.536      865.967
07/09/2013  07:52:00       70.793       35.439        5.062       28.774       30.899       24.340      827.953      954.740      592.445        0.433        0.119       79.168       12.248        0.024      344.039       20.574      865.983
07/09/2013  07:53:00       74.979       23.950        3.335       22.357       42.250       19.690      499.838     1785.085      387.706        0.444        0.134       78.711       12.087        0.024      344.134       20.736      865.988
07/09/2013  07:54:00       -1.054      -12.260       26.365       14.340       26.482       16.128      205.646      701.318      260.128        0.101        0.058       12.305       10.585        0.740      344.576       21.494      865.999
07/09/2013  07:55:00       16.859       23.089       18.858       25.632       23.139       21.621      657.022      535.436      467.466        0.142        0.083       28.588       17.407        0.371      344.873       22.001      866.010
07/09/2013  07:56:00       54.728       30.228        5.543       37.431       31.835       32.216     1401.111     1013.498     1037.870        0.370        0.173       62.521       23.588        0.142      344.401       21.195      866.008
07/09/2013  07:57:00       63.052       54.081        4.944       45.728       29.512       26.197     2091.035      870.967      686.285        0.529        0.182       83.069       17.417        0.044      344.374       21.148      866.007
07/09/2013  07:58:00       88.007       47.807        3.313       31.029       26.788       23.732      962.779      717.618      563.223        0.614        0.112      100.154        2.715        0.001      344.167       20.794      866.010
07/09/2013  07:59:00       90.293       47.558       12.637       37.624       30.265       26.710     1415.540      915.989      713.432        0.681        0.152      102.052       20.092        0.039      344.183       20.820      866.020
07/09/2013  08:00:00       31.490       25.353       27.848       31.015       44.252       28.286      961.936     1958.243      800.088        0.306        0.186       40.428       14.490        0.128      344.079       20.644      866.025
07/09/2013  08:01:00        3.996       -6.722       24.008        9.251       16.689       11.555       85.590      278.510      133.513        0.057        0.025        7.820        9.977        1.628      344.647       21.614      866.041
07/09/2013  08:02:00       -4.555       13.016       27.404       19.311       15.263       18.689      372.898      232.951      349.290        0.095        0.048       13.790       16.720        1.470      344.713       21.727      866.052
07/09/2013  08:03:00       22.287        4.209       40.489       15.998       20.996       12.299      255.944      440.843      151.256        0.150        0.042       22.681        8.654        0.146      344.617       21.563      866.057
07/09/2013  08:04:00       26.045       19.574       23.931       25.223       21.720       22.682      636.194      471.763      514.490        0.163        0.081       32.581       12.102        0.138      344.735       21.766      866.076
07/09/2013  08:05:00       33.828       21.068        5.371       11.230       18.341       18.631      126.104      336.395      347.127        0.121        0.040       39.852        8.111        0.041      344.496       21.355      866.079
07/09/2013  08:06:00       17.006       21.288       19.810       26.876       25.116       28.056      722.332      630.802      787.145        0.164        0.107       27.247       11.896        0.191      344.699       21.703      866.082
07/09/2013  08:07:00       42.178       16.755        1.143       29.491       18.832       20.381      869.694      354.661      415.388        0.185        0.082       45.385        9.370        0.043      344.167       20.793      866.085
07/09/2013  08:08:00       53.169      -14.832       18.777       27.382       20.097       23.236      749.763      403.876      539.909        0.255        0.085       55.199       12.586        0.052      344.304       21.029      866.091
07/09/2013  08:09:00       11.808       16.130       10.310       32.373       40.810       17.687     1047.984     1665.447      312.836        0.177        0.151       19.991       10.402        0.271      344.568       21.478      866.090
07/09/2013  08:10:00        5.588       30.865       11.732       24.916       36.206       22.810      620.788     1310.879      520.311        0.179        0.123       31.367       13.284        0.179      344.965       22.159      866.090
07/09/2013  08:11:00       -9.726       10.316       11.727       15.549       18.919       16.072      241.774      357.947      258.322        0.060        0.043       14.178       13.820        0.950      344.909       22.063      866.097
07/09/2013  08:12:00      -24.257        6.509       -0.268       19.963        9.472       10.403      398.528       89.718      108.212        0.061        0.030       25.115       11.773        0.220      344.532       21.416      866.102
07/09/2013  08:13:00        1.920        8.944       29.532       16.115       23.080       19.250      259.705      532.671      370.558        0.106        0.058        9.148       10.972        1.438      345.349       22.817      866.110
07/09/2013  08:14:00       -2.952       27.599       45.300       19.433       35.330       18.679      377.634     1248.186      348.898        0.240        0.099       27.756       15.807        0.324      345.076       22.349      866.111
07/09/2013  08:15:00        7.912        9.894       44.088       23.680       23.185       13.888      560.720      537.548      192.869        0.170        0.065       12.668       13.723        1.174      345.068       22.336      866.116
07/09/2013  08:16:00       29.170        6.335       20.422       30.862       24.344       22.390      952.486      592.622      501.322        0.168        0.102       29.850       19.494        0.426      344.871       21.999      866.124
07/09/2013  08:17:00       33.035      -10.650       18.525       31.474       26.627       34.090      990.619      708.982     1162.096        0.220        0.143       34.709       27.454        0.626      344.839       21.944      866.124
07/09/2013  08:18:00       49.828      -17.998       17.361       25.461       20.348       24.730      648.284      414.026      611.559        0.239        0.084       52.979       12.512        0.056      344.490       21.346      866.114
07/09/2013  08:19:00       25.974        3.612       28.488       25.625       26.141       27.282      656.653      683.370      744.320        0.179        0.104       26.224       20.545        0.614      344.974       22.175      866.096
07/09/2013  08:20:00       11.352       19.154       37.632       27.733       24.778       17.488      769.095      613.946      305.824        0.180        0.084       22.265       13.990        0.395      345.076       22.349      866.083
07/09/2013  08:21:00       13.890      -13.604       15.189       21.373       21.170       20.568      456.819      448.174      423.054        0.097        0.066       19.442       12.228        0.396      344.914       22.072      866.082
07/09/2013  08:22:00        1.748        2.089       29.764       19.622       18.074       16.161      385.032      326.685      261.172        0.093        0.049        2.723        8.861       10.586      345.475       23.033      866.083
07/09/2013  08:23:00       40.735       -8.771       11.035       21.531       13.918       21.256      463.583      193.714      451.839        0.148        0.055       41.669       11.928        0.082      344.575       21.491      866.088
07/09/2013  08:24:00       25.859      -10.824       11.571       13.620       16.592       25.405      185.493      275.284      645.391        0.101        0.055       28.033       14.065        0.252      344.924       22.088      866.087
07/09/2013  08:25:00       19.241       -5.418       20.638       15.875       29.852       18.265      252.031      891.163      333.613        0.115        0.074       19.990       16.232        0.659      344.999       22.218      866.088
07/09/2013  08:26:00       37.757       22.768       12.549       21.483       20.063       27.126      461.498      402.507      735.795        0.185        0.080       44.091       12.467        0.080      345.035       22.280      866.093
07/09/2013  08:27:00       46.028       18.998       26.172       34.927       27.809       24.243     1219.925      773.346      587.746        0.287        0.129       49.794       19.187        0.148      345.239       22.628      866.097
07/09/2013  08:28:00        9.659       41.579       -9.029       19.121       22.755       27.491      365.608      517.796      755.733        0.177        0.082       42.686       12.933        0.092      344.999       22.217      866.104
07/09/2013  08:29:00       10.416       31.693      -14.744       23.040       17.930       14.245      530.829      321.481      202.910        0.119        0.053       33.361        9.333        0.078      345.055       22.312      866.104
07/09/2013  08:30:00       -2.271       34.474        7.030       23.199       21.595       25.822      538.212      466.340      666.796        0.146        0.084       34.548       17.746        0.264      345.326       22.778      866.098
07/09/2013  08:31:00       20.534      -15.268       11.024       26.663       45.785       21.431      710.924     2096.291      459.306        0.202        0.163       25.588       17.193        0.451      345.050       22.303      866.109
07/09/2013  08:32:00       37.343      -53.043       10.376       33.016       33.831       36.142     1090.069     1144.561     1306.219        0.393        0.177       64.870       28.727        0.196      344.757       21.803      866.103
07/09/2013  08:33:00       21.383       10.975       36.101       20.627       16.535       20.227      425.457      273.392      409.113        0.149        0.055       24.035       10.809        0.202      345.505       23.084      866.108
07/09/2013  08:34:00       59.431       35.890       19.725       39.965       33.571       21.870     1597.219     1127.005      478.301        0.421        0.160       69.427       15.133        0.048      345.314       22.756      866.107
07/09/2013  08:35:00       33.272       23.435       34.049       29.584       30.273       25.718      875.234      916.458      661.397        0.263        0.123       40.697       12.652        0.097      345.285       22.706      866.123
07/09/2013  08:36:00       81.838      -56.367       -7.335       34.368       41.427       30.377     1181.193     1716.192      922.750        0.687        0.191       99.372       23.120        0.054      344.944       22.123      866.135
07/09/2013  08:37:00       42.516       -7.052       19.137       32.054       30.654       26.457     1027.468      939.680      699.955        0.244        0.133       43.096       12.634        0.086      345.101       22.391      866.142
07/09/2013  08:38:00       20.634       -3.369       35.202       24.702       25.687       25.097      610.186      659.801      629.882        0.179        0.095       20.908       17.121        0.671      345.497       23.071      866.146
07/09/2013  08:39:00       64.687       61.770        7.092       34.130       41.347       25.355     1164.842     1709.605      642.856        0.578        0.176       89.442       13.743        0.024      345.115       22.415      866.138
07/09/2013  08:40:00       -2.078       56.916       -4.826       18.271       53.844       22.091      333.833     2899.127      488.031        0.349        0.186       56.954       27.971        0.241      345.557       23.174      866.123
07/09/2013  08:41:00       49.363       14.412       16.591       52.408       30.678       25.545     2746.567      941.169      652.553        0.363        0.217       51.424       26.026        0.256      345.988       23.912      866.121
07/09/2013  08:42:00       92.821       48.192       19.014       44.945       33.219       30.679     2020.012     1103.500      941.192        0.768        0.203      104.585       11.718        0.013      345.694       23.408      866.125
07/09/2013  08:43:00       87.193       84.805       45.135       53.057       35.160       48.082     2815.019     1236.217     2311.855        1.160        0.318      121.632       35.796        0.087      345.680       23.382      866.130
07/09/2013  08:44:00      105.116      100.004       60.675       38.376       28.576       39.150     1472.719      816.606     1532.707        1.428        0.191      145.087       26.349        0.033      345.328       22.780      866.133
07/09/2013  08:45:00       31.755       83.386       85.482       37.800       31.958       21.338     1428.831     1021.335      455.316        0.909        0.145       89.228       14.321        0.026      345.516       23.103      866.138
07/09/2013  08:46:00       49.246       56.955       50.820       33.395       32.481       28.218     1115.213     1055.028      796.235        0.561        0.148       75.293       23.147        0.095      345.512       23.095      866.138
07/09/2013  08:47:00       23.127       37.797       38.847       38.890       32.463       15.543     1512.469     1053.843      241.588        0.314        0.140       44.311       14.502        0.107      345.600       23.247      866.143
07/09/2013  08:48:00       30.215      -54.763       -0.532       43.494       33.284       30.662     1891.753     1107.850      940.161        0.393        0.197       62.546       18.613        0.089      345.685       23.393      866.138
07/09/2013  08:49:00      -47.477       -4.625        0.308       18.048       29.826       17.364      325.734      889.592      301.492        0.190        0.076       47.702       16.753        0.123      345.355       22.827      866.123
07/09/2013  08:50:00       -8.746      -11.333       16.311       17.709       28.788       17.436      313.613      828.763      304.014        0.096        0.072       14.315       13.399        0.876      346.057       24.032      866.123
07/09/2013  08:51:00       26.208     -103.237        5.423       45.662       68.759       38.714     2084.989     4727.818     1498.797        0.984        0.416      106.512       33.989        0.102      345.938       23.826      866.099
07/09/2013  08:52:00       12.527      -38.268       22.932       27.737       44.632       36.035      769.363     1992.013     1298.503        0.310        0.203       40.267       24.265        0.363      346.003       23.938      866.106
07/09/2013  08:53:00       13.109       57.740       66.246       26.078       37.641       25.420      680.062     1416.856      646.163        0.532        0.137       59.209       12.815        0.047      346.024       23.976      866.103
07/09/2013  08:54:00       79.154       65.512       20.836       41.682       30.314       41.157     1737.360      918.918     1693.933        0.767        0.218      102.748       19.684        0.037      345.827       23.636      866.103
07/09/2013  08:55:00       44.930       54.245       14.897       41.076       34.297       27.991     1687.251     1176.305      783.489        0.441        0.182       70.436       19.155        0.074      346.084       24.076      866.112
07/09/2013  08:56:00       54.409       49.322       20.694       52.134       33.114       32.511     2717.915     1096.537     1056.995        0.535        0.244       73.437       27.618        0.141      346.120       24.139      866.108
07/09/2013  08:57:00       89.543       59.065       15.356       31.357       22.959       28.035      983.290      527.116      785.954        0.702        0.115      107.269       12.230        0.013      345.764       23.527      866.111
07/09/2013  08:58:00       13.243       30.004       29.605       32.398       32.218       19.983     1049.645     1038.014      399.320        0.222        0.124       32.796        8.301        0.064      346.273       24.403      866.110
07/09/2013  08:59:00       13.006       35.101       65.952       35.182       63.524       42.479     1237.775     4035.301     1804.476        0.641        0.354       37.433       42.884        1.312      346.326       24.495      866.114
07/09/2013  09:00:00        9.544       37.067       75.764       30.050       45.570       20.849      903.026     2076.636      434.661        0.531        0.171       38.276       22.495        0.345      346.229       24.327      866.122
07/09/2013  09:01:00       36.274       24.677       48.100       43.596       45.215       27.717     1900.621     2044.410      768.253        0.447        0.236       43.872       25.777        0.345      346.149       24.189      866.122
07/09/2013  09:02:00       27.590       60.361       32.168       37.029       30.644       36.829     1371.174      939.052     1356.360        0.455        0.183       66.367       27.923        0.177      345.909       23.777      866.132
07/09/2013  09:03:00       56.323       81.694       80.161       54.528       46.130       40.575     2973.301     2127.994     1646.317        1.151        0.337       99.228       36.825        0.138      345.912       23.783      866.127
07/09/2013  09:04:00       37.090       75.872       69.766       63.368       29.864       32.670     4015.495      891.845     1067.314        0.899        0.299       84.453       34.923        0.171      345.971       23.884      866.127
07/09/2013  09:05:00       18.602       75.981       81.589       50.747       51.662       45.946     2575.244     2668.951     2111.030        1.006        0.368       78.225       41.484        0.281      345.919       23.793      866.130
07/09/2013  09:06:00       47.616       77.654       58.580       46.461       36.411       48.222     2158.646     1325.765     2325.346        0.877        0.290       91.091       36.320        0.159      345.877       23.721      866.123
07/09/2013  09:07:00       27.329       59.505        6.730       34.802       20.110       24.360     1211.212      404.395      593.413        0.327        0.110       65.481       16.362        0.062      345.798       23.585      866.124
07/09/2013  09:08:00        7.457       24.856       33.875       21.130       29.145       30.351      446.459      849.418      921.164        0.202        0.111       25.951       14.586        0.316      346.531       24.845      866.118
07/09/2013  09:09:00       40.063       25.334       42.995       35.760       32.452       27.242     1278.775     1053.113      742.142        0.358        0.154       47.401       14.772        0.097      346.357       24.549      866.117
07/09/2013  09:10:00       22.873       42.340       29.172       24.723       29.973       25.403      611.232      898.382      645.301        0.266        0.108       48.124       12.924        0.072      346.226       24.320      866.118
07/09/2013  09:11:00       16.255       47.325        4.983       20.380       18.668       23.629      415.339      348.484      558.341        0.193        0.066       50.038       15.198        0.092      346.255       24.371      866.116
07/09/2013  09:12:00       32.597       49.675       24.568       34.137       27.140       24.938     1165.365      736.588      621.908        0.333        0.126       59.415       15.826        0.071      346.486       24.768      866.114
07/09/2013  09:13:00       22.120       45.141       28.401       38.261       30.422       28.947     1463.942      925.499      837.931        0.328        0.161       50.269       28.392        0.319      346.748       25.219      866.112
07/09/2013  09:14:00       27.578      -13.026       16.972       32.507       40.444       29.769     1056.687     1635.747      886.215        0.240        0.179       30.499       28.452        0.870      346.633       25.023      866.107
07/09/2013  09:15:00       19.276      -12.219       18.264       19.688       25.939       26.628      387.612      672.825      709.024        0.131        0.088       22.823       24.062        1.112      346.674       25.092      866.101
07/09/2013  09:16:00       48.784       23.575       42.767       54.941       35.475       29.680     3018.515     1258.488      880.905        0.496        0.258       54.182       30.799        0.323      346.554       24.885      866.102
07/09/2013  09:17:00       58.848       93.632       71.762       53.394       45.918       44.950     2850.899     2108.440     2020.547        1.218        0.349      110.590       36.744        0.110      346.229       24.325      866.089
07/09/2013  09:18:00      139.015       96.971       32.656       38.760       28.085       31.380     1502.324      788.764      984.709        1.653        0.164      169.495       19.290        0.013      346.087       24.082      866.086
07/09/2013  09:19:00       84.709       75.872       48.470       52.953       37.773       29.464     2804.070     1426.809      868.114        1.019        0.255      113.720       26.475        0.054      346.444       24.698      866.080
07/09/2013  09:20:00       75.626       64.596       31.592       45.265       46.120       38.664     2048.878     2127.098     1494.892        0.828        0.284       99.458       35.250        0.126      346.486       24.769      866.080
07/09/2013  09:21:00      115.128       76.601       23.464       43.360       36.660       34.742     1880.074     1343.975     1207.005        1.205        0.222      138.283       20.474        0.022      346.336       24.511      866.077
07/09/2013  09:22:00       12.469       33.067       39.435       25.511       32.564       25.130      650.803     1060.430      631.502        0.257        0.117       35.340       17.505        0.245      346.838       25.374      866.074
07/09/2013  09:23:00       -6.278      -10.192       19.169       11.161       19.957       20.795      124.578      398.266      432.414        0.073        0.048       11.971       12.922        1.165      347.423       26.384      866.066
07/09/2013  09:24:00      -44.661       22.603        8.202       19.268       12.708       13.520      371.244      161.500      182.779        0.164        0.036       50.055       10.666        0.045      346.550       24.877      866.051
07/09/2013  09:25:00       11.488       31.712       50.560       29.226       44.159       20.016      854.137     1949.982      400.656        0.345        0.160       33.729       16.872        0.250      347.286       26.147      866.048
07/09/2013  09:26:00       42.933       -3.110       49.114       45.629       47.058       38.310     2082.005     2214.474     1467.679        0.501        0.288       43.046       31.804        0.546      346.697       25.131      866.043
07/09/2013  09:27:00       87.095       66.824       18.337       50.041       33.426       45.146     2504.111     1117.265     2038.126        0.902        0.283      109.777       36.893        0.113      346.258       24.376      866.045
07/09/2013  09:28:00       26.373       31.287       22.740       32.919       32.007       31.905     1083.633     1024.474     1017.905        0.266        0.156       40.919       21.044        0.264      346.953       25.571      866.040
07/09/2013  09:29:00       76.476       39.055       12.124       62.584       44.655       28.904     3916.746     1994.100      835.459        0.713        0.337       85.871       23.054        0.072      346.992       25.639      866.035
07/09/2013  09:30:00      109.003       79.791        7.382       36.309       29.310       25.578     1318.332      859.086      654.229        1.057        0.142      135.086       11.360        0.007      346.745       25.212      866.032
07/09/2013  09:31:00       65.016       54.706       -2.757       37.005       39.846       27.137     1369.381     1587.717      736.408        0.546        0.185       84.970       16.556        0.038      346.871       25.430      866.018
07/09/2013  09:32:00       69.812       53.207       27.050       52.328       57.980       45.033     2738.266     3361.696     2027.978        0.828        0.406       87.776       37.680        0.184      347.145       25.903      866.025
07/09/2013  09:33:00       98.042      102.022       63.329       75.780       47.233       53.416     5742.647     2230.917     2853.228        1.743        0.541      141.495       46.486        0.108      346.372       24.571      866.022
07/09/2013  09:34:00       48.426       75.528       59.970       36.165       37.172       36.124     1307.932     1381.793     1304.957        0.782        0.200       89.720       19.097        0.045      346.688       25.116      866.027
07/09/2013  09:35:00       31.165        6.692       28.084       36.238       37.641       26.812     1313.192     1416.845      718.872        0.263        0.172       31.875       21.564        0.458      347.138       25.890      866.020
07/09/2013  09:36:00       -2.989       -0.446       26.258       29.399       56.201       28.809      864.311     3158.533      829.955        0.277        0.243        3.022       28.300       87.706      347.142       25.897      866.014
07/09/2013  09:37:00       32.429       26.400       46.230       56.863       67.589       45.363     3233.408     4568.267     2057.781        0.687        0.493       41.816       39.071        0.873      347.271       26.119      866.016
07/09/2013  09:38:00       12.511        4.568       30.368       38.320       42.025       22.512     1468.404     1766.105      506.790        0.242        0.187       13.319       14.957        1.261      347.734       26.918      866.018
07/09/2013  09:39:00       64.837       14.224       19.556       48.197       82.958       37.274     2322.921     6881.975     1389.316        0.769        0.530       66.379       27.313        0.169      347.061       25.759      866.025
07/09/2013  09:40:00       15.548       -2.893       17.869       26.972       50.031       31.382      727.500     2503.088      984.837        0.239        0.211       15.815       22.432        2.012      347.273       26.122      866.016
07/09/2013  09:41:00       62.816       79.095        3.056       58.465       38.087       38.948     3418.157     1450.605     1516.927        0.830        0.319      101.005       25.996        0.066      346.864       25.419      866.013
07/09/2013  09:42:00       44.724       51.209       49.612       43.630       46.179       27.042     1903.552     2132.479      731.275        0.592        0.238       67.990       14.833        0.048      347.363       26.278      865.994
07/09/2013  09:43:00      101.072       75.271       34.530       42.662       38.248       40.250     1820.030     1462.917     1620.071        1.099        0.245      126.021       27.098        0.046      346.951       25.567      865.981
07/09/2013  09:44:00       77.288       64.988       27.285       36.698       18.682       30.666     1346.729      349.029      940.377        0.679        0.132      100.980       15.100        0.022      346.580       24.931      865.976
07/09/2013  09:45:00       60.051       67.008        9.284       68.958       37.604       33.844     4755.249     1414.079     1145.449        0.775        0.366       89.979       16.298        0.033      347.248       26.080      865.962
07/09/2013  09:46:00       35.446       86.625        2.200       37.285       48.683       31.884     1390.165     2369.986     1016.584        0.677        0.239       93.597       29.064        0.096      347.402       26.346      865.967
07/09/2013  09:47:00       40.970       54.349       20.028       33.696       32.620       35.927     1135.432     1064.058     1290.725        0.426        0.175       68.061       23.385        0.118      347.420       26.378      865.956
07/09/2013  09:48:00       53.434       41.877       23.971       42.785       32.112       28.791     1830.533     1031.168      828.920        0.444        0.185       67.888       22.326        0.108      347.301       26.172      865.956
07/09/2013  09:49:00        8.624       27.053       19.044       39.182       31.242       25.238     1535.212      976.051      636.979        0.216        0.157       28.395       19.004        0.448      347.677       26.819      865.940
07/09/2013  09:50:00       -9.785       44.797       19.789       25.039       39.787       24.459      626.956     1582.975      598.220        0.265        0.140       45.854       24.910        0.295      348.016       27.404      865.926
07/09/2013  09:51:00       71.586       89.383        5.506       57.978       43.821       39.590     3361.427     1920.248     1567.341        1.000        0.342      114.516       19.681        0.030      347.393       26.330      865.917
07/09/2013  09:52:00       57.224       57.885       46.469       44.793       32.269       32.959     2006.441     1041.318     1086.281        0.646        0.207       81.396       23.388        0.083      347.526       26.559      865.909
07/09/2013  09:53:00        4.184      -37.065       17.777       24.237       32.388       24.164      587.426     1048.981      583.891        0.196        0.111       37.300       11.411        0.094      347.284       26.142      865.906
07/09/2013  09:54:00       -5.175      -15.309       38.984       13.445       26.349       16.637      180.779      694.292      276.773        0.147        0.058       16.160       11.469        0.504      347.813       27.054      865.908
07/09/2013  09:55:00      -21.427       10.340       21.015       18.691       55.428       15.642      349.337     3072.280      244.674        0.234        0.183       23.792        2.950        0.015      347.568       26.631      865.908
07/09/2013  09:56:00       36.576       53.870       11.935       35.029       37.336       32.317     1227.040     1394.003     1044.358        0.402        0.183       65.113       28.906        0.197      347.968       27.324      865.909
07/09/2013  09:57:00       12.722       19.588       15.424       26.732       32.408       23.585      714.602     1050.269      556.229        0.155        0.116       23.356       15.976        0.468      347.774       26.988      865.910
07/09/2013  09:58:00        3.846        5.044       24.435       25.411       24.252       26.515      645.712      588.162      703.070        0.129        0.097        6.343       13.267        4.375      348.281       27.862      865.908
07/09/2013  09:59:00       30.957       40.758       60.158       36.499       34.133       27.440     1332.186     1165.056      752.950        0.474        0.163       51.182       22.263        0.189      347.622       26.725      865.908
07/09/2013  10:00:00       49.389       41.216       41.617       46.071       31.946       49.932     2122.500     1020.525     2493.228        0.575        0.282       64.328       29.069        0.204      347.629       26.739      865.902
07/09/2013  10:01:00       56.537       12.383       33.740       45.907       25.780       27.723     2107.476      664.610      768.552        0.401        0.177       57.878       19.733        0.116      347.350       26.256      865.905
07/09/2013  10:02:00       14.614        1.233       40.746       26.259       26.546       20.735      689.519      704.698      429.942        0.185        0.091       14.666        9.290        0.401      347.977       27.338      865.895
07/09/2013  10:03:00       34.319      -32.687       22.251       28.230       37.449       35.416      796.927     1402.430     1254.273        0.310        0.173       47.394       24.675        0.271      347.124       25.868      865.884
07/09/2013  10:04:00       40.497      -28.594       27.576       40.136       50.725       28.547     1610.868     2573.009      814.959        0.411        0.250       49.574       29.773        0.361      347.169       25.944      865.880
07/09/2013  10:05:00       18.104      -17.026       33.266       33.960       38.978       30.662     1153.289     1519.282      940.141        0.267        0.181       24.852       28.483        1.314      347.999       27.376      865.867
07/09/2013  10:06:00      -15.289      -72.955        4.396       50.754       37.588       28.754     2575.977     1412.865      826.805        0.519        0.241       74.540       16.894        0.051      347.536       26.578      865.872
07/09/2013  10:07:00      -27.624      -71.325       11.174       35.166       48.983       23.006     1236.656     2399.317      529.270        0.507        0.208       76.487       20.729        0.073      347.492       26.502      865.868
07/09/2013  10:08:00      -48.447      -34.110       22.514       39.945       30.198       24.072     1595.632      911.941      579.476        0.355        0.154       59.251       21.564        0.132      347.569       26.634      865.859
07/09/2013  10:09:00       -6.966      -50.421        2.360       36.060       27.264       25.348     1300.343      743.321      642.515        0.264        0.134       50.900       10.298        0.041      347.205       26.007      865.858
07/09/2013  10:10:00      -37.535      -60.774       -3.735       28.166       30.517       18.902      793.337      931.296      357.273        0.360        0.104       71.430       13.679        0.037      347.370       26.290      865.860
07/09/2013  10:11:00      -12.209      -14.468       26.011       36.080       36.763       22.988     1301.784     1351.484      528.464        0.211        0.159       18.931       27.022        2.037      348.164       27.662      865.854
07/09/2013  10:12:00      -50.202      -35.566        3.780       55.923       42.169       28.493     3127.412     1778.200      811.870        0.476        0.286       61.524       25.512        0.172      347.902       27.209      865.850
07/09/2013  10:13:00      -66.152      -10.263       19.805       40.769       36.670       29.248     1662.116     1344.701      855.469        0.437        0.193       66.944       29.819        0.198      347.807       27.045      865.848
07/09/2013  10:14:00      -65.056      -21.047        2.823       31.124       17.467       17.910      968.733      305.099      320.783        0.314        0.080       68.376       20.932        0.094      347.580       26.652      865.849
07/09/2013  10:15:00      -51.114      -23.974       -1.673       25.130       19.887       12.447      631.522      395.483      154.920        0.219        0.059       56.457       11.975        0.045      347.553       26.606      865.862
07/09/2013  10:16:00       -1.782      -16.309       20.467        6.216       13.741        7.990       38.645      188.813       63.840        0.049        0.015       16.406        4.111        0.063      348.209       27.739      865.858
07/09/2013  10:17:00       51.652        7.850       23.471       39.382       26.067       37.199     1550.936      679.504     1383.764        0.345        0.181       52.245       21.233        0.165      348.449       28.153      865.861
07/09/2013  10:18:00       54.170       59.697        2.547       26.776       32.607       26.320      716.940     1063.230      692.765        0.449        0.124       80.611       13.575        0.028      348.039       27.446      865.852
07/09/2013  10:19:00       23.178       -1.278       -2.173       22.006       37.799       22.588      484.272     1428.757      510.220        0.148        0.121       23.213       16.797        0.524      348.017       27.408      865.852
07/09/2013  10:20:00        1.880        7.595        4.112       19.643       22.956       24.741      385.831      526.988      612.102        0.080        0.076        7.824       16.109        4.239      348.283       27.865      865.850
07/09/2013  10:21:00       -9.308       -7.976       11.692       11.599       17.223       13.726      134.540      296.647      188.391        0.045        0.031       12.258        7.352        0.360      348.454       28.162      865.859
07/09/2013  10:22:00      -16.903        8.868       15.143       15.054       19.725       17.580      226.620      389.088      309.059        0.076        0.046       19.088       10.174        0.284      348.301       27.898      865.843
07/09/2013  10:23:00       18.054        8.467       23.949       44.906       39.319       39.846     2016.545     1546.012     1587.731        0.306        0.258       19.941       24.573        1.519      348.090       27.532      865.843
07/09/2013  10:24:00      -24.819       -0.275       15.903       23.940       22.142       26.983      573.104      490.253      728.072        0.133        0.090       24.820       13.294        0.287      348.540       28.312      865.832
07/09/2013  10:25:00       -5.216       27.569       58.246       23.176       43.250       36.624      537.122     1870.576     1341.350        0.396        0.187       28.059       36.304        1.674      348.692       28.575      865.832
07/09/2013  10:26:00      -16.078       12.909       38.601       12.596       16.520       16.908      158.656      272.899      285.893        0.132        0.036       20.619        7.662        0.138      349.069       29.227      865.828
07/09/2013  10:27:00      -83.617      -39.798        7.934       49.023       48.547       27.609     2403.291     2356.768      762.243        0.708        0.276       92.606       28.684        0.096      348.269       27.843      865.816
07/09/2013  10:28:00      -18.493      -60.346       21.418       64.444       46.757       30.790     4152.995     2186.242      948.054        0.586        0.364       63.116       32.116        0.259      348.138       27.615      865.818
07/09/2013  10:29:00      -65.756      -44.578       10.202       50.894       31.977       24.290     2590.226     1022.500      589.986        0.531        0.210       79.442       22.752        0.082      347.848       27.114      865.811
07/09/2013  10:30:00      -31.979       -5.243       19.994       32.708       29.691       25.183     1069.811      881.579      634.173        0.202        0.129       32.406       23.302        0.517      348.400       28.069      865.811
07/09/2013  10:31:00      -47.839      -21.628        7.560       30.910       22.552       19.323      955.441      508.596      373.363        0.233        0.092       52.501       15.385        0.086      347.978       27.340      865.799
07/09/2013  10:32:00       -3.331      -23.312       20.000       30.029       48.784       32.534      901.711     2379.912     1058.435        0.265        0.217       23.548       32.321        1.884      348.532       28.296      865.786
07/09/2013  10:33:00      -16.136      -55.809      -13.579       64.150       50.549       40.064     4115.176     2555.242     1605.107        0.592        0.414       58.095       29.161        0.252      348.198       27.718      865.769
07/09/2013  10:34:00       53.403     -104.194       14.521       57.191       72.500       36.800     3270.853     5256.195     1354.250        1.190        0.494      117.083       32.591        0.077      348.074       27.504      865.759
07/09/2013  10:35:00       66.917      -64.869       23.412       56.698       55.394       33.572     3214.620     3068.471     1127.081        0.832        0.371       93.198       29.178        0.098      347.926       27.248      865.767
07/09/2013  10:36:00       17.332      -85.861        7.671       57.887       65.333       40.047     3350.918     4268.436     1603.796        0.848        0.461       87.593       37.816        0.186      348.259       27.825      865.753
07/09/2013  10:37:00        2.310      -13.110       35.519       56.730       42.195       29.172     3218.347     1780.385      851.029        0.364        0.292       13.311       19.826        2.218      348.643       28.489      865.754
07/09/2013  10:38:00      -53.058     -107.341        3.324       66.494       62.925       46.979     4421.432     3959.566     2207.006        1.247        0.529      119.738       46.238        0.149      348.054       27.471      865.761
07/09/2013  10:39:00     -134.475      -54.049      -20.963       48.501       46.000       27.276     2352.299     2115.998      744.001        1.333        0.261      144.930       19.017        0.017      347.756       26.955      865.767
07/09/2013  10:40:00      -39.192      -75.627        9.940       60.934       48.316       42.130     3712.930     2334.467     1774.920        0.759        0.391       85.179       38.260        0.202      348.341       27.968      865.769
07/09/2013  10:41:00      -37.794     -161.887       -8.508       34.284       58.785       23.550     1175.409     3455.680      554.599        1.645        0.259      166.240       13.128        0.006      347.704       26.866      865.777
07/09/2013  10:42:00      -36.274      -83.453        1.906       48.918       33.411       23.280     2392.950     1116.314      541.957        0.617        0.203       90.995       10.491        0.013      347.833       27.088      865.762
07/09/2013  10:43:00      -25.445      -57.303        9.604       50.987       37.590       28.907     2599.657     1413.020      835.617        0.443        0.242       62.699       33.048        0.278      348.296       27.888      865.749
07/09/2013  10:44:00      -45.764      -68.008        0.056       40.934       30.508       23.225     1675.607      930.753      539.384        0.493        0.157       81.972       16.018        0.038      348.025       27.420      865.749
07/09/2013  10:45:00      -53.921      -52.457       -6.091       45.764       30.973       23.988     2094.320      959.314      575.422        0.466        0.181       75.227       18.483        0.060      348.120       27.585      865.745
07/09/2013  10:46:00      -66.261      -39.257        1.792       52.803       44.744       27.997     2788.125     2002.019      783.834        0.575        0.279       77.017       32.017        0.173      348.129       27.600      865.734
07/09/2013  10:47:00      -12.382      -13.520       19.356       54.009       28.307       26.728     2917.021      801.301      714.374        0.257        0.222       18.334       29.423        2.575      348.928       28.984      865.739
07/09/2013  10:48:00      -30.838      -43.022        6.656       46.866       26.877       23.305     2196.377      722.390      543.136        0.315        0.173       52.933       26.664        0.254      348.458       28.169      865.736
07/09/2013  10:49:00       79.906      -88.453        9.042       34.212       36.552       28.558     1170.453     1336.079      815.584        0.881        0.166      119.201        9.407        0.006      348.017       27.408      865.752
07/09/2013  10:50:00       57.203       25.147        0.510       44.853       59.906       28.676     2011.774     3588.760      822.331        0.516        0.321       62.486       20.102        0.103      347.879       27.167      865.747
07/09/2013  10:51:00        1.638       17.126       -2.060       25.870       40.553       30.468      669.249     1644.580      928.306        0.177        0.162       17.204       16.085        0.874      348.215       27.748      865.744
07/09/2013  10:52:00       17.172       12.617       31.784       26.284       27.025       15.202      690.848      730.338      231.112        0.156        0.083       21.309        9.501        0.199      348.972       29.058      865.726
07/09/2013  10:53:00        0.654       30.203       51.129       27.624       34.592       25.488      763.093     1196.579      649.626        0.307        0.130       30.210       18.214        0.363      348.788       28.740      865.737
07/09/2013  10:54:00       38.662      -70.087       10.281       68.313       50.518       31.139     4666.615     2552.048      969.628        0.735        0.409       80.044       25.772        0.104      348.356       27.993      865.720
07/09/2013  10:55:00       -9.780      -86.973       -3.805       47.833       70.220       45.233     2287.991     4930.809     2046.052        0.847        0.463       87.521       31.727        0.131      348.655       28.510      865.732
07/09/2013  10:56:00       -4.929      -42.403       41.877       47.123       67.975       38.013     2220.550     4620.545     1445.024        0.593        0.414       42.689       37.245        0.761      349.018       29.139      865.730
07/09/2013  10:57:00       39.140     -107.353       11.487       58.860       53.365       38.551     3464.500     2847.834     1486.145        1.049        0.390      114.266       28.531        0.062      348.659       28.515      865.740
07/09/2013  10:58:00       -1.817      -47.852       46.529       36.913       82.386       54.675     1362.553     6787.374     2989.327        0.780        0.557       47.887       53.313        1.239      348.874       28.891      865.730
07/09/2013  10:59:00       57.091       73.039       78.302       55.085       52.209       45.811     3034.311     2725.738     2098.606        1.129        0.393       92.705       29.873        0.104      348.328       27.943      865.741
07/09/2013  11:00:00       55.773       12.405       -5.815       66.934       44.494       37.629     4480.172     1979.721     1415.916        0.559        0.394       57.136       29.911        0.274      348.340       27.965      865.729
07/09/2013  11:01:00       51.341       59.333        8.130       56.887       33.772       34.233     3236.180     1140.532     1171.910        0.588        0.277       78.462       25.100        0.102      348.715       28.613      865.724
07/09/2013  11:02:00      -16.180       -0.178       22.789       49.581       43.881       27.125     2458.245     1925.544      735.741        0.295        0.256       16.181       24.318        2.259      348.986       29.084      865.723
07/09/2013  11:03:00       26.975       46.529        9.171       50.248       37.024       32.210     2524.837     1370.752     1037.495        0.395        0.247       53.783       23.661        0.194      348.467       28.185      865.718
07/09/2013  11:04:00       67.954       43.142       25.513       62.524       33.564       30.588     3909.275     1126.574      935.604        0.655        0.299       80.492       27.133        0.114      349.011       29.127      865.714
07/09/2013  11:05:00       21.080       29.600        7.527       44.284       36.006       32.561     1961.044     1296.467     1060.211        0.285        0.216       36.339       15.853        0.190      348.822       28.800      865.713
07/09/2013  11:06:00      -26.216       30.723       22.664       45.040       41.508       30.713     2028.599     1722.947      943.275        0.342        0.235       40.387       18.777        0.216      349.246       29.535      865.717
07/09/2013  11:07:00       43.157       22.161       57.651       78.076       44.645       41.548     6095.815     1993.212     1726.227        0.774        0.491       48.514       24.662        0.258      349.449       29.887      865.698
07/09/2013  11:08:00       88.234       78.964       40.418       43.127       37.637       37.501     1859.913     1416.524     1406.340        1.017        0.234      118.409       27.910        0.056      348.741       28.660      865.699
07/09/2013  11:09:00       88.491       76.933       46.321       88.623       59.599       45.909     7853.979     3552.022     2107.660        1.470        0.676      117.257       32.966        0.079      348.844       28.836      865.689
07/09/2013  11:10:00      161.226       68.668       19.720       69.005       70.985       51.634     4761.743     5038.812     2666.051        2.178        0.623      175.240       35.822        0.042      348.254       27.812      865.679
07/09/2013  11:11:00       62.250       63.468       60.618       66.465       47.003       45.080     4417.547     2209.318     2032.227        1.012        0.433       88.900       38.729        0.190      348.463       28.177      865.678
07/09/2013  11:12:00       89.510       44.200       24.052       88.038       63.840       39.623     7750.715     4075.545     1569.990        1.197        0.670       99.828       40.500        0.165      349.009       29.121      865.673
07/09/2013  11:13:00       16.729      -10.037       14.439       61.734       30.016       35.093     3811.134      900.933     1231.550        0.327        0.297       19.509       30.757        2.486      349.014       29.133      865.672
07/09/2013  11:14:00       -2.642       26.980       59.110       25.996       41.698       34.773      675.795     1738.710     1209.167        0.393        0.181       27.109       27.147        1.003      349.275       29.585      865.664
07/09/2013  11:15:00       33.124      -99.033        9.549       51.368       84.716       47.573     2638.702     7176.722     2263.198        1.153        0.604      104.426       43.330        0.172      348.676       28.546      865.664
07/09/2013  11:16:00        2.579      -18.258       29.119       25.561       47.154       25.069      653.365     2223.530      628.436        0.235        0.175       18.440       13.224        0.514      349.158       29.382      865.667
07/09/2013  11:17:00       32.659       -4.432       17.383       38.271       41.670       32.176     1464.660     1736.398     1035.279        0.281        0.212       32.958       23.968        0.529      348.846       28.841      865.646
07/09/2013  11:18:00       50.036      -64.472       11.333       58.592       49.762       42.597     3433.023     2476.241     1814.464        0.725        0.386       81.611       24.837        0.093      348.550       28.329      865.641
07/09/2013  11:19:00      110.421      -25.860       29.937       69.190       60.082       40.454     4787.247     3609.810     1636.523        1.189        0.502      113.408       41.932        0.137      348.348       27.980      865.632
07/09/2013  11:20:00       56.069      -78.247        0.453       59.071       53.529       34.890     3489.362     2865.356     1217.313        0.842        0.379       96.262       26.234        0.074      348.421       28.103      865.619
07/09/2013  11:21:00       10.446       16.153       63.430       27.047       58.155       35.142      731.564     3381.963     1234.973        0.487        0.267       19.236       33.421        3.018      349.029       29.159      865.612
07/09/2013  11:22:00        6.268        5.093       46.684       31.059       40.153       29.053      964.654     1612.226      844.101        0.283        0.171        8.077       28.505       12.456      349.276       29.586      865.596
07/09/2013  11:23:00       32.544       31.892       67.981       53.448       76.683       43.065     2856.650     5880.306     1854.631        0.864        0.530       45.565       43.563        0.914      349.264       29.566      865.591
07/09/2013  11:24:00        6.835       22.356       37.563       36.142       49.125       37.631     1306.242     2413.291     1416.104        0.355        0.257       23.378       25.392        1.180      349.105       29.288      865.594
07/09/2013  11:25:00       67.722      -88.408       19.288       69.554      124.271       61.171     4837.753    15443.262     3741.865        1.839        1.201      111.365       69.543        0.390      349.026       29.150      865.572
07/09/2013  11:26:00       35.771       16.654       76.271       57.965       58.752       43.842     3359.906     3451.844     1922.127        0.805        0.437       39.458       32.208        0.666      349.052       29.197      865.585
07/09/2013  11:27:00       83.535      -62.449       14.118       72.347      108.322       66.056     5234.018    11733.681     4363.358        1.620        1.067      104.298       81.085        0.604      348.804       28.768      865.582
07/09/2013  11:28:00       -2.830      -13.379       23.079       62.029       62.707       43.731     3847.573     3932.149     1912.443        0.520        0.485       13.675       31.214        5.210      349.047       29.188      865.574
07/09/2013  11:29:00       -1.688       -5.466       25.914       46.848       37.867       32.748     2194.731     1433.903     1072.402        0.270        0.235        5.720       23.351       16.662      349.398       29.797      865.569
07/09/2013  11:30:00      -32.685     -100.733        8.172       36.039       59.578       27.488     1298.808     3549.524      755.572        0.844        0.280      105.903       27.319        0.067      348.712       28.609      865.579
07/09/2013  11:31:00      -33.899      -59.565       10.242       44.459       72.026       31.877     1976.594     5187.796     1016.123        0.649        0.409       68.536       31.477        0.211      348.919       28.968      865.568
07/09/2013  11:32:00      -35.916        0.607       15.243       39.599       34.600       29.255     1568.082     1197.193      855.826        0.257        0.181       35.921       27.257        0.576      349.084       29.252      865.552
07/09/2013  11:33:00       24.746       11.534       30.315       42.211       32.533       28.671     1781.747     1058.374      822.032        0.266        0.183       27.302       22.428        0.675      349.218       29.485      865.536
07/09/2013  11:34:00       25.885        8.129       39.072       39.814       27.352       22.336     1585.123      748.119      498.914        0.255        0.142       27.132        7.862        0.084      348.875       28.891      865.527
07/09/2013  11:35:00       28.768      -12.109       24.888       30.957       51.949       41.529      958.345     2698.733     1724.654        0.349        0.269       31.213       31.674        1.030      349.426       29.846      865.527
07/09/2013  11:36:00       21.377        1.363       20.395       39.776       24.117       30.396     1582.114      581.635      923.937        0.198        0.154       21.421       20.589        0.924      349.176       29.412      865.519
07/09/2013  11:37:00       21.993       20.204       35.266       32.957       33.639       35.241     1086.191     1131.572     1241.904        0.280        0.173       29.865       21.857        0.536      349.316       29.657      865.502
07/09/2013  11:38:00       37.050       27.851       27.136       49.034       62.576       43.771     2404.364     3915.780     1915.904        0.556        0.412       46.351       28.787        0.386      348.777       28.720      865.497
07/09/2013  11:39:00       45.165       20.766       55.665       52.683       62.192       48.059     2775.530     3867.843     2309.634        0.726        0.448       49.710       41.544        0.698      349.183       29.424      865.486
07/09/2013  11:40:00       36.158       24.316       65.462       41.546       68.089       38.781     1726.094     4636.053     1503.973        0.702        0.393       43.574       35.542        0.665      349.275       29.585      865.482
07/09/2013  11:41:00       12.853       16.196       53.800       41.715       48.980       35.666     1740.122     2399.030     1272.056        0.437        0.271       20.676       23.875        1.333      349.598       30.143      865.482
07/09/2013  11:42:00       -6.570       23.906       47.895       33.728       41.069       32.978     1137.612     1686.662     1087.542        0.341        0.196       24.792       14.175        0.327      349.528       30.022      865.474
07/09/2013  11:43:00       27.821       43.298       60.980       46.853       41.097       33.385     2195.177     1688.996     1114.534        0.568        0.250       51.466       23.487        0.208      349.076       29.239      865.476
07/09/2013  11:44:00       27.581      -54.584       32.148       37.366       67.165       35.390     1396.234     4511.148     1252.420        0.597        0.358       61.157       26.659        0.190      349.108       29.293      865.475
07/09/2013  11:45:00       -0.227       16.325       33.057       27.421       38.922       28.078      751.923     1514.898      788.382        0.221        0.153       16.327       27.696        2.878      349.135       29.342      865.466
07/09/2013  11:46:00       21.921       35.458       20.415       53.223       32.294       26.817     2832.684     1042.904      719.129        0.337        0.230       41.687       18.973        0.207      349.136       29.344      865.476
07/09/2013  11:47:00       29.199        7.179       21.947       34.770       28.136       26.246     1208.924      791.638      688.877        0.204        0.134       30.068       24.607        0.670      349.277       29.587      865.491
07/09/2013  11:48:00       26.170       10.750       22.811       40.714       45.322       36.881     1657.619     2054.085     1360.242        0.320        0.254       28.291       33.066        1.366      348.828       28.809      865.476
07/09/2013  11:49:00       53.103        4.910        7.363       42.446       31.645       35.701     1801.681     1001.383     1274.534        0.349        0.204       53.329       24.941        0.219      348.734       28.646      865.460
07/09/2013  11:50:00       27.473       -5.408       28.127       21.479       34.230       25.775      461.328     1171.666      664.350        0.194        0.115       28.000       21.011        0.563      349.110       29.298      865.449
07/09/2013  11:51:00       29.599       34.182       43.175       42.985       35.015       33.660     1847.698     1226.032     1133.003        0.406        0.210       45.216       32.089        0.504      349.017       29.137      865.432
07/09/2013  11:52:00       19.893      122.917       -8.278       44.458       86.542       35.251     1976.493     7489.463     1242.633        1.314        0.535      124.516       37.992        0.093      349.145       29.356      865.416
07/09/2013  11:53:00       31.807      135.333      -13.072       45.728       61.494       31.760     2091.008     3781.489     1008.693        1.319        0.344      139.021       33.078        0.057      349.332       29.683      865.427
07/09/2013  11:54:00       67.629      114.176      -22.163       51.203       54.632       30.982     2621.749     2984.606      959.854        1.233        0.328      132.702       27.366        0.043      349.138       29.346      865.432
07/09/2013  11:55:00       -7.464      117.791       -4.367       74.365       68.356       42.254     5530.145     4672.586     1785.411        1.297        0.599      118.027       43.818        0.138      349.380       29.766      865.429
07/09/2013  11:56:00      -21.822      103.577       -7.581       41.348       38.704       34.796     1709.666     1497.981     1210.729        0.784        0.221      105.851       25.156        0.056      349.259       29.556      865.424
07/09/2013  11:57:00     -102.283      166.995      -23.136       62.671       72.639       46.648     3927.694     5276.405     2176.051        2.513        0.569      195.829       49.719        0.064      349.008       29.119      865.422
07/09/2013  11:58:00      -29.239      112.379       -3.759       30.664       52.615       31.602      940.295     2768.289      998.661        0.910        0.235      116.120       29.090        0.063      349.385       29.776      865.428
07/09/2013  11:59:00       -8.641       48.363       17.534       31.421       50.840       30.399      987.271     2584.715      924.108        0.361        0.225       49.129       26.934        0.301      349.976       30.802      865.412
07/09/2013  12:00:00      -77.812      113.897       -0.046       50.445       94.936       41.000     2544.711     9012.881     1680.973        1.613        0.662      137.939       41.550        0.091      349.120       29.312      865.411
07/09/2013  12:01:00      -37.674      110.350        0.654       67.175       55.891       41.369     4512.497     3123.772     1711.399        1.147        0.467      116.604       38.609        0.110      349.430       29.852      865.416
07/09/2013  12:02:00      -48.260       63.356       -7.443       30.373       70.008       31.215      922.520     4901.179      974.361        0.660        0.340       79.643       25.038        0.099      349.154       29.374      865.405
07/09/2013  12:03:00      -79.056      -36.121       -0.723       31.573       29.257       18.121      996.833      855.982      328.360        0.487        0.109       86.917        9.121        0.011      348.837       28.824      865.395
07/09/2013  12:04:00      -42.156       42.614       13.514       34.688       53.202       31.576     1203.227     2830.499      997.071        0.440        0.252       59.942       33.963        0.321      349.476       29.932      865.376
07/09/2013  12:05:00      -22.573       37.059       32.102       27.902       38.391       26.122      778.500     1473.847      682.342        0.292        0.147       43.392       22.066        0.259      350.123       31.056      865.372
07/09/2013  12:06:00        1.125       11.267       33.841       17.831       15.583       11.183      317.961      242.825      125.049        0.098        0.034       11.323        7.590        0.449      350.304       31.369      865.369
07/09/2013  12:07:00        9.262       20.630       27.259       22.347       20.824       17.062      499.398      433.646      291.119        0.124        0.061       22.613       10.004        0.196      349.905       30.677      865.360
07/09/2013  12:08:00       18.937       23.531       13.965       35.536       22.118       29.440     1262.841      489.199      866.721        0.186        0.131       30.205       17.255        0.326      349.056       29.205      865.351
07/09/2013  12:09:00       14.691       16.405       19.404       35.107       15.502       23.912     1232.485      240.326      571.790        0.145        0.102       22.021       17.401        0.624      349.287       29.604      865.356
07/09/2013  12:10:00       32.557       36.132       18.028       34.821       28.732       30.106     1212.535      825.556      906.363        0.282        0.147       48.636       19.707        0.164      349.244       29.529      865.344
07/09/2013  12:11:00       51.434       25.923       -2.998       46.219       58.826       40.804     2136.163     3460.502     1664.957        0.529        0.363       57.597       28.628        0.247      349.623       30.188      865.329
07/09/2013  12:12:00       65.289       62.830       12.094       53.851       48.683       42.653     2899.882     2370.024     1819.264        0.772        0.354       90.610       41.019        0.205      349.851       30.583      865.325
07/09/2013  12:13:00       49.673       73.297       21.392       62.118       71.798       48.914     3858.642     5154.940     2392.587        0.985        0.570       88.543       38.518        0.189      349.618       30.178      865.301
07/09/2013  12:14:00        1.567       35.729       17.776       21.237       52.323       35.089      450.990     2737.672     1231.219        0.301        0.221       35.763       38.826        1.179      350.029       30.893      865.298
07/09/2013  12:15:00       13.294        6.986       21.723       27.064       41.753       32.915      732.480     1743.272     1083.369        0.213        0.178       15.018       21.191        1.991      349.941       30.740      865.293
07/09/2013  12:16:00        9.417      -32.406       20.975       36.079       62.534       33.312     1301.680     3910.499     1109.662        0.395        0.316       33.747       36.676        1.181      349.550       30.061      865.284
07/09/2013  12:17:00      -14.687      -83.991       17.804       28.501       28.449       29.142      812.293      809.343      849.266        0.503        0.124       85.265       16.643        0.038      349.518       30.004      865.290
07/09/2013  12:18:00      -16.213      -59.806       -8.802       46.614       42.949       38.988     2172.834     1844.582     1520.088        0.473        0.277       61.965       20.873        0.113      349.631       30.203      865.287
07/09/2013  12:19:00      -80.213      -43.123        7.957       48.975       51.265       31.277     2398.594     2628.142      978.230        0.718        0.300       91.070       23.965        0.069      349.373       29.754      865.281
07/09/2013  12:20:00      -29.615        7.446       12.499       25.893       22.753       23.332      670.444      517.689      544.396        0.141        0.087       30.537       17.042        0.311      349.855       30.591      865.256
07/09/2013  12:21:00       29.849       23.024       47.439       41.437       18.783       30.624     1717.027      352.804      937.801        0.334        0.150       37.697       23.572        0.391      349.594       30.138      865.246
07/09/2013  12:22:00       23.479      -11.847       20.620       35.823       38.959       25.405     1283.319     1517.838      645.394        0.228        0.172       26.299       21.702        0.681      349.528       30.024      865.253
07/09/2013  12:23:00      -23.655      -37.422        2.906       76.701       61.331       36.047     5882.975     3761.525     1299.363        0.645        0.547       44.271       21.523        0.236      349.737       30.386      865.261
07/09/2013  12:24:00      -49.893      -30.128      -13.846       60.192       49.712       32.812     3623.080     2471.265     1076.627        0.538        0.359       58.284       21.176        0.132      349.499       29.972      865.250
07/09/2013  12:25:00       19.481     -125.147        1.606       90.651       80.807       45.670     8217.606     6529.774     2085.744        1.644        0.842      126.654       45.806        0.131      349.374       29.754      865.244
07/09/2013  12:26:00       43.101     -123.653      -13.324       66.176       84.068       73.467     4379.257     7067.347     5397.398        1.708        0.842      130.949       52.590        0.161      349.240       29.522      865.245
07/09/2013  12:27:00       26.845      -81.731        4.697       58.957       70.553       48.221     3475.942     4977.677     2325.273        0.910        0.539       86.027       41.871        0.237      349.467       29.918      865.251
07/09/2013  12:28:00      -14.344      -33.134       67.885       61.070       86.288       74.836     3729.549     7445.642     5600.433        1.134        0.839       36.105       62.536        3.000      349.580       30.111      865.234
07/09/2013  12:29:00      -45.700      -32.638        6.769       40.195       48.969       30.429     1615.651     2397.991      925.923        0.407        0.247       56.158       26.085        0.216      349.780       30.459      865.243
07/09/2013  12:30:00        7.391     -115.464      -10.173       98.289       80.072       38.128     9660.751     6411.483     1453.750        1.550        0.876      115.700       50.259        0.189      349.582       30.115      865.242
07/09/2013  12:31:00      -31.096     -102.591      -11.430       52.395       49.275       34.492     2745.189     2428.001     1189.682        0.899        0.318      107.200       33.082        0.095      349.481       29.940      865.215
07/09/2013  12:32:00     -115.052      -36.460        3.069      110.625       88.858       39.786    12237.926     7895.754     1582.922        1.814        1.086      120.691       36.550        0.092      349.723       30.360      865.215
07/09/2013  12:33:00     -140.733      -48.395        7.913      108.353       84.893       50.280    11740.407     7206.777     2528.045        2.184        1.074      148.822       46.258        0.097      349.764       30.430      865.236
07/09/2013  12:34:00     -190.611      -33.133      -13.052       87.541       67.718       40.015     7663.481     4585.726     1601.203        2.572        0.693      193.469       27.417        0.020      349.325       29.669      865.232
07/09/2013  12:35:00     -101.096      -96.010       -8.958       76.118       41.864       27.195     5793.967     1752.631      739.574        1.390        0.414      139.422       26.210        0.035      348.942       29.006      865.225
07/09/2013  12:36:00      -41.769      -54.236       19.932       74.873       44.784       37.541     5606.041     2005.593     1409.306        0.705        0.451       68.455       22.874        0.112      349.223       29.493      865.200
07/09/2013  12:37:00     -130.470      -21.172      -12.343       72.931       58.892       35.330     5318.866     3468.266     1248.180        1.383        0.502      132.177       25.139        0.036      349.341       29.696      865.179
07/09/2013  12:38:00     -101.308      -34.143       -3.734       51.757       55.706       25.689     2678.741     3103.144      659.927        0.894        0.322      106.906       23.294        0.047      349.321       29.663      865.178
07/09/2013  12:39:00      -88.279      -35.925        5.886       76.591       58.685       33.639     5866.203     3443.937     1131.607        0.978        0.522       95.309       33.633        0.125      349.808       30.507      865.169
07/09/2013  12:40:00      -28.268      -47.658       15.874       53.386       43.092       36.072     2850.075     1856.927     1301.182        0.466        0.300       55.411       29.420        0.282      350.088       30.995      865.158
07/09/2013  12:41:00       16.713     -161.449        6.182       73.514       69.164       41.199     5404.275     4783.663     1697.381        1.913        0.594      162.312       21.020        0.017      349.551       30.062      865.159
07/09/2013  12:42:00      -44.692      -94.341      -17.990       52.959       58.617       33.855     2804.630     3435.932     1146.139        0.930        0.369      104.392       27.460        0.069      349.564       30.085      865.133
07/09/2013  12:43:00      -93.978     -194.508      -10.546       57.875       59.685       36.613     3349.515     3562.262     1340.509        2.751        0.413      216.021       28.455        0.017      349.359       29.725      865.140
07/09/2013  12:44:00      -69.739     -147.403       -1.560       55.340       73.517       37.152     3062.499     5404.821     1380.250        1.822        0.492      163.068       36.725        0.051      349.609       30.161      865.145
07/09/2013  12:45:00     -218.519     -198.906       -9.091      103.670       80.214       58.770    10747.437     6434.289     3453.921        5.401        1.032      295.489       57.564        0.038      349.649       30.229      865.149
07/09/2013  12:46:00     -152.407     -169.056        1.503      137.656       84.613       54.989    18949.291     7159.342     3023.749        4.047        1.457      227.613       56.030        0.061      349.463       29.907      865.161
07/09/2013  12:47:00     -104.174     -210.270      -41.806      143.019       97.819       49.864    20454.485     9568.596     2486.408        4.465        1.625      234.661       30.223        0.017      349.285       29.598      865.127
07/09/2013  12:48:00     -160.442     -104.575       -5.477      113.256       76.202       39.900    12826.876     5806.769     1591.970        2.846        1.011      191.514       39.057        0.042      349.483       29.942      865.110
07/09/2013  12:49:00     -305.852     -182.259       -3.421      197.833      137.698       84.187    39137.999    18960.660     7087.529        9.597        3.259      356.039       96.994        0.074      349.662       30.252      865.043
07/09/2013  12:50:00     -381.099       41.381      -14.353      156.376      158.141       67.465    24453.382    25008.467     4551.476       10.057        2.701      383.339       66.001        0.030      349.590       30.125      865.049
07/09/2013  12:51:00     -299.946      -36.562      -16.663      189.832      158.914       80.565    36036.209    25253.520     6490.645        7.967        3.389      302.166       80.827        0.072      349.642       30.218      865.033
07/09/2013  12:52:00     -141.726     -122.726        7.747      127.771      108.189       54.166    16325.479    11704.792     2933.919        3.308        1.548      187.478       59.936        0.102      349.507       29.983      865.087
07/09/2013  12:53:00     -145.584      -61.130        8.619      148.189       79.012       54.359    21960.074     6242.862     2954.935        2.808        1.558      157.898       67.439        0.182      349.824       30.535      865.060
07/09/2013  12:54:00     -205.475      -21.828        0.409      105.919       84.003       55.453    11218.858     7056.565     3075.053        3.202        1.068      206.631       57.520        0.077      349.766       30.432      865.037
07/09/2013  12:55:00     -111.904      -45.994        7.749       99.489       82.644       42.039     9898.148     6829.991     1767.272        1.659        0.925      120.987       46.375        0.147      350.023       30.881      865.023
07/09/2013  12:56:00     -176.320      -16.239        7.763      155.692      129.204       61.996    24240.053    16693.795     3843.515        3.809        2.239      177.066       65.958        0.139      350.008       30.854      865.015
07/09/2013  12:57:00     -204.117      -24.488       41.600      163.166      116.854       82.897    26623.049    13654.927     6871.913        4.556        2.357      205.580       92.319        0.202      350.150       31.099      865.007
07/09/2013  12:58:00     -263.232      -43.672       -5.707      161.146      113.082       58.524    25968.014    12787.552     3425.092        5.670        2.109      266.830       66.161        0.061      349.799       30.489      865.034
07/09/2013  12:59:00     -161.376     -262.493       -7.627       99.423      151.105       54.968     9884.927    22832.646     3021.482        6.536        1.787      308.131       52.989        0.030      349.632       30.200      865.044
07/09/2013  13:00:00      -56.007      -42.056       20.022       74.765       80.972       55.949     5589.783     6556.458     3130.298        1.029        0.764       70.039       44.312        0.400      350.016       30.868      865.012
07/09/2013  13:01:00     -126.855     -202.043        1.486      127.558      133.436       57.778    16271.015    17805.123     3338.287        4.716        1.871      238.565       58.025        0.059      349.773       30.444      865.029
07/09/2013  13:02:00     -147.355     -206.848      -24.114       86.930       77.786       51.848     7556.857     6050.587     2688.263        4.069        0.815      253.968       35.708        0.020      349.549       30.053      865.039
07/09/2013  13:03:00     -168.889     -143.566       -2.847       87.611       83.377       44.836     7675.736     6951.674     2010.241        3.289        0.832      221.663       32.497        0.021      349.637       30.208      865.031
07/09/2013  13:04:00     -140.441      -66.044       21.202      102.314       97.847       51.814    10468.214     9574.094     2684.726        2.363        1.136      155.195       46.191        0.089      349.964       30.777      865.005
07/09/2013  13:05:00     -152.549     -110.270        0.028      145.501       90.388       56.820    21170.579     8169.974     3228.548        3.399        1.628      188.230       56.141        0.089      349.708       30.330      864.990
07/09/2013  13:06:00     -164.532     -158.653       -5.377       99.662       89.599       41.714     9932.474     8028.037     1740.042        3.598        0.985      228.564       31.507        0.019      349.649       30.230      864.987
07/09/2013  13:07:00      -94.265      -71.720       -2.173       53.455       59.257       34.716     2857.444     3511.368     1205.192        1.080        0.379      118.447       29.059        0.060      349.676       30.278      864.962
07/09/2013  13:08:00      -61.833      -79.159       12.431       71.105       67.070       43.728     5055.971     4498.359     1912.149        1.085        0.573      100.447       41.052        0.167      349.998       30.836      864.957
07/09/2013  13:09:00      -95.082     -154.755        4.777      102.208       88.094       54.832    10446.406     7760.471     3006.534        2.711        1.061      181.631       42.931        0.056      349.840       30.561      864.962
07/09/2013  13:10:00     -156.957     -237.752        1.586      183.968      176.347       80.246    33844.298    31098.373     6439.343        7.626        3.569      284.889       80.963        0.081      350.045       30.917      864.914
07/09/2013  13:11:00     -185.078     -139.769       -4.950      150.768       97.426       66.258    22730.949     9491.878     4390.117        4.521        1.831      231.925       50.244        0.047      350.004       30.846      864.973
07/09/2013  13:12:00     -177.694     -165.983       -9.692      142.841      103.266       56.216    20403.684    10663.909     3160.269        4.672        1.711      243.157       60.233        0.061      349.732       30.372      864.973
07/09/2013  13:13:00     -342.266     -186.989      -16.473      153.274      122.882       63.333    23493.052    15099.903     4011.012        9.748        2.130      390.014       64.129        0.027      349.746       30.398      864.972
07/09/2013  13:14:00     -243.124      -83.827        8.950      148.075      133.458       82.524    21926.319    17810.947     6810.193        5.637        2.327      257.170       73.601        0.082      349.686       30.292      865.000
07/09/2013  13:15:00     -400.753     -220.452       -5.312      193.874      119.619       75.843    37586.989    14308.756     5752.112       13.343        2.882      457.386       89.893        0.039      349.556       30.069      864.969
07/09/2013  13:16:00     -286.144     -206.552      -19.835      175.442      108.318       72.948    30779.793    11732.851     5321.467        8.638        2.392      352.906       69.235        0.038      349.479       29.935      864.986
07/09/2013  13:17:00     -162.650     -173.854       11.590      179.181      105.684       63.130    32105.825    11169.187     3985.455        5.203        2.363      238.076       48.917        0.042      349.477       29.930      864.983
07/09/2013  13:18:00      -69.063      -78.865       16.558       52.767       49.867       39.468     2784.406     2486.760     1557.720        0.904        0.341      104.830       25.527        0.059      349.659       30.249      864.961
07/09/2013  13:19:00     -129.707      -76.694       12.133      122.037       81.701       58.475    14893.059     6675.054     3419.382        2.392        1.249      150.685       67.301        0.199      349.861       30.599      864.955
07/09/2013  13:20:00     -213.581     -170.393       -9.733      218.308      131.660       80.464    47658.597    17334.265     6474.464        7.309        3.573      273.222       99.030        0.131      349.865       30.604      864.955
07/09/2013  13:21:00     -408.564     -221.250      -12.959      165.964      142.061       84.180    27544.101    20181.466     7086.308       13.542        2.741      464.625       84.708        0.033      349.569       30.089      864.939
07/09/2013  13:22:00     -227.754     -308.398       -8.893      139.929      176.028       83.485    19580.262    30985.751     6969.704       10.229        2.877      383.381       65.847        0.029      349.456       29.893      864.929
07/09/2013  13:23:00     -261.735     -128.290      -14.396      185.720      114.881       65.901    34491.799    13197.741     4342.976        6.859        2.602      291.485       68.077        0.055      349.808       30.505      864.917
07/09/2013  13:24:00     -390.645      -89.623      -23.975      163.654      110.178       67.106    26782.590    12139.258     4503.230       10.231        2.171      400.794       61.238        0.023      349.609       30.159      864.962
07/09/2013  13:25:00     -292.586     -146.651      -10.239      176.987      153.353       63.745    31324.226    23517.026     4063.373        8.305        2.945      327.281       72.810        0.049      349.656       30.242      864.952
07/09/2013  13:26:00     -376.461     -142.712      -12.310      211.342      154.316       88.605    44665.306    23813.515     7850.806       11.927        3.816      402.604       89.801        0.050      349.521       30.006      864.955
07/09/2013  13:27:00     -352.679      -51.758      -26.163      160.126       93.773       57.482    25640.408     8793.460     3304.173        8.273        1.887      356.456       65.729        0.034      349.536       30.032      865.031
07/09/2013  13:28:00      -93.495     -101.999       16.376      118.395       74.932       58.354    14017.444     5614.866     3405.241        2.122        1.152      138.366       57.873        0.175      349.788       30.472      865.037
07/09/2013  13:29:00     -131.884     -164.501       17.817      123.401      108.243       48.235    15227.813    11716.452     2326.647        3.702        1.464      210.841       51.364        0.059      349.629       30.193      865.039
07/09/2013  13:30:00        3.946      -74.438       15.266       40.740       72.447       31.724     1659.722     5248.568     1006.384        0.685        0.396       74.542       33.741        0.205      349.583       30.119      865.030
07/09/2013  13:31:00      -40.576      -43.157       19.450       49.446       48.751       26.472     2444.867     2376.632      700.746        0.470        0.276       59.236       28.246        0.227      349.741       30.393      864.989
07/09/2013  13:32:00      -87.703        5.268       13.594       72.032       46.778       37.395     5188.578     2188.146     1398.349        0.834        0.439       87.861       27.082        0.095      349.820       30.530      864.956
07/09/2013  13:33:00      -64.403      -29.974       -7.275       67.980       36.372       21.116     4621.320     1322.930      445.871        0.574        0.320       71.036       21.529        0.092      349.854       30.587      864.937
07/09/2013  13:34:00     -164.625      -46.320      -19.515       59.800       56.055       32.731     3576.074     3142.109     1071.289        1.871        0.389      171.018       21.802        0.016      349.570       30.093      864.920
07/09/2013  13:35:00      -64.181      -65.081       10.421       92.605       75.533       38.943     8575.773     5705.294     1516.534        1.213        0.790       91.405       42.970        0.221      349.843       30.569      864.896
07/09/2013  13:36:00     -116.701       64.908       -8.443       51.810       92.275       38.606     2684.228     8514.765     1490.433        1.529        0.634      133.537       34.117        0.065      349.995       30.831      864.897
07/09/2013  13:37:00      -67.625      214.421       -7.249       71.202      106.571       50.853     5069.656    11357.275     2586.043        3.480        0.951      224.832       49.647        0.049      349.895       30.657      864.903
07/09/2013  13:38:00      -78.813      209.387      -21.613       70.966       74.483       41.571     5036.139     5547.751     1728.160        3.141        0.616      223.728       46.207        0.043      349.709       30.334      864.889
07/09/2013  13:39:00     -141.162       87.863      -16.980       34.111       69.029       30.481     1163.530     4765.007      929.107        1.739        0.343      166.273       25.600        0.024      349.454       29.892      864.886
07/09/2013  13:40:00      -99.887       13.321      -11.396       62.370       43.900       27.315     3890.006     1927.191      746.111        0.842        0.328      100.771       28.824        0.082      349.873       30.620      864.889
07/09/2013  13:41:00      -68.587       -2.834       -4.286       75.485       50.189       37.014     5698.059     2518.906     1370.001        0.716        0.479       68.645       30.639        0.199      350.101       31.017      864.877
07/09/2013  13:42:00       14.201       20.265       40.271       27.902       28.467       19.975      778.494      810.344      398.991        0.211        0.099       24.745        7.025        0.081      350.591       31.869      864.860
07/09/2013  13:43:00       -3.168       33.056       26.002       19.445       43.306       19.964      378.127     1875.375      398.543        0.221        0.133       33.208       22.546        0.461      350.596       31.877      864.864
07/09/2013  13:44:00      -48.429      -16.982       25.331      102.340       43.652       32.587    10473.565     1905.534     1061.895        0.836        0.672       51.320       50.304        0.961      350.354       31.457      864.843
07/09/2013  13:45:00     -187.720      -11.089       -1.303      117.269       76.407       44.654    13752.006     5838.022     1994.001        2.847        1.079      188.047       52.918        0.079      350.064       30.949      864.834
07/09/2013  13:46:00     -216.933     -129.346      -12.677      102.554       84.042       53.991    10517.231     7063.001     2915.050        4.222        1.025      252.568       52.134        0.043      349.882       30.632      864.840
07/09/2013  13:47:00     -332.173     -146.627      -14.199      116.104      103.681       67.125    13480.143    10749.787     4505.749        8.038        1.437      363.095       71.105        0.038      349.604       30.150      864.845
07/09/2013  13:48:00     -251.717     -108.016       -2.533      207.040      102.769       67.278    42865.665    10561.411     4526.302        6.648        2.898      273.914       76.290        0.078      349.888       30.644      864.842
07/09/2013  13:49:00     -563.996     -266.962      -35.673      186.139      134.885       86.891    34647.783    18194.026     7550.045       22.550        3.020      623.988       88.155        0.020      349.493       29.957      864.835
07/09/2013  13:50:00     -305.667     -115.089        5.291      229.812      189.915       78.570    52813.365    36067.668     6173.292       10.086        4.753      326.615      105.967        0.105      349.998       30.834      864.828
07/09/2013  13:51:00     -519.470     -180.434       -8.500      163.275      116.249       75.146    26658.702    13513.758     5646.880       17.414        2.291      549.914       84.791        0.024      349.437       29.860      864.817
07/09/2013  13:52:00     -350.677     -145.932       -1.747      145.760      108.977       57.441    21246.111    11876.070     3299.464        9.034        1.821      379.829       44.213        0.014      349.660       30.248      864.790
07/09/2013  13:53:00     -128.442      -65.364        5.741      117.294      105.610       48.173    13757.843    11153.423     2320.639        2.401        1.362      144.117       59.693        0.172      350.183       31.156      864.811
07/09/2013  13:54:00     -306.350     -186.857        3.818      134.210      112.352       73.990    18012.362    12623.036     5474.534        8.244        1.805      358.839       62.480        0.030      349.683       30.287      864.804
07/09/2013  13:55:00     -134.970     -190.334        0.604      128.185       90.219       65.309    16431.373     8139.542     4265.329        4.163        1.442      233.333       67.142        0.083      349.736       30.380      864.822
07/09/2013  13:56:00     -126.365      -86.769       -6.510       76.138       53.895       35.376     5796.972     2904.675     1251.477        1.674        0.498      153.287       38.197        0.062      349.506       29.983      864.772
07/09/2013  13:57:00     -277.683      -69.895       -2.636      176.065      115.407       60.425    30998.732    13318.726     3651.219        6.497        2.398      286.344       61.263        0.046      349.941       30.736      864.769
07/09/2013  13:58:00     -226.840      -23.380        4.538      171.186       99.818       63.171    29304.649     9963.584     3990.633        4.763        2.163      228.042       82.773        0.132      350.174       31.141      864.779
07/09/2013  13:59:00     -253.248       -5.070      -12.648      180.072       72.308       56.316    32425.790     5228.381     3171.520        5.256        2.041      253.299       74.406        0.086      350.262       31.294      864.775
07/09/2013  14:00:00     -295.717      -33.983        7.038      185.508      121.327       67.252    34413.283    14720.205     4522.765        7.114        2.683      297.663       68.065        0.052      350.210       31.204      864.740
07/09/2013  14:01:00     -311.627      -58.666       -5.954      134.148      130.360       60.872    17995.706    16993.699     3705.405        6.963        1.935      317.101       67.449        0.045      350.158       31.112      864.735
07/09/2013  14:02:00     -435.946      -58.923      -20.938      171.334      141.322       75.208    29355.388    19971.855     5656.236       12.446        2.749      439.910       78.535        0.032      350.025       30.882      864.761
07/09/2013  14:03:00     -351.173      -49.435      -28.664      166.251      128.680       66.549    27639.555    16558.465     4428.741        8.760        2.431      354.636       60.206        0.029      349.915       30.690      864.777
07/09/2013  14:04:00     -432.522     -138.264      -27.661      233.977      136.458       80.988    54745.248    18620.805     6559.089       14.343        3.996      454.084      104.851        0.053      349.818       30.522      864.739
07/09/2013  14:05:00     -288.700     -184.488        8.995      223.916      165.530       87.084    50138.386    27400.232     7583.680       10.128        4.256      342.613      107.472        0.098      349.958       30.764      864.737
07/09/2013  14:06:00     -253.183     -133.972       -5.372      193.868      187.865       86.340    37584.729    35293.207     7454.550        8.119        4.017      286.444       84.925        0.088      350.081       30.979      864.721
07/09/2013  14:07:00     -112.591     -111.102        8.135      168.324      124.501       90.721    28332.943    15500.523     8230.326        3.856        2.603      158.178       73.770        0.218      350.294       31.351      864.737
07/09/2013  14:08:00     -350.375     -175.087       -8.879      151.759      145.062       75.344    23030.939    21043.123     5676.745       10.161        2.488      391.686       78.847        0.041      350.188       31.165      864.750
07/09/2013  14:09:00     -180.165      -49.502        8.094      152.142      109.002       57.200    23147.221    11881.356     3271.798        3.663        1.915      186.842       69.706        0.139      350.174       31.142      864.776
07/09/2013  14:10:00     -207.100      -73.072       21.744      184.569      113.204       70.750    34065.575    12815.153     5005.505        5.028        2.594      219.613       91.707        0.174      350.233       31.244      864.788
07/09/2013  14:11:00     -139.867      -13.149       16.238      108.377      103.552       65.085    11745.477    10723.061     4236.002        2.335        1.335      140.484       71.949        0.262      350.447       31.616      864.792
07/09/2013  14:12:00     -449.368      -89.796      -10.875      224.860      134.318       71.554    50561.890    18041.378     5119.987       14.190        3.686      458.252       74.989        0.027      349.986       30.813      864.767
07/09/2013  14:13:00     -233.964      -42.960        2.672      181.876      123.609       76.263    33078.786    15279.126     5816.021        5.537        2.709      237.876       88.574        0.139      350.149       31.097      864.784
07/09/2013  14:14:00     -181.799       27.153       -2.676      167.283       92.866       63.971    27983.456     8624.070     4092.250        3.724        2.035      183.815       78.930        0.184      350.114       31.037      864.789
07/09/2013  14:15:00     -314.075      -33.775      -17.242      121.873      136.250       61.236    14853.055    18563.952     3749.806        6.862        1.858      315.886       52.073        0.027      349.878       30.626      864.773
07/09/2013  14:16:00     -263.036      -51.395      -10.858      134.512      139.953       56.059    18093.610    19586.803     3142.650        5.638        2.041      268.010       50.950        0.036      349.839       30.558      864.781
07/09/2013  14:17:00     -137.811      -38.243       -4.105      196.186       75.782       51.189    38488.813     5742.930     2620.318        3.365        2.343      143.019       82.168        0.330      350.113       31.036      864.791
07/09/2013  14:18:00     -539.214     -217.495      -28.372      173.512      115.694       71.630    30106.458    13385.026     5130.912       19.373        2.431      581.425       55.506        0.009      349.628       30.191      864.744
07/09/2013  14:19:00     -160.950      -20.849       12.057      103.398       98.956       59.403    10691.155     9792.385     3528.703        2.524        1.201      162.295       50.686        0.098      349.964       30.776      864.782
07/09/2013  14:20:00     -128.697      -55.113       -3.818      107.206       98.339       47.185    11493.097     9670.651     2226.454        2.150        1.170      140.001       45.840        0.107      350.227       31.234      864.772
07/09/2013  14:21:00     -169.019      -40.909       10.420      165.903      119.052       61.572    27523.838    14173.470     3791.098        3.791        2.274      173.899       71.749        0.170      350.201       31.189      864.762
07/09/2013  14:22:00     -344.538      -96.667      -27.071      123.203       99.564       64.603    15179.030     9912.950     4173.488        7.902        1.463      357.842       63.056        0.031      349.908       30.677      864.738
07/09/2013  14:23:00     -526.369     -136.951      -20.550      199.667      162.857       85.631    39866.886    26522.302     7332.665       18.497        3.686      543.893       80.097        0.022      349.830       30.544      864.700
07/09/2013  14:24:00     -367.734      -78.746      -13.397      153.302      187.845       69.886    23501.641    35285.767     4884.088       10.263        3.184      376.070       72.268        0.037      349.826       30.536      864.720
07/09/2013  14:25:00     -442.159      -58.917      -42.580      158.715      138.815       64.735    25190.409    19269.705     4190.622       12.471        2.433      446.067       77.041        0.030      349.947       30.746      864.724
07/09/2013  14:26:00     -240.684      -29.130        6.280      165.880      107.685       62.951    27516.053    11596.039     3962.876        5.094        2.154      242.440       77.131        0.101      350.170       31.133      864.738
07/09/2013  14:27:00     -242.197     -180.756       -1.096      155.050      128.492       67.301    24040.629    16510.118     4529.405        6.820        2.254      302.212       72.387        0.057      350.008       30.854      864.732
07/09/2013  14:28:00     -256.368      -86.656       -8.982      177.202      105.259       65.895    31400.651    11079.395     4342.170        6.006        2.341      270.617       82.300        0.092      349.987       30.817      864.715
07/09/2013  14:29:00     -164.189      -24.220       11.122      129.094      122.400       63.251    16665.264    14981.822     4000.746        3.165        1.782      165.966       68.842        0.172      350.018       30.871      864.723
07/09/2013  14:30:00      -58.990      -91.338       13.826       80.215       78.546       48.886     6434.492     6169.527     2389.795        1.350        0.750      108.731       50.521        0.216      349.753       30.411      864.699
07/09/2013  14:31:00     -182.074        0.897      -23.482       52.005       46.151       27.293     2704.539     2129.924      744.919        1.964        0.279      182.076       16.270        0.008      349.850       30.579      864.692
07/09/2013  14:32:00      -88.228      -97.397        6.312      142.559       92.121       64.760    20323.205     8486.263     4193.858        2.515        1.650      131.417       48.989        0.139      350.022       30.879      864.682
07/09/2013  14:33:00     -261.918     -182.502        9.982      134.203      130.790       62.096    18010.517    17105.936     3855.861        7.048        1.949      319.230       66.433        0.043      349.856       30.588      864.657
07/09/2013  14:34:00     -145.814      -80.756       29.593      162.028      109.136       82.900    26253.167    11910.736     6872.484        3.684        2.252      166.683       75.278        0.204      350.223       31.226      864.658
07/09/2013  14:35:00     -165.912      -36.643        1.885      132.977      108.143       61.424    17682.923    11694.929     3772.961        3.101        1.658      169.911       54.197        0.102      350.053       30.932      864.668
07/09/2013  14:36:00     -246.038      -70.360      -16.697      179.927      142.750       69.499    32373.754    20377.697     4830.151        6.166        2.879      255.901       68.085        0.071      350.239       31.254      864.639
07/09/2013  14:37:00     -228.613       64.482       10.737      227.003      152.159       88.894    51530.259    23152.214     7902.182        6.954        4.129      237.533      105.605        0.198      350.141       31.084      864.661
07/09/2013  14:38:00     -236.119     -154.477        7.145      181.307      122.110       74.504    32872.172    14910.776     5550.774        6.649        2.667      282.162       71.303        0.064      350.330       31.413      864.652
07/09/2013  14:39:00     -252.236     -172.453        6.040      199.654      128.569       90.340    39861.762    16530.028     8161.379        7.896        3.228      305.554       87.552        0.082      350.042       30.910      864.662
07/09/2013  14:40:00     -225.674     -189.944       -6.139      155.459      115.649       81.111    24167.627    13374.768     6578.958        6.557        2.206      294.970       89.789        0.093      349.734       30.377      864.685
07/09/2013  14:41:00     -219.588     -182.318       -6.055      143.562      104.730       67.391    20610.053    10968.402     4541.517        5.880        1.806      285.410       72.681        0.065      349.719       30.350      864.666
07/09/2013  14:42:00     -154.936      -72.219       19.025      103.710       81.720       60.604    10755.752     6678.119     3672.883        2.534        1.055      170.941       56.086        0.108      349.992       30.826      864.655
07/09/2013  14:43:00     -181.767       15.659       -9.270       61.720       70.846       33.909     3809.332     5019.152     1149.811        2.167        0.499      182.441       26.570        0.021      349.821       30.529      864.646
07/09/2013  14:44:00      -84.335       -8.863        9.525       84.278       82.014       50.609     7102.715     6726.342     2561.247        1.183        0.820       84.800       50.266        0.351      350.335       31.423      864.627
07/09/2013  14:45:00      -95.303       33.230       -0.963       81.161       70.937       42.618     6587.033     5031.988     1816.336        1.181        0.672      100.930       38.264        0.144      350.540       31.779      864.623
07/09/2013  14:46:00     -353.868       67.743      -41.911      153.745       71.864       55.921    23637.569     5164.416     3127.104        8.174        1.596      360.294       60.833        0.029      349.776       30.450      864.638
07/09/2013  14:47:00     -364.965       62.236      -35.185      103.315       70.095       44.352    10673.891     4913.336     1967.143        7.793        0.878      370.233       51.758        0.020      349.665       30.256      864.622
07/09/2013  14:48:00     -396.152     -117.545      -36.218      128.492      110.902       65.436    16510.209    12299.357     4281.922       10.257        1.655      413.223       55.543        0.018      349.911       30.684      864.613
07/09/2013  14:49:00     -379.088     -106.258      -17.625      250.930       91.523       61.390    62965.945     8376.481     3768.769       11.520        3.756      393.699       73.945        0.035      350.022       30.876      864.615
07/09/2013  14:50:00     -401.981      -98.006      -24.863      204.554      116.665       81.318    41842.522    13610.765     6612.536       11.693        3.103      413.756       87.931        0.045      350.108       31.026      864.621
07/09/2013  14:51:00     -261.431        6.097        6.019      201.775      157.290       90.022    40713.022    24740.036     8103.928        7.097        3.678      261.502       97.159        0.138      350.319       31.394      864.652
07/09/2013  14:52:00     -281.234     -155.438      -20.717      154.440      113.091       67.623    23851.781    12789.656     4572.904        7.244        2.061      321.331       77.122        0.058      349.972       30.789      864.652
07/09/2013  14:53:00     -457.559      -81.617      -30.419      128.035      176.710       62.953    16392.962    31226.485     3963.062       13.425        2.579      464.782       56.154        0.015      349.833       30.548      864.666
07/09/2013  14:54:00     -177.814     -108.889       -1.217      134.469      122.806       56.675    18081.981    15081.409     3212.018        3.992        1.819      208.505       52.633        0.064      349.824       30.533      864.665
07/09/2013  14:55:00      -39.654     -256.679        9.094       79.525       97.867       43.433     6324.173     9577.958     1886.428        4.266        0.889      259.724       33.878        0.017      349.469       29.916      864.645
07/09/2013  14:56:00      -51.139      -39.506       13.053       84.363       70.203       36.811     7117.117     4928.431     1355.037        0.887        0.670       64.621       35.670        0.305      350.088       30.994      864.626
07/09/2013  14:57:00     -209.957      -93.772       -1.646      124.521       70.686       45.993    15505.381     4996.501     2115.316        3.774        1.131      229.946       42.747        0.035      350.009       30.854      864.631
07/09/2013  14:58:00     -292.413      -87.303      -12.488      176.216      149.881       70.181    31051.982    22464.353     4925.389        7.585        2.922      305.167       81.661        0.072      350.071       30.961      864.630
07/09/2013  14:59:00     -466.068        8.231      -37.223      178.339      150.750       62.864    31804.639    22725.496     3951.899       13.857        2.924      466.141       68.685        0.022      350.045       30.916      864.638
07/09/2013  15:00:00      -94.683      -38.111       11.066      152.919       83.667       63.180    23384.341     7000.143     3991.661        2.245        1.719      102.066       66.019        0.418      350.450       31.623      864.659
07/09/2013  15:01:00     -274.135     -185.071       -3.901      206.914      105.767       77.921    42813.233    11186.562     6071.649        8.473        3.004      330.758       82.933        0.063      349.933       30.721      864.664
07/09/2013  15:02:00     -253.524     -100.422      -10.729      175.402      129.567       65.446    30765.750    16787.609     4283.194        6.315        2.592      272.689       66.418        0.059      349.913       30.687      864.663
07/09/2013  15:03:00     -148.704     -107.704       -3.648      119.634       73.840       47.851    14312.336     5452.319     2289.720        2.789        1.103      183.611       54.108        0.087      349.973       30.794      864.641
07/09/2013  15:04:00     -168.724     -120.926      -14.222      103.290       78.099       46.756    10668.724     6099.470     2186.109        3.112        0.948      207.583       36.452        0.031      349.977       30.799      864.629
07/09/2013  15:05:00     -213.148      -56.655       12.061      108.282       83.638       49.941    11725.088     6995.321     2494.152        3.500        1.061      220.549       49.587        0.051      350.148       31.096      864.622
07/09/2013  15:06:00     -332.046      -46.813      -11.846      156.927      137.960       68.133    24626.029    19032.967     4642.049        8.043        2.415      335.329       73.321        0.048      350.205       31.195      864.623
07/09/2013  15:07:00     -251.954       41.714      -17.593      172.091       77.668       53.602    29615.362     6032.393     2873.137        5.202        1.926      255.384       77.286        0.092      350.397       31.530      864.622
07/09/2013  15:08:00     -307.739       89.536      -26.109      185.046      125.209       79.501    34242.018    15677.315     6320.356        7.981        2.812      320.500       83.749        0.068      350.388       31.512      864.626
07/09/2013  15:09:00     -195.871       18.863      -29.370       98.919      124.252       52.879     9785.010    15438.588     2796.199        3.380        1.401      196.778       33.871        0.030      350.228       31.234      864.616
07/09/2013  15:10:00     -113.942      174.382      -24.658       89.305       80.527       50.502     7975.462     6484.559     2550.409        3.050        0.851      208.307       52.522        0.064      349.826       30.537      864.612
07/09/2013  15:11:00      -28.893      116.055       15.082       62.740       92.257       49.904     3936.275     8511.341     2490.432        1.473        0.747      119.597       43.600        0.133      349.945       30.745      864.558
07/09/2013  15:12:00     -259.644       37.406      -31.261      135.075      106.039       61.566    18245.365    11244.171     3790.421        5.153        1.664      262.325       65.316        0.062      349.917       30.693      864.546
07/09/2013  15:13:00     -407.682      -29.357      -18.504      195.058      115.759       79.218    38047.458    13400.225     6275.435       11.255        2.886      408.738       84.678        0.043      350.111       31.032      864.513
07/09/2013  15:14:00     -249.513      -70.056        7.643      149.239      129.330       72.970    22272.338    16726.169     5324.581        5.576        2.216      259.161       80.643        0.097      350.150       31.099      864.499
07/09/2013  15:15:00      -56.107       76.781       11.790       98.070      118.920       62.455     9617.677    14142.055     3900.610        1.842        1.383       95.096       61.846        0.423      350.334       31.420      864.476
07/09/2013  15:16:00     -159.117       59.214      -27.137      119.535      127.612       78.830    14288.540    16284.724     6214.204        3.317        1.839      169.778       50.708        0.089      350.065       30.952      864.451
07/09/2013  15:17:00     -109.520       53.639       -7.903      108.406       94.799       60.014    11751.838     8986.864     3601.724        1.963        1.217      121.950       58.527        0.230      350.134       31.073      864.417
07/09/2013  15:18:00     -205.224      276.575      -19.428      146.087      146.251       80.951    21341.445    21389.247     6553.119        8.413        2.464      344.398       68.347        0.039      350.159       31.115      864.372
07/09/2013  15:19:00     -373.917      103.074      -33.211      160.996      117.687       72.156    25919.628    13850.183     5206.528        9.825        2.249      387.864       68.621        0.031      350.117       31.041      864.398
07/09/2013  15:20:00     -353.915     -169.988        4.627      180.700      130.644       85.158    32652.506    17067.856     7251.906       10.556        2.849      392.622       90.617        0.053      350.275       31.316      864.390
07/09/2013  15:21:00     -252.389     -103.561      -13.626      125.022      146.768       62.955    15630.444    21540.932     3963.324        5.786        2.057      272.810       58.167        0.045      350.281       31.325      864.418
07/09/2013  15:22:00     -404.064      -65.253      -17.507      224.061      147.745       69.980    50203.114    21828.683     4897.254       12.237        3.846      409.299       66.728        0.027      350.127       31.059      864.395
07/09/2013  15:23:00     -463.272      -84.412      -16.667      247.597      153.261       87.794    61304.469    23489.010     7707.699       15.724        4.625      470.900       93.295        0.039      350.040       30.908      864.405
07/09/2013  15:24:00     -397.485     -106.869       -5.710      179.783      109.829       73.978    32321.857    12062.357     5472.722       10.964        2.493      411.601       75.327        0.033      350.117       31.041      864.407
07/09/2013  15:25:00     -288.614     -117.009      -13.595      106.606       94.176       60.974    11364.760     8869.078     3717.773        6.056        1.198      311.430       49.946        0.026      350.281       31.326      864.435
07/09/2013  15:26:00     -152.202       93.441      -10.795      132.505       88.027       60.543    17557.675     7748.750     3665.499        3.049        1.449      178.596       65.798        0.136      350.154       31.106      864.406
07/09/2013  15:27:00     -149.695      223.277      -29.206       67.264      104.081       43.457     4524.440    10832.753     1888.477        4.518        0.862      268.815       46.564        0.030      349.955       30.758      864.366
07/09/2013  15:28:00     -358.327       34.467      -29.463      186.127      150.027       74.353    34643.190    22508.203     5528.443        9.655        3.134      359.981       88.178        0.060      350.062       30.946      864.337
07/09/2013  15:29:00     -387.005       37.272      -37.660      130.219      194.719       70.506    16957.097    37915.538     4971.039       10.620        2.992      388.795       70.935        0.033      350.056       30.936      864.335
07/09/2013  15:30:00     -445.826      -14.983      -59.268      149.476      182.280       73.044    22343.196    33226.163     5335.406       13.169        3.045      446.078       57.940        0.017      350.038       30.905      864.299
07/09/2013  15:31:00     -519.814      -82.812      -40.033      171.897      197.582       88.048    29548.591    39038.808     7752.532       17.749        3.817      526.369       83.001        0.025      350.069       30.958      864.278
07/09/2013  15:32:00     -382.488      -43.451      -31.139      219.849      181.162       84.788    48333.538    32819.778     7188.954       11.873        4.417      384.948       60.557        0.025      350.284       31.332      864.251
07/09/2013  15:33:00     -517.690       46.865      -55.645      210.684      165.086       78.218    44387.903    27253.317     6118.093       17.551        3.888      519.807       89.338        0.030      350.000       30.838      864.263
07/09/2013  15:34:00     -630.577     -156.204      -29.040      239.890      154.142       95.580    57547.188    23759.850     9135.443       25.664        4.522      649.636       83.602        0.017      350.015       30.864      864.219
07/09/2013  15:35:00     -405.760       -2.271      -16.467      147.370      154.534       56.626    21718.028    23880.775     3206.507       10.685        2.440      405.766       40.692        0.010      349.997       30.834      864.298
07/09/2013  15:36:00     -145.459      -20.527        0.399      134.577      102.970       48.767    18110.956    10602.742     2378.226        2.633        1.555      146.901       53.851        0.134      350.275       31.317      864.271
07/09/2013  15:37:00      -50.207      -68.999        9.242       51.517       54.066       35.911     2653.988     2923.185     1289.600        0.712        0.343       85.332       18.156        0.045      350.471       31.659      864.233
07/09/2013  15:38:00     -199.197      -53.063       13.390      187.865      114.749       74.099    35293.195    13167.279     5490.597        4.830        2.698      206.143       90.426        0.192      350.340       31.429      864.231
07/09/2013  15:39:00     -380.249     -225.153       10.724      252.975      177.588      115.288    63996.349    31537.366    13291.368       15.209        5.441      441.909      114.873        0.068      350.251       31.274      864.182
07/09/2013  15:40:00     -222.941      -60.637       -1.402      160.740      116.012       58.036    25837.457    13458.778     3368.154        4.801        2.133      231.040       70.678        0.094      350.657       31.981      864.228
07/09/2013  15:41:00     -260.620      -40.587      -20.331      113.266      101.448       58.194    12829.122    10291.699     3386.599        4.824        1.325      263.761       30.593        0.013      350.545       31.786      864.235
07/09/2013  15:42:00     -443.400      -23.022      -35.045      158.967      169.142       66.730    25270.570    28609.068     4452.827       12.833        2.917      443.997       67.597        0.023      350.318       31.390      864.234
07/09/2013  15:43:00     -414.761      -46.647      -34.975      208.807      120.788       83.858    43600.503    14589.707     7032.116       12.031        3.261      417.375       75.698        0.033      350.163       31.121      864.246
07/09/2013  15:44:00     -355.778     -106.901      -30.409       92.414      107.652       57.374     8540.398    11589.045     3291.734        8.117        1.171      371.491       36.242        0.010      350.135       31.071      864.239
07/09/2013  15:45:00     -382.484      -31.780       -3.497      173.370      142.529       76.922    30057.196    20314.374     5916.925       10.179        2.814      383.802       77.733        0.041      350.342       31.430      864.254
07/09/2013  15:46:00     -331.659      -83.148      -16.049      176.473      141.165       76.326    31142.583    19927.551     5825.698        8.702        2.845      341.923       83.112        0.059      350.227       31.233      864.289
07/09/2013  15:47:00     -310.756     -133.588      -21.202      165.635      104.832       64.620    27434.991    10989.646     4175.753        7.872        2.130      338.253       66.177        0.038      349.935       30.727      864.248
07/09/2013  15:48:00     -438.491     -114.489      -28.001      139.660      121.935       81.304    19504.875    14868.025     6610.342       12.357        2.049      453.191       74.884        0.027      350.151       31.099      864.236
07/09/2013  15:49:00     -423.401     -132.253      -16.383      156.451      155.618       68.966    24477.060    24216.944     4756.342       12.523        2.673      443.576       54.965        0.015      350.096       31.003      864.235
07/09/2013  15:50:00     -416.372     -129.983      -13.058      279.069      156.479       91.146    77879.714    24485.811     8307.550       15.053        5.534      436.190      121.140        0.077      350.116       31.041      864.207
07/09/2013  15:51:00     -340.642       28.796      -39.963      102.581      101.262       60.052    10522.963    10254.072     3606.286        7.142        1.219      341.857       47.565        0.019      349.994       30.827      864.234
07/09/2013  15:52:00     -451.446      -71.304      -39.373      135.714      108.887       62.657    18418.327    11856.288     3925.880       12.231        1.710      457.043       57.964        0.016      349.933       30.721      864.202
07/09/2013  15:53:00     -305.021     -105.736       -5.981      130.255       89.129       59.646    16966.253     7943.896     3557.623        6.636        1.423      322.828       70.059        0.047      349.824       30.533      864.155
07/09/2013  15:54:00     -192.180       26.169        3.884      113.321      109.352       64.026    12841.685    11957.955     4099.351        3.326        1.445      193.953       61.444        0.100      350.040       30.909      864.151
07/09/2013  15:55:00     -103.780       53.765       -5.406       88.537      110.051       42.466     7838.805    12111.188     1803.387        1.772        1.088      116.880       57.555        0.242      350.203       31.193      864.160
07/09/2013  15:56:00     -229.133       48.280      -25.385      144.592      120.032       65.978    20906.730    14407.715     4353.138        4.756        1.983      234.164       73.442        0.098      350.065       30.952      864.146
07/09/2013  15:57:00     -153.516      124.489      -11.987      127.438      149.344       62.965    16240.536    22303.606     3964.555        4.085        2.125      197.648       67.538        0.117      350.197       31.182      864.161
07/09/2013  15:58:00     -117.057       -2.041      -13.471      180.294      107.823       63.348    32505.925    11625.867     4012.956        3.101        2.407      117.075       77.542        0.439      350.444       31.611      864.119
07/09/2013  15:59:00     -220.401        5.354      -38.306      112.675      133.016       58.654    12695.693    17693.131     3440.307        4.194        1.691      220.466       53.827        0.060      350.448       31.618      864.112
07/09/2013  16:00:00     -329.498        6.944      -14.837      139.363      127.870       69.613    19422.119    16350.786     4846.031        7.472        2.031      329.572       73.519        0.050      350.478       31.668      864.116
07/09/2013  16:01:00     -316.058      -69.782      -21.266      146.408      105.868       58.234    21435.238    11208.118     3391.209        7.062        1.802      323.670       72.538        0.050      350.343       31.435      864.091
07/09/2013  16:02:00     -391.405     -189.583      -13.299      173.005      152.795       66.608    29930.798    23346.363     4436.584       12.350        2.886      434.902       70.560        0.026      350.206       31.197      864.085
07/09/2013  16:03:00     -209.711       84.066       -0.448      181.478      149.935       80.275    32934.182    22480.396     6444.147        5.644        3.093      225.933       94.585        0.175      350.489       31.689      864.067
07/09/2013  16:04:00     -334.022     -105.227      -21.480      126.608      124.294       70.181    16029.499    15449.095     4925.394        7.975        1.820      350.204       32.425        0.009      350.227       31.232      864.051
07/09/2013  16:05:00     -281.870      -26.503      -22.149      154.412      172.172       68.022    23842.933    29643.255     4626.972        6.937        2.906      283.113       46.532        0.027      350.246       31.265      864.019
07/09/2013  16:06:00     -282.284      -95.598      -16.350      240.457      203.208       89.527    57819.390    41293.502     8015.065        9.809        5.356      298.032       54.794        0.034      350.283       31.330      863.959
07/09/2013  16:07:00     -397.470      -93.375      -22.604      155.909      137.440       68.855    24307.497    18889.887     4741.041       10.757        2.397      408.291       77.329        0.036      350.268       31.302      864.020
07/09/2013  16:08:00     -358.038        2.145      -18.070      208.998      142.542       76.163    43680.174    20318.108     5800.865        9.915        3.490      358.045       76.981        0.046      350.367       31.475      864.033
07/09/2013  16:09:00     -305.610     -135.689       17.547      246.082      174.679       90.651    60556.564    30512.652     8217.562       10.568        4.964      334.378      114.644        0.118      350.523       31.746      864.022
07/09/2013  16:10:00     -281.938     -153.517        2.700      165.557      129.921       75.869    27408.965    16879.500     5756.089        7.654        2.502      321.024       87.996        0.075      350.391       31.518      864.005
07/09/2013  16:11:00     -475.212      -44.808      -11.126      222.737      212.669       82.085    49611.802    45228.179     6737.906       16.475        5.079      477.319       95.148        0.040      350.428       31.581      863.999
07/09/2013  16:12:00     -433.364     -167.090      -18.121      179.478      194.370       84.140    32212.340    37779.735     7079.498       14.655        3.854      464.460       89.821        0.037      350.080       30.977      864.019
07/09/2013  16:13:00     -392.559     -119.349      -12.465      262.448      167.634       90.747    68878.965    28101.094     8234.970       13.684        5.261      410.301      105.300        0.066      350.205       31.193      864.007
07/09/2013  16:14:00     -427.663      -66.814      -42.303      160.149      174.527       69.313    25647.856    30459.637     4804.273       12.502        3.046      432.851       62.216        0.021      350.207       31.197      863.970
07/09/2013  16:15:00     -502.222     -169.757      -23.682      213.288      159.529       91.685    45491.939    25449.405     8406.168       18.046        3.967      530.136      102.776        0.038      350.209       31.201      864.019
07/09/2013  16:16:00     -367.002      -74.001       -5.280      191.979      153.668       87.401    36855.978    23613.990     7639.016       10.414        3.405      374.389       88.207        0.056      350.292       31.345      864.050
07/09/2013  16:17:00     -401.562      -83.956       -7.111      212.311      157.347       78.927    45075.873    24758.122     6229.521       12.219        3.803      410.244       91.565        0.050      350.140       31.083      864.014
07/09/2013  16:18:00     -451.278      153.167      -54.233      218.940      209.014      107.005    47934.532    43686.720    11450.088       16.654        5.154      476.563      109.661        0.053      350.165       31.125      864.003
07/09/2013  16:19:00     -336.730      -96.453       -4.150      214.732      156.036       85.199    46109.842    24347.225     7258.873       10.020        3.886      350.272       92.663        0.070      350.152       31.102      864.013
07/09/2013  16:20:00     -548.834       25.388      -37.346      240.154      163.493      101.974    57673.897    26730.066    10398.601       19.901        4.740      549.421      124.245        0.051      350.061       30.943      864.078
07/09/2013  16:21:00     -460.612      -63.313      -28.400      158.749      116.368       72.820    25201.104    13541.444     5302.812       13.050        2.202      464.943       80.610        0.030      350.158       31.111      864.096
07/09/2013  16:22:00     -262.617      -48.675      -10.925      130.803       87.883       47.432    17109.377     7723.482     2249.767        4.926        1.354      267.089       46.525        0.030      350.495       31.698      864.099
07/09/2013  16:23:00     -279.981       10.062       -3.896      153.994      105.980       76.602    23714.222    11231.709     5867.939        5.965        2.041      280.162       78.055        0.078      350.430       31.586      864.095
07/09/2013  16:24:00     -348.952      -67.335      -16.061      198.033      162.635       95.224    39216.999    26450.231     9067.573       10.063        3.737      355.390       91.094        0.066      350.367       31.476      864.097
07/09/2013  16:25:00     -533.050      -76.304      -22.376      141.171      125.777       81.308    19929.162    15819.776     6611.012       16.640        2.118      538.484       75.758        0.020      350.112       31.034      864.089
07/09/2013  16:26:00     -384.547      -87.948       -9.559      180.272      132.496       70.925    32497.865    17555.109     5030.368       10.538        2.754      394.476       83.049        0.044      350.347       31.441      864.111
07/09/2013  16:27:00     -348.501      -30.963       14.199      238.819      175.041      115.041    57034.418    30639.232    13234.368       11.174        5.045      349.874      127.236        0.132      350.392       31.519      864.126
07/09/2013  16:28:00     -252.899      -93.993        9.297      212.334      156.946       75.077    45085.802    24632.093     5636.552        7.410        3.768      269.801       93.806        0.121      350.165       31.125      864.132
07/09/2013  16:29:00     -412.735     -129.760      -13.408      201.104      170.919       92.847    40442.734    29213.389     8620.575       13.281        3.914      432.652      103.987        0.058      350.006       30.849      864.114
07/09/2013  16:30:00     -330.634      -76.495       10.787      213.564      122.704       77.594    45609.581    15056.354     6020.827        9.097        3.334      339.368      100.168        0.087      350.231       31.239      864.127
07/09/2013  16:31:00     -247.412      -62.172      -10.302      106.409       92.941       63.316    11322.832     8637.967     4008.926        4.457        1.198      255.104       62.090        0.059      350.272       31.309      864.136
07/09/2013  16:32:00     -304.849     -123.416      -17.086      210.988      202.139      102.191    44516.023    40860.058    10443.093       10.212        4.791      328.884      110.334        0.113      350.147       31.093      864.132
07/09/2013  16:33:00     -327.010     -195.528      -10.997      182.604      152.809       79.982    33344.039    23350.628     6397.084       10.418        3.155      381.007       87.372        0.053      349.918       30.695      864.102
07/09/2013  16:34:00     -372.172      -19.435      -21.211      262.964      149.185       83.695    69150.204    22256.015     7004.834       11.886        4.921      372.679      112.503        0.091      350.061       30.943      864.106
07/09/2013  16:35:00     -384.324      -39.317      -18.423      220.086      146.794       82.621    48437.761    21548.459     6826.222       11.319        3.841      386.330       91.897        0.057      350.137       31.075      864.091
07/09/2013  16:36:00     -410.508     -245.298        6.342      268.049      174.885      111.934    71850.327    30584.766    12529.181       17.182        5.748      478.213       91.033        0.036      349.984       30.811      864.058
07/09/2013  16:37:00     -258.789      -27.287      -26.017      230.802      144.702       85.998    53269.737    20938.792     7395.734        7.498        4.080      260.224      106.753        0.168      350.115       31.038      864.107
07/09/2013  16:38:00     -448.195     -143.019      -10.174      191.480      132.606       78.739    36664.712    17584.249     6199.812       14.093        3.022      470.461       95.712        0.041      349.748       30.399      864.096
07/09/2013  16:39:00     -328.476      -18.811       -3.289      168.254      123.833       73.396    28309.250    15334.503     5386.959        7.864        2.452      329.014       75.089        0.052      350.077       30.973      864.098
07/09/2013  16:40:00     -241.328       -2.051       -5.645      144.082      136.546       76.416    20759.596    18644.909     5839.413        5.175        2.262      241.337       60.793        0.063      350.180       31.150      864.103
07/09/2013  16:41:00     -481.119      -40.803      -30.497      199.146      203.462       89.752    39659.201    41396.696     8055.400       16.157        4.456      482.846       99.309        0.042      349.987       30.815      864.047
07/09/2013  16:42:00     -386.898      -39.761      -26.569      197.342      161.620       81.662    38943.809    26120.985     6668.611       11.184        3.587      388.936       98.631        0.064      349.931       30.719      864.052
07/09/2013  16:43:00     -453.444      -69.963      -39.975      294.904      208.099      108.658    86968.183    43305.179    11806.616       17.706        7.104      458.810      133.491        0.085      349.966       30.779      863.993
07/09/2013  16:44:00     -243.001       -9.591        9.816      168.640      178.096       81.421    28439.343    31718.103     6629.424        6.300        3.339      243.190       75.652        0.097      350.092       30.999      863.991
07/09/2013  16:45:00     -395.592       -3.370      -22.526      186.161      181.118       91.959    34655.853    32803.909     8456.473       11.645        3.796      395.606       93.214        0.056      350.019       30.869      863.977
07/09/2013  16:46:00     -370.143      -26.972       -6.556      154.958      112.976       72.421    24011.846    12763.497     5244.838        8.989        2.101      371.124       73.235        0.039      350.119       31.044      864.032
07/09/2013  16:47:00     -427.809      -79.239      -18.318      141.065      119.456       62.673    19899.335    14269.727     3927.956       11.386        1.905      435.085       51.081        0.014      349.865       30.603      864.027
07/09/2013  16:48:00     -284.911      -13.477      -13.688      132.331      124.605       61.378    17511.600    15526.386     3767.237        5.917        1.840      285.230       72.516        0.065      350.089       30.992      864.029
07/09/2013  16:49:00     -228.569      -99.360      -12.469      204.200      117.684       71.041    41697.756    13849.488     5046.871        6.142        3.030      249.232       81.406        0.107      350.100       31.013      864.009
07/09/2013  16:50:00     -179.822      -51.443       -8.850      150.329       94.695       54.683    22598.690     8967.149     2990.276        3.480        1.728      187.036       56.521        0.091      350.138       31.079      864.040
07/09/2013  16:51:00     -207.241        7.347      -13.810      127.926      142.513       57.678    16365.124    20310.041     3326.764        4.159        2.000      207.371       61.914        0.089      350.118       31.044      864.049
07/09/2013  16:52:00     -231.144      -75.242      -25.754      165.884      122.186       73.476    27517.371    14929.340     5398.690        5.379        2.392      243.082       77.672        0.102      350.168       31.131      863.994
07/09/2013  16:53:00     -346.709     -139.494      -25.631      146.133      146.545       73.537    21354.880    21475.497     5407.675        9.427        2.412      373.719       65.605        0.031      350.059       30.939      864.002
07/09/2013  16:54:00     -335.374      -82.645       -8.830      176.633      155.184       86.892    31199.391    24082.150     7550.244        9.110        3.142      345.407       73.800        0.046      349.945       30.743      864.010
07/09/2013  16:55:00     -323.873      -30.354      -20.728      195.881      126.837       71.110    38369.453    16087.746     5056.582        8.287        2.976      325.292       88.777        0.074      350.063       30.948      864.010
07/09/2013  16:56:00     -370.559     -116.360      -43.770      155.544      168.385       89.286    24194.031    28353.636     7971.977       10.663        3.026      388.398       44.797        0.013      349.926       30.709      863.985
07/09/2013  16:57:00     -246.168      -11.698      -16.000      139.281      145.848       95.390    19399.336    21271.664     9099.176        5.537        2.489      246.446       71.322        0.084      350.102       31.015      863.974
07/09/2013  16:58:00     -281.941      -66.931      -10.550      170.853      126.715       72.170    29190.849    16056.651     5208.458        6.726        2.523      289.776       78.065        0.073      350.181       31.154      864.013
07/09/2013  16:59:00     -476.896      -63.597      -47.683      181.405      123.131       79.988    32907.940    15161.191     6398.140       14.410        2.723      481.118       85.757        0.032      349.824       30.531      864.009
07/09/2013  17:00:00     -279.586      -35.119       -8.795      164.866      147.156       82.639    27180.644    21654.823     6829.164        6.756        2.783      281.783       86.746        0.095      349.908       30.677      863.982
07/09/2013  17:01:00     -294.019      -37.319      -26.880      131.544      100.301       64.660    17303.825    10060.226     4180.958        6.005        1.577      296.378       53.691        0.033      350.131       31.066      863.982
07/09/2013  17:02:00     -194.720      -56.950      -10.421      147.749       96.626       64.477    21829.791     9336.488     4157.316        3.829        1.766      202.877       41.363        0.042      350.236       31.248      863.967
07/09/2013  17:03:00     -380.960     -122.707      -25.997      206.501      156.682       90.531    42642.844    24549.265     8195.932       11.811        3.769      400.234      104.221        0.068      349.861       30.596      863.981
07/09/2013  17:04:00     -394.798       87.301      -39.567      168.841      193.854       78.002    28507.339    37579.487     6084.373       11.860        3.609      404.335       66.349        0.027      349.682       30.286      863.944
07/09/2013  17:05:00     -231.626     -119.126       21.314      239.906      172.849      101.812    57554.886    29876.897    10365.666        8.303        4.890      260.465      118.207        0.206      349.876       30.622      863.963
07/09/2013  17:06:00     -163.172      -33.985        4.133       79.234       71.661       50.449     6277.991     5135.363     2545.123        2.088        0.698      166.674       37.444        0.050      350.063       30.947      863.950
07/09/2013  17:07:00     -200.157      -56.833       -5.421      108.622       95.149       54.530    11798.667     9053.400     2973.498        3.357        1.191      208.069       46.423        0.050      350.091       30.997      863.934
07/09/2013  17:08:00     -235.613       30.287      -15.615       92.513      117.739       52.722     8558.647    13862.364     2779.657        4.093        1.260      237.552       47.331        0.040      350.206       31.196      863.909
07/09/2013  17:09:00     -474.773      -64.731      -20.028      193.873      131.606       84.967    37586.586    17320.212     7219.334       14.605        3.106      479.165      104.259        0.047      349.999       30.838      863.912
07/09/2013  17:10:00     -301.372     -166.756       16.056      248.288      186.860      102.320    61646.824    34916.701    10469.365       11.294        5.352      344.431      129.369        0.141      349.851       30.580      863.938
07/09/2013  17:11:00     -520.344     -132.900      -18.956      205.056      148.262       93.984    42047.838    21981.536     8833.074       18.081        3.643      537.048      101.121        0.035      349.642       30.216      863.923
07/09/2013  17:12:00     -407.146     -152.379      -12.699      203.729      179.012      101.572    41505.514    32045.371    10316.916       13.649        4.193      434.727       99.313        0.052      349.728       30.365      863.887
07/09/2013  17:13:00     -205.953     -103.096       -3.896      197.259      144.117       88.844    38911.033    20769.648     7893.264        6.030        3.379      230.316       88.802        0.149      349.878       30.626      863.856
07/09/2013  17:14:00     -277.858      -45.477        1.329      175.441      113.811       70.738    30779.452    12952.909     5003.857        6.400        2.437      281.555       62.861        0.050      349.962       30.773      863.873
07/09/2013  17:15:00     -310.021      -44.903      -31.559      180.820      131.814       82.279    32695.747    17375.020     6769.756        7.797        2.842      313.256      100.957        0.104      349.934       30.724      863.860
07/09/2013  17:16:00     -502.535      -14.350      -42.196      190.859      156.226       85.619    36427.325    24406.517     7330.545       16.133        3.408      502.740       94.478        0.035      349.856       30.588      863.863
07/09/2013  17:17:00     -423.578      -57.151      -31.058      131.369      173.214       77.393    17257.744    30002.979     5989.753       11.844        2.663      427.417       62.890        0.022      349.914       30.689      863.873
07/09/2013  17:18:00     -423.678       83.736      -25.993      181.812      152.339       73.549    33055.532    23207.120     5409.469       12.442        3.084      431.874       77.112        0.032      349.764       30.428      863.866
07/09/2013  17:19:00     -396.703       25.047      -22.791      206.112      133.109       75.968    42482.125    17717.899     5771.146       11.223        3.299      397.493      100.950        0.064      349.877       30.625      863.863
07/09/2013  17:20:00     -569.192     -138.881      -53.779      154.361      229.382       78.830    23827.181    52616.021     6214.184       21.439        4.133      585.891       54.270        0.009      349.701       30.318      863.793
07/09/2013  17:21:00     -431.933     -159.886      -12.549      206.706      153.368       88.296    42727.225    23521.625     7796.238       14.315        3.702      460.575      104.092        0.051      349.681       30.284      863.777
07/09/2013  17:22:00     -351.724     -133.566      -16.530      145.444      122.959       63.304    21154.045    15118.802     4007.413        9.104        2.014      376.231       65.007        0.030      349.887       30.641      863.778
07/09/2013  17:23:00     -473.649      -97.912      -29.831      207.838      207.165       90.508    43196.788    42917.343     8191.782       16.454        4.715      483.664       80.980        0.028      349.827       30.538      863.789
07/09/2013  17:24:00     -346.706      -68.572       -2.588      250.835      187.438      102.466    62918.144    35132.926    10499.342       11.671        5.428      353.422      122.219        0.120      349.805       30.500      863.760
07/09/2013  17:25:00     -254.750     -146.066       12.839      220.850      180.436       87.574    48774.846    32557.180     7669.143        8.768        4.450      293.654      113.864        0.150      349.912       30.684      863.748
07/09/2013  17:26:00     -255.807     -108.209        3.682      181.916      123.824       72.821    33093.492    15332.421     5302.905        6.543        2.686      277.753       83.633        0.091      349.977       30.800      863.759
07/09/2013  17:27:00     -413.034     -280.868       -8.368      228.625      206.071       98.014    52269.609    42465.167     9606.651       17.693        5.217      499.484       94.317        0.036      349.650       30.230      863.753
07/09/2013  17:28:00     -268.087     -194.336        5.607      252.358      157.537      100.419    63684.310    24817.857    10084.005       10.411        4.929      331.115      122.996        0.138      349.651       30.231      863.730
07/09/2013  17:29:00     -371.250     -226.906        2.991      274.473      182.087      106.048    75335.206    33155.507    11246.253       15.451        5.987      435.101      123.022        0.080      349.603       30.149      863.706
07/09/2013  17:30:00     -429.222     -247.627      -11.487      232.609      160.349       97.688    54107.040    25711.904     9542.878       16.750        4.468      495.531      107.097        0.047      349.553       30.063      863.701
07/09/2013  17:31:00     -426.916     -238.991      -22.956      248.557      199.075       98.902    61780.799    39630.912     9781.646       17.552        5.560      489.259      108.694        0.049      349.590       30.125      863.656
07/09/2013  17:32:00     -457.443     -342.796      -27.455      279.117      210.518      119.121    77906.523    44318.006    14189.908       23.194        6.821      571.632      128.723        0.051      349.583       30.113      863.675
07/09/2013  17:33:00     -343.763     -122.603       -3.199      181.402      175.347       88.687    32906.818    30746.682     7865.338       10.235        3.576      364.972       95.519        0.068      349.638       30.209      863.702
07/09/2013  17:34:00     -413.404     -164.531       -3.567      237.798      147.743       89.530    56548.124    21827.932     8015.620       14.217        4.320      444.942      101.703        0.052      349.551       30.057      863.683
07/09/2013  17:35:00     -278.782     -156.555       -8.133      210.436      158.176       89.794    44283.143    25019.626     8062.935        8.981        3.868      319.732      103.281        0.104      349.583       30.115      863.663
07/09/2013  17:36:00     -176.603      -92.709        1.738      148.139      139.877       73.896    21945.288    19565.697     5460.609        4.337        2.349      199.458       78.667        0.156      349.717       30.348      863.640
07/09/2013  17:37:00     -288.867     -134.068       -6.191      202.435      138.909       79.211    40979.872    19295.723     6274.401        8.399        3.327      318.462      107.362        0.114      349.707       30.329      863.645
07/09/2013  17:38:00     -434.359       -6.837      -31.396      228.370      161.811       80.537    52152.744    26182.657     6486.150       13.724        4.241      434.412       88.604        0.042      349.807       30.504      863.655
07/09/2013  17:39:00     -337.341        2.857      -22.686      135.953      119.369       58.947    18483.143    14248.856     3474.775        7.526        1.810      337.353       57.062        0.029      349.886       30.639      863.644
07/09/2013  17:40:00     -351.748      -21.996      -16.075      168.884      134.739       80.568    28521.964    18154.545     6491.165        8.881        2.658      352.435       88.609        0.063      349.796       30.484      863.649
07/09/2013  17:41:00     -419.577     -201.417       -3.972      196.583      131.052       89.099    38644.764    17174.726     7938.616       14.018        3.188      465.417       85.928        0.034      349.732       30.372      863.637
07/09/2013  17:42:00     -376.127     -100.065      -18.470      201.522      145.301       78.184    40611.025    21112.429     6112.701       10.982        3.392      389.210       87.136        0.050      349.814       30.515      863.649
07/09/2013  17:43:00     -360.059     -165.403       -1.907      250.123      233.435       86.517    62561.608    54491.677     7485.253       14.075        6.227      396.233       99.982        0.064      349.932       30.720      863.673
07/09/2013  17:44:00     -350.812      -65.177       -5.631      166.194      143.599       86.609    27620.300    20620.763     7501.092        9.153        2.787      356.815       87.888        0.061      349.723       30.355      863.679
07/09/2013  17:45:00     -337.996      -42.148      -10.960      201.283      141.143       76.610    40514.838    19921.321     5869.026        9.121        3.315      340.614       72.420        0.045      349.744       30.394      863.661
07/09/2013  17:46:00     -394.774     -130.588      -16.848      228.088      168.600       87.605    52024.005    28426.065     7674.562       13.064        4.406      415.812       99.259        0.057      349.585       30.117      863.636
07/09/2013  17:47:00     -297.086      -58.410      -18.720      162.261      184.733       65.381    26328.516    34126.327     4274.688        7.836        3.236      302.773       62.877        0.043      349.723       30.357      863.640
07/09/2013  17:48:00     -509.018      -72.663      -40.126      211.049      186.402      113.286    44541.690    34745.562    12833.750       17.904        4.606      514.178      116.756        0.052      349.584       30.116      863.604
07/09/2013  17:49:00     -402.395     -168.171      -17.558      249.806      172.533       89.504    62403.249    29767.627     8010.896       14.533        5.009      436.122      106.089        0.059      349.636       30.206      863.602
07/09/2013  17:50:00     -314.539     -176.578       18.616      207.205      170.668       87.079    42933.961    29127.651     7582.672       10.504        3.982      360.714      102.206        0.080      349.601       30.144      863.568
07/09/2013  17:51:00     -230.610      -68.373        3.587      185.230      190.826       75.828    34310.329    36414.383     5749.850        6.716        3.824      240.532       77.606        0.104      349.675       30.274      863.600
07/09/2013  17:52:00     -211.469     -118.927      -11.338      243.344      156.828       90.106    59216.244    24594.943     8119.180        7.544        4.597      242.617      105.601        0.189      349.668       30.262      863.595
07/09/2013  17:53:00     -193.895      -15.212        8.338      121.158       93.204       50.289    14679.205     8686.904     2528.934        3.189        1.295      194.491       49.693        0.065      349.905       30.673      863.603
07/09/2013  17:54:00     -348.251        3.094      -38.548      201.126      125.752       67.103    40451.717    15813.551     4502.865        9.176        3.038      348.265       78.933        0.051      349.766       30.431      863.611
07/09/2013  17:55:00     -314.068      -26.954        0.918      213.492      143.630       84.007    45578.847    20629.508     7057.197        8.630        3.663      315.223       89.644        0.081      349.700       30.317      863.604
07/09/2013  17:56:00     -230.757     -193.541        5.805      161.369      159.184       87.931    26039.941    25339.396     7731.813        7.491        2.956      301.176       96.565        0.103      349.630       30.197      863.591
07/09/2013  17:57:00     -165.687      -85.730        4.080      130.487      120.951       68.018    17026.813    14629.207     4626.492        3.554        1.814      186.553       79.662        0.182      349.768       30.437      863.617
07/09/2013  17:58:00     -189.989      -58.890       12.228      159.606      129.048       66.410    25473.960    16653.340     4410.336        4.312        2.327      198.907       78.136        0.154      349.793       30.478      863.606
07/09/2013  17:59:00     -229.984       -1.416        5.463      164.410      110.112       67.052    27030.709    12124.627     4495.951        4.828        2.183      229.988       73.090        0.101      349.768       30.435      863.592
07/09/2013  18:00:00     -256.938      -84.228        1.234      163.225      144.578       67.631    26642.521    20902.842     4573.893        6.261        2.606      270.392       69.929        0.067      349.808       30.505      863.616
07/09/2013  18:01:00     -363.366      -93.031       -5.709      152.773      144.130       73.846    23339.737    20773.549     5453.270        9.513        2.478      375.086       82.123        0.048      349.587       30.122      863.606
07/09/2013  18:02:00     -287.251      -96.069       -0.154      157.910      116.612       78.268    24935.517    13598.444     6125.869        6.819        2.233      302.890       77.658        0.066      349.629       30.193      863.589
07/09/2013  18:03:00     -407.212     -187.319      -14.431      183.879      137.534       80.145    33811.406    18915.526     6423.270       13.012        2.958      448.230       92.454        0.043      349.547       30.051      863.604
07/09/2013  18:04:00     -340.283     -159.515       -5.739      200.545       97.714       67.104    40218.248     9548.036     4502.999        9.776        2.713      375.816       83.043        0.049      349.567       30.087      863.597
07/09/2013  18:05:00     -513.560     -155.303      -23.722      236.627      157.277      101.511    55992.485    24735.956    10304.536       18.971        4.552      536.528      113.848        0.045      349.507       29.982      863.586
07/09/2013  18:06:00     -458.852      -81.491      -15.988      239.347      104.150       84.673    57286.792    10847.303     7169.443       14.636        3.765      466.032       99.802        0.046      349.347       29.706      863.588
07/09/2013  18:07:00     -217.835      -85.684       -3.947      147.530      140.416       77.079    21764.987    19716.547     5941.213        5.111        2.371      234.081       86.877        0.138      349.548       30.054      863.614
07/09/2013  18:08:00     -443.214     -153.874      -14.057      230.792      193.973       91.276    53264.768    37625.403     8331.337       15.975        4.961      469.165      108.961        0.054      349.390       29.780      863.587
07/09/2013  18:09:00     -435.384      -44.091      -12.330      228.476      165.130      103.437    52201.191    27268.043    10699.214       14.089        4.508      437.611      112.977        0.067      349.351       29.713      863.609
07/09/2013  18:10:00     -335.911     -146.999       -6.871      248.679      163.467       81.506    61841.037    26721.341     6643.163       11.483        4.760      366.667      106.796        0.085      349.395       29.788      863.565
07/09/2013  18:11:00     -312.512     -142.559      -12.899      213.196      209.484       81.358    45452.419    43883.489     6619.065       10.704        4.798      343.492       89.789        0.068      349.452       29.887      863.558
07/09/2013  18:12:00     -159.152      -51.786       14.510      159.611      117.103       70.285    25475.781    13713.106     4939.967        3.617        2.206      167.366       86.007        0.264      349.650       30.232      863.586
07/09/2013  18:13:00     -466.648      -83.104      -26.244      181.589      195.128       82.427    32974.486    38074.858     6794.151       15.158        3.892      473.990       72.993        0.024      349.419       29.830      863.591
07/09/2013  18:14:00     -373.896     -253.786      -10.608      212.346      135.890       77.964    45090.699    18466.101     6078.412       13.696        3.482      451.891       91.089        0.041      349.370       29.745      863.606
07/09/2013  18:15:00     -359.514     -163.845       -4.243      190.534      196.436       89.293    36303.335    38587.031     7973.264       11.947        4.143      395.089       89.154        0.051      349.391       29.780      863.621
07/09/2013  18:16:00     -371.946     -173.457      -10.537      145.786      191.676       81.928    21253.479    36739.868     6712.206       11.661        3.235      410.403       72.857        0.032      349.292       29.610      863.631
07/09/2013  18:17:00     -510.615     -239.506       -5.669      314.369      192.197      116.417    98827.569    36939.772    13552.915       23.369        7.466      563.995      151.546        0.072      349.164       29.387      863.613
07/09/2013  18:18:00     -175.245     -149.185       22.255      202.236      121.844       86.841    40899.477    14845.900     7541.393        5.836        3.164      230.146       95.282        0.171      349.330       29.676      863.661
07/09/2013  18:19:00     -383.983     -125.281      -19.748      173.659      148.836       71.177    30157.448    22152.214     5066.217       11.044        2.869      403.904       81.514        0.041      349.294       29.612      863.661
07/09/2013  18:20:00     -376.159      -83.971      -14.806      193.185      171.859       86.826    37320.565    29535.518     7538.690       11.157        3.720      385.418       62.437        0.026      349.373       29.749      863.653
07/09/2013  18:21:00     -445.591     -167.317       -1.200      208.864      155.229       88.378    43624.169    24096.081     7810.642       15.102        3.777      475.968      111.131        0.055      349.258       29.550      863.659
07/09/2013  18:22:00     -491.241        1.351      -39.728      211.981      157.869       87.241    44935.957    24922.658     7611.027       16.017        3.873      491.243       98.292        0.040      349.303       29.629      863.630
07/09/2013  18:23:00     -234.620     -157.370       -3.626      149.016      167.071       79.213    22205.761    27912.574     6274.764        6.810        2.820      282.510       76.010        0.072      349.386       29.772      863.664
07/09/2013  18:24:00     -299.190     -159.858        0.021      210.877      121.641       84.856    44469.132    14796.485     7200.548        9.075        3.323      339.219      102.033        0.090      349.273       29.577      863.682
07/09/2013  18:25:00     -126.686      -26.202       27.855      171.602      146.184      115.495    29447.190    21369.803    13339.014        4.082        3.208      129.367      108.701        0.706      349.315       29.650      863.662
07/09/2013  18:26:00     -256.610      -64.026        6.725      144.396      145.392       71.538    20850.276    21138.864     5117.624        5.854        2.355      264.477       71.124        0.072      349.310       29.642      863.661
07/09/2013  18:27:00     -310.082      -53.581        0.049      158.606      191.692       88.233    25155.785    36745.948     7785.071        8.434        3.484      314.677       89.522        0.081      349.378       29.758      863.658
07/09/2013  18:28:00     -270.735        9.971       -4.743      182.993      124.833       79.025    33486.543    15583.181     6244.949        6.436        2.766      270.919       94.284        0.121      349.401       29.799      863.662
07/09/2013  18:29:00     -230.769      -31.118        1.381      218.482      213.562       74.766    47734.176    45608.827     5589.960        7.656        4.947      232.858       83.024        0.127      349.330       29.677      863.649
07/09/2013  18:30:00     -477.999     -115.357      -11.404      224.391      181.277       86.738    50351.320    32861.201     7523.515       16.631        4.537      491.722       84.646        0.030      349.241       29.520      863.650
07/09/2013  18:31:00     -459.004      -90.921       -2.837      191.725      183.128       90.216    36758.364    33535.949     8138.927       14.868        3.922      467.922       94.272        0.041      349.205       29.459      863.623
07/09/2013  18:32:00     -423.432     -104.830       -8.953      171.784      157.337       78.759    29509.706    24754.994     6203.030       12.540        3.023      436.215       81.663        0.035      349.256       29.548      863.641
07/09/2013  18:33:00     -367.910      -25.534      -13.327      176.236      134.640       71.746    31059.237    18127.855     5147.504        9.525        2.717      368.795       59.370        0.026      349.313       29.645      863.636
07/09/2013  18:34:00     -447.182     -100.579      -28.704      174.280      165.256       83.772    30373.354    27309.621     7017.800       13.779        3.235      458.354       79.289        0.030      349.196       29.442      863.628
07/09/2013  18:35:00     -388.928        2.635      -23.186      214.747      131.030       85.758    46116.222    17168.746     7354.392       11.121        3.532      388.937       98.926        0.065      349.294       29.612      863.635
07/09/2013  18:36:00     -532.266     -114.334      -20.454      204.607      200.296       92.138    41864.216    40118.292     8489.357       19.362        4.524      544.407      104.814        0.037      349.244       29.526      863.626
07/09/2013  18:37:00     -349.116      -71.616      -18.473      305.339      135.447       95.113    93232.110    18345.764     9046.454       12.396        6.031      356.386      101.644        0.081      349.283       29.596      863.620
07/09/2013  18:38:00     -171.283     -120.099       10.996      176.987      136.002       87.407    31324.505    18496.471     7640.042        5.066        2.873      209.193       91.066        0.190      349.365       29.736      863.651
07/09/2013  18:39:00     -161.080      -29.526      -13.980      117.682       77.886       46.309    13849.135     6066.241     2144.566        2.453        1.103      163.763       31.674        0.037      349.477       29.932      863.674
07/09/2013  18:40:00     -285.757      -76.907        7.918      163.314       98.428       67.993    26671.316     9688.098     4622.981        6.430        2.049      295.925       79.826        0.073      349.368       29.743      863.665
07/09/2013  18:41:00     -480.200      -96.827      -15.185      224.368      136.027       77.598    50340.897    18503.314     6021.515       15.752        3.743      489.865       89.159        0.033      349.222       29.489      863.648
07/09/2013  18:42:00     -489.369      -54.280      -19.626      232.171      191.588       94.810    53903.388    36706.145     8988.963       17.119        4.980      492.370      106.846        0.047      349.201       29.451      863.633
07/09/2013  18:43:00     -552.584     -100.244       -9.324      272.654      174.768      110.210    74340.244    30543.969    12146.322       21.623        5.852      561.603      123.932        0.049      349.143       29.352      863.626
07/09/2013  18:44:00     -335.294     -146.640        0.371      189.550      137.117       70.006    35929.325    18801.163     4900.838        9.677        2.982      365.958       78.507        0.046      349.243       29.525      863.671
07/09/2013  18:45:00     -555.884     -137.897       -5.545      182.554      149.200       89.618    33326.136    22260.605     8031.468       19.582        3.181      572.732       92.506        0.026      349.152       29.366      863.686
07/09/2013  18:46:00     -343.173     -206.766      -13.126      180.817      110.669       78.438    32694.963    12247.694     6152.479       10.588        2.555      400.649       83.583        0.044      349.130       29.328      863.679
07/09/2013  18:47:00     -487.875       41.236      -28.076      242.338      162.741       98.860    58727.872    26484.762     9773.359       16.773        4.749      489.614      102.003        0.043      349.148       29.361      863.701
07/09/2013  18:48:00     -339.596      -78.108       10.276      198.024      171.588       83.715    39213.488    29442.272     7008.255        9.858        3.783      348.463       95.203        0.075      349.198       29.447      863.683
07/09/2013  18:49:00     -336.544      -73.599       -9.239      230.973      132.808       72.749    53348.380    17637.913     5292.469        9.751        3.814      344.498       82.820        0.058      349.193       29.438      863.694
07/09/2013  18:50:00     -399.268     -142.812       -4.031      195.262      191.468       77.012    38127.269    36660.175     5930.912       13.026        4.036      424.040       77.406        0.033      349.151       29.365      863.669
07/09/2013  18:51:00     -195.335      -39.856       25.223      173.585      172.783       93.309    30131.596    29853.993     8706.571        5.452        3.435      199.360       97.543        0.239      349.138       29.343      863.678
07/09/2013  18:52:00     -434.929     -108.889      -29.778      257.403      181.897       85.846    66256.076    33086.529     7369.495       15.429        5.336      448.353       98.944        0.049      349.146       29.356      863.677
07/09/2013  18:53:00     -373.873      -81.488      -10.817      167.927      110.659       77.416    28199.491    12245.505     5993.225        9.648        2.322      382.650       73.375        0.037      349.109       29.291      863.659
07/09/2013  18:54:00     -291.874      -65.555       -0.750      194.862      121.024       66.922    37971.261    14646.730     4478.523        7.328        2.855      299.145       83.628        0.078      349.167       29.393      863.640
07/09/2013  18:55:00     -344.451     -141.032        9.264      216.403      185.730       93.513    46830.177    34495.453     8744.767       11.433        4.504      372.205      101.823        0.075      349.107       29.289      863.640
07/09/2013  18:56:00     -288.952      -71.588       18.301      201.088      154.060       86.925    40436.416    23734.484     7555.933        8.033        3.586      297.688       99.603        0.112      349.133       29.334      863.667
07/09/2013  18:57:00     -266.203     -287.513        0.534      203.548      144.564       87.346    41431.899    20898.815     7629.253       11.173        3.498      391.826      101.041        0.066      349.131       29.330      863.672
07/09/2013  18:58:00     -292.704      -68.137       25.900      198.279      163.164       85.697    39314.602    26622.565     7343.894        8.212        3.664      300.530      101.210        0.113      349.138       29.343      863.680
07/09/2013  18:59:00     -294.249     -145.214        7.675      191.917      175.043       79.228    36832.077    30640.131     6277.043        9.072        3.687      328.131       85.693        0.068      349.129       29.327      863.681
07/09/2013  19:00:00     -266.803     -171.302        2.443      179.595      138.619       79.017    32254.510    19215.165     6243.677        7.911        2.886      317.062       91.613        0.083      349.101       29.277      863.682
07/09/2013  19:01:00     -437.730     -220.807       -9.207      266.543      219.835      107.725    71045.150    48327.572    11604.726       18.569        6.549      490.268      113.639        0.054      349.002       29.107      863.661
07/09/2013  19:02:00     -343.759     -123.358       -8.377      181.586      144.385       78.791    32973.353    20846.932     6207.951        9.673        3.001      365.223       77.201        0.045      349.016       29.131      863.677
07/09/2013  19:03:00     -268.327     -121.686       12.286      166.603      113.600       70.198    27756.457    12904.948     4927.736        6.626        2.279      294.630       64.340        0.048      349.050       29.191      863.694
07/09/2013  19:04:00     -280.326     -156.706       -8.923      143.188      137.068       68.002    20502.946    18787.505     4624.263        7.356        2.196      321.154       68.512        0.046      349.001       29.104      863.687
07/09/2013  19:05:00     -377.124      -87.775       11.275      238.082      258.592      100.323    56682.875    66869.917    10064.670       14.181        6.681      387.204      120.548        0.097      348.940       29.000      863.687
07/09/2013  19:06:00     -401.361     -163.835        1.996      249.516      203.234      105.037    62258.041    41303.972    11032.709       15.124        5.730      433.512      113.020        0.068      348.944       29.008      863.691
07/09/2013  19:07:00     -466.922     -245.094      -14.754      270.972      249.680      110.293    73425.743    62340.112    12164.624       21.309        7.397      527.340      120.171        0.052      348.903       28.935      863.697
07/09/2013  19:08:00     -354.987     -171.275       -6.606      207.908      137.425       87.850    43225.578    18885.695     7717.668       11.260        3.491      394.145       99.933        0.064      348.917       28.960      863.712
07/09/2013  19:09:00     -300.291     -212.413        8.687      227.824      181.978      107.739    51903.629    33116.094    11607.744       11.598        4.831      367.823      133.077        0.131      348.901       28.932      863.705
07/09/2013  19:10:00     -264.166     -199.636      -15.925      209.095      134.651       79.088    43720.835    18131.007     6254.950        8.899        3.405      331.117       69.407        0.044      348.934       28.989      863.711
07/09/2013  19:11:00     -263.056     -172.039       -0.021      183.840      123.890       73.336    33797.190    15348.838     5378.129        7.665        2.726      314.318       73.574        0.055      348.926       28.976      863.706
07/09/2013  19:12:00     -255.673     -218.213       10.131      179.160      137.043       74.404    32098.199    18780.857     5536.006        8.474        2.821      336.134       88.222        0.069      348.950       29.018      863.739
07/09/2013  19:13:00     -235.034     -116.319      -10.356      121.217       83.042       61.080    14693.667     6895.995     3730.821        4.709        1.266      262.242       59.760        0.052      349.015       29.130      863.741
07/09/2013  19:14:00     -351.578     -120.548        0.599      169.388      154.314       85.705    28692.138    23812.919     7345.281        9.898        2.993      371.671       89.002        0.057      348.941       29.002      863.723
07/09/2013  19:15:00     -298.682      -64.143       -0.855      183.446      135.614       86.884    33652.430    18391.072     7548.752        7.645        2.980      305.492       92.904        0.092      348.962       29.039      863.715
07/09/2013  19:16:00     -412.591     -151.305       -5.184      179.672      182.075       86.998    32282.085    33151.141     7568.708       13.306        3.650      439.460       94.222        0.046      348.916       28.959      863.751
07/09/2013  19:17:00     -433.471     -250.971       -1.189      184.700      158.765       86.123    34113.948    25206.473     7417.122       15.880        3.337      500.883       98.142        0.038      348.877       28.889      863.721
07/09/2013  19:18:00     -275.959     -155.117        9.806      162.576      128.087       69.093    26431.020    16406.328     4773.862        7.395        2.381      316.567       75.499        0.057      348.940       29.000      863.731
07/09/2013  19:19:00     -240.447     -112.158       -5.515      186.877      119.227       82.082    34923.019    14215.102     6737.397        6.314        2.794      265.319       86.488        0.106      348.955       29.026      863.739
07/09/2013  19:20:00     -248.355     -112.481       -9.773      155.766      140.860       58.825    24263.097    19841.423     3460.354        6.099        2.378      272.639       51.419        0.036      348.930       28.981      863.734
07/09/2013  19:21:00     -354.057      -81.355       -0.694      139.426      145.320       83.330    19439.561    21117.796     6943.908        8.973        2.375      363.284       73.407        0.041      348.897       28.924      863.719
07/09/2013  19:22:00     -251.209      -96.250       11.253      175.063      153.921       73.440    30647.164    23691.722     5393.366        6.610        2.987      269.017       86.023        0.102      348.912       28.952      863.722
07/09/2013  19:23:00     -284.792      -84.743       -8.761      144.463       93.855       69.106    20869.529     8808.814     4775.674        6.140        1.723      297.133       71.160        0.057      348.930       28.982      863.724
07/09/2013  19:24:00     -268.986     -185.392       -7.501      150.155       91.091       63.279    22546.569     8297.653     4004.273        7.081        1.742      326.686       61.983        0.036      348.898       28.926      863.720
07/09/2013  19:25:00     -211.659     -135.023       -8.280      163.716      124.608       54.391    26803.035    15527.099     2958.372        5.419        2.264      251.060       77.775        0.096      348.889       28.911      863.704
07/09/2013  19:26:00     -306.549     -236.552       -1.433      204.009      167.659       88.654    41619.677    28109.400     7859.549       11.374        3.879      387.206      105.790        0.075      348.814       28.780      863.696
07/09/2013  19:27:00     -287.117     -196.870       14.813      176.634      140.497       82.730    31199.453    19739.374     6844.325        8.959        2.889      348.129       90.863        0.068      348.791       28.741      863.691
07/09/2013  19:28:00     -332.330     -219.846       -4.430      190.124      151.013       93.622    36147.182    22804.777     8765.112       11.324        3.386      398.466       99.860        0.063      348.754       28.680      863.691
07/09/2013  19:29:00     -412.438     -251.600       -8.646      242.333      151.258       96.187    58725.162    22878.952     9251.859       16.215        4.543      483.123      114.105        0.056      348.728       28.634      863.664
07/09/2013  19:30:00     -301.156     -108.147        6.053      256.110      134.375       93.303    65592.257    18056.552     8705.511        9.737        4.618      319.986      107.141        0.112      348.727       28.633      863.695
07/09/2013  19:31:00     -213.314     -163.735        1.634      206.011      181.819      104.125    42440.456    33058.317    10841.966        7.931        4.317      268.909      117.326        0.190      348.745       28.664      863.686
07/09/2013  19:32:00     -227.170     -122.860       10.625      172.190      123.829       75.016    29649.359    15333.604     5627.426        5.870        2.531      258.265       84.058        0.106      348.752       28.674      863.704
07/09/2013  19:33:00     -197.386      -42.357        3.002      168.386      119.516       79.907    28353.798    14284.023     6385.083        4.488        2.451      201.879       75.963        0.142      348.799       28.757      863.690
07/09/2013  19:34:00     -531.256     -105.219      -22.156      278.789      190.322       90.036    77723.154    36222.618     8106.472       20.790        6.103      541.575      106.908        0.039      348.682       28.553      863.677
07/09/2013  19:35:00     -441.020      -91.962       -5.907      269.471      146.614      101.047    72614.842    21495.740    10210.420       15.364        5.216      450.506      127.257        0.080      348.664       28.522      863.667
07/09/2013  19:36:00     -389.676     -168.789      -15.344      223.046      127.048       85.026    49749.410    16141.140     7229.480       12.683        3.656      424.662      100.371        0.056      348.674       28.539      863.716
07/09/2013  19:37:00     -432.576      -57.005       -8.533      246.176      191.693       94.557    60602.758    36746.234     8941.074       14.835        5.315      436.316      113.637        0.068      348.638       28.477      863.713
07/09/2013  19:38:00     -294.028      -71.645       -4.574      166.131      134.257       74.546    27599.624    18024.973     5557.054        7.138        2.559      302.631       81.766        0.073      348.673       28.536      863.702
07/09/2013  19:39:00     -315.932     -259.654      -10.108      215.695      195.308      105.815    46524.186    38145.357    11196.856       13.158        4.793      408.941      119.301        0.085      348.646       28.490      863.705
07/09/2013  19:40:00     -352.630     -161.351       -7.251      295.119      174.952       95.710    87095.019    30608.236     9160.481       13.862        6.343      387.791      120.100        0.096      348.620       28.446      863.727
07/09/2013  19:41:00     -209.964     -148.637       -1.079      171.099      125.791       85.427    29274.840    15823.408     7297.803        5.928        2.620      257.250       95.605        0.138      348.634       28.471      863.741
07/09/2013  19:42:00     -148.909     -190.041       18.753      194.187      152.235       82.596    37708.432    23175.349     6822.023        6.316        3.385      241.433      102.354        0.180      348.606       28.422      863.731
07/09/2013  19:43:00     -416.674     -241.843      -18.396      202.923      171.688       94.855    41177.861    29476.631     8997.464       15.603        3.983      481.773      100.601        0.044      348.565       28.347      863.751
07/09/2013  19:44:00     -309.068      -40.637       -2.766      195.839      146.637       86.413    38353.032    21502.545     7467.290        8.224        3.366      311.728       95.986        0.095      348.525       28.280      863.728
07/09/2013  19:45:00     -241.416     -135.168       21.227      212.699      193.288       97.148    45240.775    37360.142     9437.769        8.450        4.602      276.681      114.078        0.170      348.555       28.333      863.742
07/09/2013  19:46:00     -443.939      -69.198      -25.630      244.365      180.592      106.633    59714.013    32613.605    11370.540       15.309        5.185      449.299      124.739        0.077      348.490       28.222      863.728
07/09/2013  19:47:00     -347.911     -234.070       18.647      261.715      161.251      103.831    68494.758    26001.822    10780.810       14.071        5.264      419.322      125.009        0.089      348.518       28.268      863.738
07/09/2013  19:48:00     -527.305      -88.967      -33.348      280.128      139.218       99.615    78471.459    19381.678     9923.060       19.741        5.389      534.758      107.860        0.041      348.460       28.170      863.743
07/09/2013  19:49:00     -369.975     -254.756       -4.868      215.278      201.631      105.522    46344.469    40655.242    11134.889       14.995        4.907      449.202      114.180        0.065      348.440       28.134      863.729
07/09/2013  19:50:00     -451.645     -186.029      -16.949      250.383      199.406       94.964    62691.431    39762.724     9018.118       17.515        5.574      488.457      111.231        0.052      348.428       28.112      863.748
07/09/2013  19:51:00     -457.229      -24.006       -1.620      287.379      154.886      103.896    82586.708    23989.598    10794.453       16.348        5.869      457.859      118.024        0.066      348.427       28.113      863.743
07/09/2013  19:52:00     -332.562      -54.504       -9.633      170.780      135.658       87.722    29165.837    18403.149     7695.092        8.445        2.763      336.999       82.371        0.060      348.431       28.119      863.767
07/09/2013  19:53:00     -385.201     -121.623       -6.316      199.637      152.475       89.002    39854.766    23248.535     7921.359       11.710        3.551      403.946       93.591        0.054      348.392       28.053      863.795
07/09/2013  19:54:00     -224.355     -130.226        6.536      165.948      143.425       76.755    27538.608    20570.747     5891.401        6.066        2.700      259.410       74.346        0.082      348.376       28.023      863.808
07/09/2013  19:55:00     -491.943     -200.077      -18.327      243.724      216.124      102.992    59401.521    46709.700    10607.377       19.952        5.836      531.074      104.628        0.039      348.358       27.990      863.829
07/09/2013  19:56:00     -394.793     -220.873       -6.224      223.979      170.891       97.143    50166.439    29203.571     9436.677       14.673        4.440      452.379      102.022        0.051      348.351       27.979      863.885
07/09/2013  19:57:00     -377.582      -96.827       -9.764      213.745      212.004       96.092    45687.022    44945.724     9233.665       12.593        4.993      389.799       97.914        0.063      348.315       27.917      863.913
07/09/2013  19:58:00     -195.754      -38.576       15.554      151.614      119.236       70.115    22986.799    14217.175     4916.135        4.108        2.106      199.518       67.138        0.113      348.309       27.909      863.951
07/09/2013  19:59:00     -200.296      -78.332       25.673      164.630      156.941       84.012    27103.132    24630.438     7058.020        5.284        2.940      215.068       90.639        0.178      348.298       27.887      863.970
07/09/2013  20:00:00     -263.793     -111.319       -1.123      214.301      189.837      110.648    45924.747    36037.928    12243.059        8.807        4.710      286.320      121.940        0.181      348.267       27.835      863.987
07/09/2013  20:01:00     -222.204     -104.055       -8.556      140.464      157.130       73.575    19730.211    24689.743     5413.276        5.504        2.492      245.362       67.280        0.075      348.262       27.825      864.031
07/09/2013  20:02:00     -304.646      -19.453      -17.806      134.014      112.049       63.606    17959.694    12554.944     4045.751        6.403        1.728      305.267       64.660        0.045      348.244       27.794      864.055
07/09/2013  20:03:00     -375.768      -38.602      -24.702      114.596      137.563       63.260    13132.343    18923.458     4001.797        8.967        1.803      377.746       51.340        0.018      348.232       27.774      864.062
07/09/2013  20:04:00     -450.878      -15.606      -45.725      137.643      151.885       71.281    18945.480    23069.046     5080.936       12.635        2.355      451.148       69.958        0.024      348.204       27.727      864.079
07/09/2013  20:05:00     -332.453      -80.608       -5.943      175.107      117.169       73.634    30662.310    13728.490     5422.025        8.343        2.491      342.086       73.103        0.046      348.213       27.743      864.100
07/09/2013  20:06:00     -389.513      -62.403      -29.552      149.379       97.349       63.034    22314.092     9476.817     3973.338        9.612        1.788      394.480       68.911        0.031      348.199       27.718      864.125
07/09/2013  20:07:00     -210.944      -63.058       -7.153      122.751       96.714       52.327    15067.862     9353.649     2738.080        3.784        1.358      220.167       54.003        0.060      348.149       27.630      864.163
07/09/2013  20:08:00     -169.387       62.991      -16.040       74.532       86.800       49.993     5555.064     7534.225     2499.281        2.425        0.779      180.721       36.329        0.040      348.147       27.630      864.171
07/09/2013  20:09:00     -243.310      -45.725      -10.913      103.882      117.235       51.654    10791.372    13744.036     2668.112        4.430        1.360      247.569       31.953        0.017      348.108       27.559      864.198
07/09/2013  20:10:00     -226.553       56.124      -22.035       89.964      109.358       48.949     8093.499    11959.094     2395.986        3.870        1.122      233.401       29.995        0.017      348.106       27.555      864.201
07/09/2013  20:11:00     -299.871       78.533      -16.486      171.878      115.546       72.244    29542.072    13350.980     5219.144        7.223        2.406      309.984       89.329        0.083      348.058       27.473      864.206
07/09/2013  20:12:00     -197.568      -51.050        1.047      137.016       95.160       43.233    18773.284     9055.516     1869.086        3.566        1.485      204.057       45.312        0.049      348.086       27.523      864.230
07/09/2013  20:13:00     -100.940       19.431      -15.552       62.250       69.419       38.170     3875.070     4819.001     1456.973        1.048        0.508      102.793       27.919        0.074      348.031       27.430      864.253
07/09/2013  20:14:00     -241.837      -18.596       -5.496      105.050      113.706       47.963    11035.523    12929.124     2300.427        4.256        1.313      242.551       38.780        0.026      348.045       27.451      864.278
07/09/2013  20:15:00     -239.479      -62.988       -8.146      134.763      108.844       63.558    18161.007    11846.913     4039.569        4.771        1.702      247.624       52.174        0.044      348.045       27.452      864.284
07/09/2013  20:16:00     -158.170      -29.677      -18.352       91.369       60.154       46.706     8348.263     3618.549     2181.421        2.019        0.707      160.930       37.117        0.053      348.022       27.413      864.318
07/09/2013  20:17:00     -129.669       36.949       -9.656       89.933       71.249       43.461     8088.026     5076.458     1888.870        1.666        0.753      134.831       46.327        0.118      347.955       27.297      864.334
07/09/2013  20:18:00     -110.354       91.041      -10.538       87.975      128.993       59.381     7739.539    16639.065     3526.124        2.424        1.395      143.061       54.493        0.145      347.857       27.128      864.346
07/09/2013  20:19:00     -126.780       86.423       -3.502       80.424      103.591       48.017     6468.080    10731.112     2305.652        2.153        0.975      153.435       44.984        0.086      347.914       27.226      864.352
07/09/2013  20:20:00     -184.848      113.146      -29.077      146.215       80.644       47.684    21378.685     6503.484     2273.806        3.898        1.508      216.728       55.973        0.067      347.930       27.254      864.358
07/09/2013  20:21:00     -122.223       53.383      -12.134       79.432       81.070       39.076     6309.369     6572.275     1526.967        1.617        0.720      133.372       40.246        0.091      347.922       27.239      864.362
07/09/2013  20:22:00     -179.303       57.542      -36.207       72.550       66.603       29.515     5263.473     4435.975      871.139        2.367        0.529      188.310       30.572        0.026      347.952       27.293      864.365
07/09/2013  20:23:00      -54.180       52.035        2.607       64.837       57.465       39.919     4203.782     3302.263     1593.504        0.737        0.455       75.121       43.412        0.334      347.879       27.167      864.372
07/09/2013  20:24:00     -233.425       96.538      -29.616      168.110       76.409       53.645    28260.958     5838.357     2877.738        5.082        1.849      252.600       59.897        0.056      347.903       27.209      864.373
07/09/2013  20:25:00     -159.201      123.581      -25.607       75.836       92.081       39.659     5751.134     8478.853     1572.814        2.853        0.790      201.538       26.785        0.018      347.900       27.201      864.392
07/09/2013  20:26:00     -183.772      172.559      -19.636       98.093      139.644       60.200     9622.174    19500.332     3624.038        4.833        1.637      252.089       56.565        0.050      347.880       27.166      864.393
07/09/2013  20:27:00     -165.900      163.925      -33.396       74.285       90.179       47.869     5518.219     8132.292     2291.478        3.572        0.797      233.226       48.852        0.044      347.906       27.211      864.419
07/09/2013  20:28:00      -23.842      102.107        0.819       41.119       67.634       32.894     1690.740     4574.303     1082.045        0.917        0.367      104.853       29.363        0.078      347.785       27.005      864.414
07/09/2013  20:29:00      -79.061       96.287       -3.000       64.414      100.128       47.715     4149.109    10025.535     2276.752        1.599        0.823      124.587       42.599        0.117      347.807       27.042      864.393
07/09/2013  20:30:00     -199.549      195.897      -38.279      112.286       93.759       56.520    12608.062     8790.661     3194.544        5.212        1.230      279.634       70.870        0.064      347.803       27.033      864.400
07/09/2013  20:31:00     -123.869      160.806      -30.685       58.354       78.192       51.523     3405.141     6113.926     2654.632        2.716        0.609      202.983       40.993        0.041      347.771       26.979      864.406
07/09/2013  20:32:00     -138.634      239.476      -31.749       59.125       88.968       42.818     3495.801     7915.297     1833.382        4.541        0.662      276.709       35.077        0.016      347.760       26.957      864.410
07/09/2013  20:33:00     -154.818      170.823      -27.404       68.449       85.336       40.465     4685.333     7282.208     1637.379        3.375        0.680      230.541       43.597        0.036      347.723       26.896      864.384
07/09/2013  20:34:00     -121.759      197.601      -26.221      114.389      144.499       64.411    13084.906    20879.969     4148.821        4.633        1.906      232.102       76.003        0.107      347.705       26.864      864.387
07/09/2013  20:35:00     -117.622      103.261      -17.097      107.745      119.652       55.629    11608.943    14316.505     3094.628        2.690        1.451      156.518       61.225        0.153      347.649       26.770      864.383
07/09/2013  20:36:00     -256.080      287.502      -48.718      123.780      139.109       72.105    15321.509    19351.370     5199.084        9.523        1.994      385.012       73.726        0.037      347.659       26.784      864.429
07/09/2013  20:37:00     -179.964      340.922      -42.565       94.331      108.924       51.942     8898.392    11864.360     2697.984        8.694        1.173      385.506       53.941        0.020      347.675       26.813      864.430
07/09/2013  20:38:00     -230.731      154.149      -43.033       95.229      105.985       52.921     9068.544    11232.885     2800.591        5.097        1.155      277.486       50.655        0.033      347.702       26.859      864.436
07/09/2013  20:39:00      -96.743       78.897      -19.368       54.207       79.015       35.966     2938.352     6243.389     1293.534        1.322        0.524      124.836       30.719        0.061      347.623       26.725      864.446
07/09/2013  20:40:00     -196.497       55.699      -38.681       96.935      126.524       55.345     9396.311    16008.365     3063.055        3.583        1.423      204.239       51.743        0.064      347.651       26.772      864.479
07/09/2013  20:41:00     -211.261      109.082      -41.021       96.595      163.619       60.439     9330.582    26771.244     3652.911        4.898        1.988      237.761       37.464        0.025      347.662       26.791      864.477
07/09/2013  20:42:00     -122.976      141.913      -19.936      114.658       96.733       67.537    13146.520     9357.351     4561.266        3.136        1.353      187.783       62.996        0.113      347.545       26.590      864.520
07/09/2013  20:43:00     -182.899      114.526       -0.823      145.237      109.647       66.047    21093.736    12022.382     4362.266        4.202        1.874      215.796       71.260        0.109      347.526       26.557      864.545
07/09/2013  20:44:00     -362.637      186.972      -39.205      208.530      136.292       79.605    43484.899    18575.511     6336.981       11.819        3.420      408.000       99.250        0.059      347.582       26.652      864.555
07/09/2013  20:45:00     -230.294      -86.178       -2.664      177.667       92.527       67.584    31565.681     8561.295     4567.643        5.257        2.235      245.890       77.794        0.100      347.566       26.625      864.533
07/09/2013  20:46:00     -348.064       15.209      -43.475      110.519       88.680       53.742    12214.550     7864.120     2888.249        7.311        1.148      348.396       50.687        0.021      347.545       26.590      864.548
07/09/2013  20:47:00     -178.072      -38.737      -23.820       73.837      119.449       42.015     5451.857    14268.129     1765.251        2.763        1.074      182.237       17.366        0.009      347.508       26.526      864.556
07/09/2013  20:48:00     -217.984       49.080      -39.093       92.795      118.097       55.149     8610.831    13946.868     3041.421        3.852        1.280      223.441       35.218        0.025      347.489       26.491      864.528
07/09/2013  20:49:00     -206.660       41.858      -28.515       79.979       67.602       41.368     6396.663     4570.091     1711.347        2.897        0.634      210.857       31.687        0.023      347.447       26.419      864.528
07/09/2013  20:50:00     -234.490      165.532      -36.871      111.409       93.692       56.144    12411.871     8778.254     3152.094        5.404        1.217      287.030       48.843        0.029      347.483       26.481      864.531
07/09/2013  20:51:00      -64.497       -5.126       10.606       67.774       50.710       41.590     4593.336     2571.471     1729.754        0.659        0.445       64.701       32.749        0.256      347.479       26.477      864.496
07/09/2013  20:52:00     -161.812       39.832        7.455      128.114      113.088       73.396    16413.128    12788.820     5386.941        3.120        1.729      166.642       82.121        0.243      347.425       26.383      864.474
07/09/2013  20:53:00     -201.662      136.186      -34.809      109.752      105.994       58.425    12045.610    11234.734     3413.517        4.355        1.335      243.340       62.323        0.066      347.465       26.451      864.518
07/09/2013  20:54:00     -124.341       59.464       -9.005       54.941      122.618       40.668     3018.556    15035.100     1653.883        1.939        0.985      137.829       41.303        0.090      347.426       26.387      864.497
07/09/2013  20:55:00     -108.389       65.071      -24.450       61.815       58.335       42.179     3821.078     3402.957     1779.032        1.279        0.450      126.422       30.648        0.059      347.424       26.383      864.490
07/09/2013  20:56:00     -121.876      108.147      -16.734       77.252       94.571       46.568     5967.921     8943.661     2168.537        2.195        0.854      162.940       47.466        0.085      347.466       26.453      864.485
07/09/2013  20:57:00     -160.886      167.838      -28.800      104.040       95.077       55.043    10824.377     9039.574     3029.764        3.888        1.145      232.494       60.790        0.068      347.494       26.500      864.492
07/09/2013  20:58:00      -78.653        3.668      -23.303       90.442       92.056       47.605     8179.803     8474.238     2266.266        1.283        0.946       78.738       36.855        0.219      347.503       26.519      864.501
07/09/2013  20:59:00     -162.777      -24.614      -23.076       89.961      105.413       43.150     8092.921    11111.904     1861.962        2.435        1.053      164.628       31.149        0.036      347.526       26.557      864.527
07/09/2013  21:00:00     -229.396      -87.865      -15.440      107.774       91.320       59.146    11615.152     8339.425     3498.229        4.201        1.173      245.648       54.847        0.050      347.514       26.536      864.541
07/09/2013  21:01:00     -325.836      -45.121      -19.513      105.395      113.445       59.812    11108.052    12869.764     3577.459        6.807        1.378      328.946       38.637        0.014      347.456       26.433      864.553
07/09/2013  21:02:00     -228.596      -69.755       -8.934       84.192       95.154       51.663     7088.251     9054.249     2669.029        3.800        0.941      239.002       36.716        0.024      347.425       26.380      864.528
07/09/2013  21:03:00     -208.629       10.518      -21.506       95.190      120.817       52.054     9061.128    14596.817     2709.642        3.523        1.318      208.894       45.389        0.047      347.394       26.328      864.567
07/09/2013  21:04:00     -252.199      -78.410       -7.511      105.504       80.684       47.688    11131.056     6509.930     2274.128        4.486        0.996      264.107       37.377        0.020      347.378       26.299      864.575
07/09/2013  21:05:00     -248.713      -70.712      -19.902      130.939       92.490       53.951    17144.912     8554.373     2910.663        4.793        1.430      258.570       55.872        0.047      347.369       26.284      864.603
07/09/2013  21:06:00     -297.463      -83.503      -16.732      108.578       80.753       51.875    11789.156     6521.029     2690.995        5.836        1.050      308.961       44.917        0.021      347.239       26.061      864.609
07/09/2013  21:07:00     -147.639      -24.381        7.839      128.859       95.177       51.517    16604.724     9058.582     2653.991        2.538        1.416      149.638       64.038        0.183      347.183       25.966      864.613
07/09/2013  21:08:00     -165.706      -39.332        5.363      129.556      111.118       51.913    16784.770    12347.246     2694.936        3.042        1.591      170.310       40.236        0.056      347.173       25.948      864.621
07/09/2013  21:09:00     -278.853      -35.633       -4.348       94.121      114.695       43.712     8858.686    13154.865     1910.773        5.148        1.196      281.120       33.776        0.014      347.184       25.966      864.611
07/09/2013  21:10:00     -292.739      -22.424      -23.433      107.016       82.522       50.812    11452.448     6809.892     2581.829        5.379        1.042      293.597       54.154        0.034      347.115       25.848      864.612
07/09/2013  21:11:00     -208.757      -42.574       -0.254      122.329       78.347       46.287    14964.372     6138.271     2142.448        3.431        1.162      213.055       46.983        0.049      347.100       25.822      864.613
07/09/2013  21:12:00     -301.126      -55.011      -13.440       98.986      116.116       54.961     9798.264    13482.836     3020.746        6.009        1.315      306.110       48.586        0.025      347.096       25.813      864.606
07/09/2013  21:13:00     -347.712      -83.303      -16.038       83.646       84.579       54.355     6996.613     7153.551     2954.460        7.260        0.855      357.551       49.295        0.019      346.986       25.625      864.617
07/09/2013  21:14:00     -327.580      -56.449       -3.382      139.936       76.871       62.316    19582.220     5909.098     3883.301        6.993        1.469      332.408       74.718        0.051      347.011       25.668      864.612
07/09/2013  21:15:00     -307.346      -16.683      -16.505      119.974       72.779       56.175    14393.662     5296.849     3155.687        5.892        1.142      307.798       57.361        0.035      347.029       25.699      864.622
07/09/2013  21:16:00     -292.704      -62.519       -3.140      116.549       75.058       50.415    13583.614     5633.714     2541.720        5.567        1.088      299.306       55.985        0.035      347.046       25.727      864.610
07/09/2013  21:17:00     -296.822      -65.103      -10.834      119.380       91.821       60.260    14251.546     8431.146     3631.302        5.938        1.316      303.878       63.031        0.043      347.098       25.817      864.611
07/09/2013  21:18:00     -208.472     -120.436        3.512      145.803      107.188       57.879    21258.501    11489.206     3349.954        4.703        1.805      240.760       72.076        0.090      347.100       25.820      864.597
07/09/2013  21:19:00     -153.064      -92.977        0.822      103.251       70.742       45.749    10660.795     5004.497     2092.997        2.491        0.888      179.090       48.018        0.072      347.120       25.858      864.584
07/09/2013  21:20:00     -222.304      -53.259        3.883      133.267       84.641       55.168    17760.067     7164.101     3043.536        4.011        1.398      228.595       59.902        0.069      347.103       25.828      864.609
07/09/2013  21:21:00     -212.059     -109.858       -0.270      118.713      102.340       54.366    14092.769    10473.375     2955.653        4.227        1.376      238.826       64.412        0.073      347.108       25.835      864.611
07/09/2013  21:22:00     -162.468      -91.527        0.561      117.582       69.607       50.312    13825.427     4845.143     2531.260        2.798        1.060      186.475       57.020        0.093      347.094       25.812      864.596
07/09/2013  21:23:00     -149.305      -31.661        3.505       83.735       64.850       40.642     7011.563     4205.500     1651.750        1.809        0.643      152.626       37.348        0.060      346.996       25.644      864.620
07/09/2013  21:24:00     -180.727      -37.463       13.729      122.119       69.548       49.817    14913.085     4836.993     2481.720        2.824        1.112      184.569       56.641        0.094      347.004       25.656      864.651
07/09/2013  21:25:00     -127.783      -21.361        4.890       72.363       66.476       36.632     5236.370     4419.052     1341.939        1.390        0.550      129.556       39.020        0.091      346.988       25.630      864.690
07/09/2013  21:26:00      -41.907      -13.119       17.660       59.201       38.382       34.114     3504.742     1473.186     1163.765        0.419        0.307       43.913       34.788        0.628      346.920       25.514      864.709
07/09/2013  21:27:00      -59.197      -65.714       -4.659       61.990       79.625       35.155     3842.811     6340.159     1235.845        0.963        0.571       88.445       33.454        0.143      347.022       25.691      864.727
07/09/2013  21:28:00     -232.318      -36.769       -6.702      109.986       85.886       46.114    12096.889     7376.339     2126.475        3.848        1.080      235.210       48.958        0.043      347.043       25.724      864.733
07/09/2013  21:29:00     -286.015      -75.923      -17.752       95.750       84.633       42.732     9168.024     7162.757     1826.026        5.302        0.908      295.920       38.156        0.017      347.035       25.706      864.758
07/09/2013  21:30:00     -228.592      -55.967      -11.441      107.268       86.119       49.769    11506.476     7416.464     2476.924        3.845        1.070      235.344       46.695        0.039      347.078       25.785      864.780
07/09/2013  21:31:00     -230.801      -28.893        0.774       89.502       59.415       48.661     8010.688     3530.114     2367.855        3.400        0.695      232.602       50.776        0.048      346.993       25.637      864.816
07/09/2013  21:32:00     -159.022      -50.137      -11.339       76.228       56.318       30.543     5810.667     3171.689      932.888        1.892        0.496      166.739       31.842        0.036      346.999       25.648      864.877
07/09/2013  21:33:00     -123.199      -36.332        0.662       63.012       62.546       39.454     3970.513     3911.944     1556.613        1.297        0.472      128.445       37.384        0.085      346.996       25.644      864.910
07/09/2013  21:34:00     -195.741       24.853      -11.304       79.690       54.575       36.158     6350.427     2978.459     1307.410        2.485        0.532      197.312       33.540        0.029      347.009       25.665      864.926
07/09/2013  21:35:00     -148.886      -16.778      -21.054       84.378       47.683       31.700     7119.713     2273.670     1004.868        1.664        0.520      149.829       42.850        0.082      347.058       25.751      864.936
07/09/2013  21:36:00     -187.623      -20.712       -2.890      172.160       65.997       46.404    29639.109     4355.631     2153.319        3.589        1.807      188.762       63.502        0.113      346.983       25.620      864.940
07/09/2013  21:37:00      -71.311       -5.613        6.724       81.385       42.453       37.238     6623.475     1802.216     1386.696        0.749        0.491       71.531       36.028        0.254      346.926       25.522      864.953
07/09/2013  21:38:00     -269.363       40.122      -34.003       61.624       93.468       39.271     3797.567     8736.188     1542.193        4.470        0.704      272.334       38.106        0.020      347.036       25.710      864.962
07/09/2013  21:39:00     -175.446       25.269      -22.337       45.300       49.648       26.870     2052.060     2464.964      722.012        1.858        0.262      177.257       27.901        0.025      346.983       25.623      865.011
07/09/2013  21:40:00     -107.887      -21.211       -8.286       58.740       46.288       23.469     3450.405     2142.619      550.786        0.915        0.307      109.952       26.106        0.056      346.943       25.554      865.039
07/09/2013  21:41:00      -45.074      -22.106        3.526       68.448       55.872       29.100     4685.095     3121.682      846.786        0.559        0.433       50.203       29.352        0.342      346.857       25.406      865.055
07/09/2013  21:42:00     -113.250      -35.237        3.891       64.949       50.230       34.834     4218.419     2523.009     1213.420        1.102        0.398      118.605       34.493        0.085      346.912       25.501      865.082
07/09/2013  21:43:00     -188.294      -49.494       -6.319       75.520       53.693       34.661     5703.208     2882.952     1201.387        2.386        0.489      194.690       36.979        0.036      346.866       25.420      865.100
07/09/2013  21:44:00     -130.641      -30.794       -5.335       52.151       31.091       24.334     2719.675      966.643      592.120        1.116        0.214      134.221       25.746        0.037      346.893       25.468      865.096
07/09/2013  21:45:00      -45.380      -19.559       -7.215       47.049       27.754       20.876     2213.633      770.286      435.802        0.296        0.171       49.415       18.871        0.146      346.809       25.324      865.098
07/09/2013  21:46:00      -78.685        7.723       -9.445       96.071       31.573       24.591     9229.569      996.879      604.700        0.858        0.542       79.064       35.016        0.196      346.831       25.361      865.097
07/09/2013  21:47:00     -120.589      -13.186      -11.404       66.352       41.668       32.845     4402.620     1736.224     1078.768        1.103        0.361      121.308       38.843        0.103      346.697       25.132      865.099
07/09/2013  21:48:00     -180.196       72.720       -6.258      106.996       75.586       50.033    11448.089     5713.188     2503.298        2.873        0.983      194.316       52.812        0.074      346.794       25.296      865.091
07/09/2013  21:49:00     -266.330       39.789      -32.449       98.097      115.169       49.399     9623.041    13263.947     2440.260        4.944        1.266      269.286       43.232        0.026      346.822       25.341      865.055
07/09/2013  21:50:00     -175.980      -45.985      -14.104       72.413       64.427       38.379     5243.612     4150.856     1472.973        2.207        0.543      181.889       27.338        0.023      346.760       25.236      865.060
07/09/2013  21:51:00     -259.827      -47.958      -25.855       95.672       96.753       38.909     9153.193     9361.140     1513.940        4.525        1.001      264.216       32.308        0.015      346.849       25.388      865.082
07/09/2013  21:52:00     -216.638      -21.836       -2.627      161.924      105.892       69.568    26219.513    11213.161     4839.743        4.484        2.114      217.736       70.160        0.104      346.757       25.231      865.072
07/09/2013  21:53:00     -174.969      -13.936      -18.659       77.366       66.647       41.120     5985.467     4441.802     1690.867        2.163        0.606      175.523       32.225        0.034      346.734       25.191      865.097
07/09/2013  21:54:00     -186.432      -28.918       -8.719       89.022       91.759       37.933     7924.857     8419.732     1438.916        2.672        0.889      188.662       31.108        0.027      346.689       25.114      865.105
07/09/2013  21:55:00     -226.908       20.299      -23.349      105.246       78.991       41.298    11076.740     6239.564     1705.553        3.573        0.951      227.814       44.804        0.039      346.732       25.187      865.112
07/09/2013  21:56:00     -223.187      -47.757       -8.578      159.134       86.965       59.900    25323.700     7562.865     3587.953        4.431        1.824      228.239       76.903        0.114      346.791       25.290      865.098
07/09/2013  21:57:00     -330.626     -114.267      -13.873      115.934      102.281       61.117    13440.782    10461.407     3735.320        7.509        1.382      349.815       61.573        0.031      346.763       25.241      865.109
07/09/2013  21:58:00     -257.186      -76.237       -5.297      101.872      107.204       54.515    10377.806    11492.664     2971.878        4.841        1.242      268.248       55.477        0.043      346.707       25.143      865.139
07/09/2013  21:59:00     -258.338      -79.052      -18.172       84.090       64.302       38.643     7071.211     4134.807     1493.308        4.301        0.635      270.163       36.004        0.018      346.700       25.132      865.157
07/09/2013  22:00:00     -223.504      -55.847       -8.057       92.061       79.712       40.827     8475.136     6354.037     1666.833        3.481        0.825      230.376       36.539        0.025      346.645       25.039      865.169
07/09/2013  22:01:00     -171.173        0.948      -14.008       46.166       41.681       23.113     2131.333     1737.288      534.191        1.695        0.220      171.175       15.815        0.009      346.610       24.981      865.177
07/09/2013  22:02:00     -236.950      -29.437      -20.631       97.428       64.267       39.303     9492.213     4130.268     1544.756        3.630        0.758      238.771       48.822        0.042      346.614       24.986      865.156
07/09/2013  22:03:00     -200.421       -9.156      -26.384       72.960       79.923       40.101     5323.155     6387.745     1608.109        2.713        0.666      200.630       33.477        0.028      346.597       24.956      865.152
07/09/2013  22:04:00      -65.133       30.036        4.651       51.161       73.067       30.616     2617.469     5338.813      937.356        0.703        0.445       71.725       24.326        0.115      346.511       24.812      865.151
07/09/2013  22:05:00     -169.355       31.990      -17.635       66.944       80.916       50.863     4481.494     6547.446     2587.078        2.181        0.681      172.350       32.464        0.035      346.612       24.983      865.148
07/09/2013  22:06:00     -159.072      -55.033      -11.372       70.315       57.783       28.465     4944.261     3338.900      810.260        1.878        0.455      168.323       16.985        0.010      346.576       24.921      865.177
07/09/2013  22:07:00     -369.185      -11.605      -38.316      101.925       71.211       48.919    10388.733     5070.947     2393.082        7.787        0.893      369.367       45.214        0.015      346.571       24.912      865.196
07/09/2013  22:08:00     -197.439      -22.187       -9.367       83.661       68.959       34.352     6999.082     4755.284     1180.032        2.625        0.647      198.682       40.590        0.042      346.603       24.967      865.206
07/09/2013  22:09:00     -340.773      -42.759      -23.469      134.339       72.847       54.836    18046.836     5306.635     3007.032        7.243        1.318      343.445       50.049        0.021      346.595       24.951      865.199
07/09/2013  22:10:00     -273.633       26.029      -10.853       89.223      117.004       49.431     7960.803    13689.861     2443.381        4.988        1.205      274.868       33.327        0.015      346.554       24.882      865.185
07/09/2013  22:11:00     -243.080       -8.981       -3.840      108.125       86.193       52.311    11690.990     7429.160     2736.478        4.052        1.093      243.246       51.965        0.046      346.502       24.793      865.193
07/09/2013  22:12:00     -263.451      -33.860      -25.014      117.701       64.751       51.770    13853.506     4192.629     2680.083        4.595        1.036      265.618       60.765        0.052      346.507       24.802      865.181
07/09/2013  22:13:00     -309.615       30.952      -13.712       96.177       92.314       40.590     9250.001     8521.966     1647.536        5.821        0.971      311.158       38.227        0.015      346.506       24.801      865.177
07/09/2013  22:14:00     -282.409      -88.828       -5.728       81.235       81.713       44.697     6599.056     6677.060     1997.817        5.147        0.764      296.049       37.430        0.016      346.472       24.740      865.166
07/09/2013  22:15:00     -302.978      -84.673       -5.487      196.716      103.141       65.736    38697.273    10638.077     4321.157        7.632        2.683      314.587       80.676        0.066      346.476       24.748      865.146
07/09/2013  22:16:00     -225.908      -80.338       -4.004      138.485       95.741       51.520    19178.127     9166.333     2654.278        4.425        1.550      239.767       66.354        0.077      346.518       24.821      865.135
07/09/2013  22:17:00     -235.895     -114.327       -0.938       90.048       74.800       54.364     8108.566     5595.100     2955.420        4.269        0.833      262.139       45.998        0.031      346.442       24.689      865.132
07/09/2013  22:18:00     -206.360      -57.831      -13.270       83.509       67.472       37.303     6973.769     4552.525     1391.519        2.951        0.646      214.310       34.356        0.026      346.428       24.667      865.127
07/09/2013  22:19:00     -200.877      -46.841      -10.231       92.713       79.435       44.466     8595.613     6309.934     1977.249        2.976        0.844      206.266       46.230        0.050      346.424       24.659      865.127
07/09/2013  22:20:00     -395.610      -22.039      -40.470      103.301      116.538       46.497    10671.009    13581.168     2161.960        9.252        1.321      396.223       42.950        0.012      346.471       24.738      865.134
07/09/2013  22:21:00     -266.180      -26.170      -12.834       93.992       84.780       44.609     8834.426     7187.682     1989.976        4.485        0.901      267.463       43.676        0.027      346.454       24.709      865.139
07/09/2013  22:22:00     -317.926      -59.716        4.032      133.469      110.255       68.539    17814.064    12156.057     4697.534        6.966        1.733      323.486       67.507        0.044      346.435       24.679      865.129
07/09/2013  22:23:00     -150.874      -53.628        4.465      104.145       99.378       53.825    10846.186     9876.083     2897.082        2.463        1.181      160.121       53.455        0.111      346.421       24.653      865.123
07/09/2013  22:24:00     -258.923        2.808      -12.882      103.692       94.016       60.449    10751.943     8838.930     3654.124        4.523        1.162      258.939       55.964        0.047      346.434       24.674      865.117
07/09/2013  22:25:00     -336.151      -59.995      -30.010      125.699      123.173       56.792    15800.140    15171.575     3225.380        7.584        1.710      341.463       57.630        0.028      346.476       24.747      865.117
07/09/2013  22:26:00     -293.678     -100.296      -13.361      145.204      101.591       56.502    21084.297    10320.714     3192.494        6.553        1.730      310.332       49.899        0.026      346.474       24.745      865.127
07/09/2013  22:27:00     -237.555      -75.152       -0.227      116.961       92.345       51.444    13679.769     8527.513     2646.463        4.346        1.243      249.159       58.572        0.055      346.381       24.583      865.146
07/09/2013  22:28:00     -341.092     -113.128      -22.608      158.445      120.580       60.545    25104.957    14539.640     3665.669        8.647        2.166      359.363       72.853        0.041      346.422       24.655      865.158
07/09/2013  22:29:00     -304.530      -81.127      -19.913      145.177      108.796       64.446    21076.461    11836.621     4153.348        6.838        1.853      315.150       71.184        0.051      346.424       24.657      865.156
07/09/2013  22:30:00     -353.996       24.183      -22.560      118.571      143.177       66.778    14059.071    20499.621     4459.318        8.270        1.951      354.821       64.169        0.033      346.454       24.710      865.160
07/09/2013  22:31:00     -351.910      -43.481      -10.792      123.724      105.083       66.244    15307.633    11042.377     4388.245        7.829        1.537      354.586       67.297        0.036      346.444       24.692      865.145
07/09/2013  22:32:00     -248.548      -14.967       -7.511      135.181       93.730       62.926    18274.023     8785.380     3959.691        4.653        1.551      248.999       65.076        0.068      346.453       24.709      865.139
07/09/2013  22:33:00     -367.369      -92.811       -8.168      171.384      116.082       78.230    29372.536    13475.074     6119.942        9.629        2.448      378.912       93.759        0.061      346.484       24.763      865.148
07/09/2013  22:34:00     -347.473       24.380      -27.363      120.443      102.415       58.128    14506.461    10488.838     3378.847        7.522        1.419      348.327       55.094        0.025      346.489       24.771      865.174
07/09/2013  22:35:00     -377.323      -70.071       -6.371      206.300      146.204       74.975    42559.636    21375.514     5621.199       10.843        3.478      383.774       86.385        0.051      346.499       24.788      865.197
07/09/2013  22:36:00     -320.265     -136.720      -18.350      138.758      126.852       65.751    19253.646    16091.374     4323.225        8.063        1.983      348.227       61.901        0.032      346.529       24.838      865.200
07/09/2013  22:37:00     -337.312     -110.915      -14.133      128.223       99.109       55.970    16441.046     9822.681     3132.644        7.783        1.470      355.080       59.314        0.028      346.533       24.845      865.232
07/09/2013  22:38:00     -284.973        7.190       -9.742      156.001      110.513       65.999    24336.305    12213.114     4355.882        6.112        2.045      285.063       64.154        0.051      346.523       24.830      865.259
07/09/2013  22:39:00     -144.387      -37.483        1.148      123.124       81.670       55.561    15159.525     6669.957     3087.032        2.358        1.246      149.173       57.573        0.149      346.496       24.783      865.273
07/09/2013  22:40:00     -299.103       56.466      -24.501      128.259       90.628       65.912    16450.458     8213.391     4344.351        6.112        1.450      304.386       65.896        0.047      346.480       24.755      865.308
07/09/2013  22:41:00     -332.520      -20.070      -44.905      104.561       88.486       56.069    10933.045     7829.776     3143.738        6.744        1.095      333.125       48.391        0.021      346.515       24.815      865.332
07/09/2013  22:42:00     -178.974       12.676      -12.129       72.383       79.932       38.829     5239.363     6389.127     1507.681        2.274        0.657      179.422       29.346        0.027      346.457       24.717      865.344
07/09/2013  22:43:00     -291.094      -61.414      -21.049      187.460      108.321       64.590    35141.315    11733.494     4171.821        6.999        2.552      297.502       73.509        0.061      346.451       24.706      865.345
07/09/2013  22:44:00     -228.270      -73.902      -16.844      113.456       66.214       56.331    12872.302     4384.342     3173.238        3.914        1.021      239.934       47.622        0.039      346.420       24.650      865.350
07/09/2013  22:45:00     -220.761      -58.848      -12.625      109.702       98.009       48.259    12034.532     9605.704     2328.976        3.816        1.198      228.470       44.700        0.038      346.415       24.642      865.336
07/09/2013  22:46:00     -120.087        0.441       -1.988      112.137       54.572       37.852    12574.742     2978.133     1432.761        1.570        0.849      120.088       42.750        0.127      346.368       24.566      865.370
07/09/2013  22:47:00     -164.147      -24.066      -12.665      116.307       68.529       32.859    13527.275     4696.222     1079.728        2.349        0.965      165.902       42.753        0.066      346.332       24.501      865.382
07/09/2013  22:48:00     -249.729      -30.347      -34.500       84.529       91.635       49.761     7145.233     8396.990     2476.150        4.124        0.901      251.567       37.413        0.022      346.344       24.519      865.383
07/09/2013  22:49:00     -149.757       31.819      -28.251       44.336       51.205       33.357     1965.692     2621.994     1112.706        1.497        0.285      153.100       23.449        0.023      346.295       24.439      865.384
07/09/2013  22:50:00     -190.954      -74.408      -15.278       92.820       72.192       47.944     8615.564     5211.628     2298.648        2.918        0.806      204.939       32.367        0.025      346.278       24.409      865.382
07/09/2013  22:51:00     -287.258       75.628      -28.387      110.117       78.210       45.223    12125.820     6116.817     2045.153        5.466        1.014      297.047       16.483        0.003      346.278       24.409      865.368
07/09/2013  22:52:00     -187.380        2.342      -24.864      115.205       76.560       43.713    13272.264     5861.476     1910.850        2.839        1.052      187.395       47.764        0.065      346.220       24.309      865.372
07/09/2013  22:53:00     -214.996      -71.622       -5.316      113.966       97.613       50.502    12988.220     9528.217     2550.446        3.822        1.253      226.612       58.896        0.068      346.224       24.313      865.376
07/09/2013  22:54:00     -191.916      -58.060       -0.966       90.282       86.342       40.273     8150.852     7454.876     1621.906        2.871        0.861      200.507       35.612        0.032      346.175       24.229      865.385
07/09/2013  22:55:00     -166.867      -26.652      -16.707       65.687       77.240       38.188     4314.789     5965.953     1458.287        2.028        0.587      168.982       21.417        0.016      346.221       24.309      865.394
07/09/2013  22:56:00     -183.791       26.444      -14.463       94.777       79.132       46.286     8982.608     6261.910     2142.412        2.603        0.869      185.684       49.440        0.071      346.178       24.233      865.422
07/09/2013  22:57:00     -202.134      -18.360      -12.656      115.649       68.303       42.739    13374.679     4665.339     1826.625        3.061        0.993      202.966       49.210        0.059      346.131       24.155      865.421
07/09/2013  22:58:00     -209.903       14.372       -7.719      150.061       67.293       46.373    22518.227     4528.395     2150.460        3.676        1.460      210.395       63.091        0.090      346.131       24.155      865.431
07/09/2013  22:59:00      -92.158       67.292        3.257       78.568       85.309       40.148     6172.916     7277.599     1611.900        1.404        0.753      114.111       46.973        0.169      346.014       23.954      865.468
07/09/2013  23:00:00      -34.852      123.314       -4.176       44.134       82.014       41.550     1947.842     6726.253     1726.383        1.342        0.520      128.145       43.773        0.117      345.963       23.868      865.455
07/09/2013  23:01:00       -7.822      167.046       -8.789       61.420       77.579       34.285     3772.427     6018.474     1175.483        1.950        0.548      167.229       24.355        0.021      345.979       23.895      865.445
07/09/2013  23:02:00      -82.540      125.710      -22.019       38.718       62.184       23.684     1499.052     3866.876      560.933        1.451        0.296      150.385       22.852        0.023      345.969       23.878      865.460
07/09/2013  23:03:00     -101.975       14.143       -1.350       60.051       62.158       41.242     3606.064     3863.651     1700.913        0.988        0.459      102.951       38.465        0.140      345.999       23.930      865.482
07/09/2013  23:04:00      -78.920       46.995      -16.982       59.151       61.043       40.213     3498.847     3726.303     1617.114        0.878        0.442       91.852       44.873        0.239      346.022       23.969      865.478
07/09/2013  23:05:00     -102.082       85.041      -21.243       58.862       59.365       28.919     3464.708     3524.211      836.294        1.296        0.391      132.864       29.365        0.049      346.080       24.070      865.456
07/09/2013  23:06:00     -163.532      -25.515      -22.244       62.483       68.669       38.606     3904.115     4715.468     1490.411        1.900        0.505      165.510       33.776        0.042      346.109       24.118      865.458
07/09/2013  23:07:00     -141.515      -45.983       -5.672       62.137       72.679       32.966     3861.044     5282.243     1086.735        1.620        0.512      148.799       24.641        0.027      346.009       23.947      865.462
07/09/2013  23:08:00     -281.351      -24.442      -14.708       89.111       94.203       53.362     7940.689     8874.194     2847.522        4.981        0.983      282.411       45.162        0.026      346.043       24.002      865.479
07/09/2013  23:09:00     -181.403      -97.715        5.258       98.352       88.887       54.592     9673.196     7900.835     2980.258        3.151        1.028      206.047       50.987        0.061      346.045       24.008      865.493
07/09/2013  23:10:00     -229.179      -78.323       -9.300      120.266       75.143       40.693    14463.992     5646.430     1655.899        4.025        1.088      242.193       51.837        0.046      346.132       24.158      865.508
07/09/2013  23:11:00     -173.522      -41.055        2.244       91.181       67.566       41.037     8314.035     4565.176     1684.013        2.318        0.728      178.313       43.723        0.060      346.101       24.103      865.522
07/09/2013  23:12:00     -160.310      -37.983       -1.170       80.932       67.604       36.997     6549.913     4570.319     1368.796        1.981        0.624      164.749       32.168        0.038      346.106       24.113      865.503
07/09/2013  23:13:00     -305.799      -86.110      -24.096      103.046       65.636       44.236    10618.466     4308.041     1956.867        5.919        0.844      317.692       50.257        0.025      346.256       24.368      865.489
07/09/2013  23:14:00     -147.901      -39.516      -15.179      124.684       94.024       51.431    15545.984     8840.568     2645.181        2.534        1.352      153.089       48.649        0.101      346.181       24.241      865.503
07/09/2013  23:15:00     -260.515      -52.267      -16.673       80.368       71.750       39.709     6458.991     5148.026     1576.842        4.203        0.659      265.707       37.756        0.020      346.120       24.135      865.522
07/09/2013  23:16:00     -189.949       17.698      -23.668       91.645       65.587       42.433     8398.893     4301.707     1800.564        2.572        0.725      190.772       44.208        0.054      346.008       23.946      865.531
07/09/2013  23:17:00     -186.333      -52.120      -16.910       59.289       68.734       40.004     3515.243     4724.424     1600.323        2.378        0.492      193.485       26.452        0.019      345.994       23.921      865.533
07/09/2013  23:18:00     -116.772       51.597       -9.529       57.651       51.811       36.947     3323.653     2684.350     1365.090        1.188        0.369      127.663       30.314        0.056      346.019       23.965      865.528
07/09/2013  23:19:00      -96.765       93.432      -18.234       44.433       71.018       33.765     1974.310     5043.570     1140.063        1.329        0.408      134.510       27.670        0.042      346.097       24.099      865.538
07/09/2013  23:20:00     -118.360       -6.690        1.697       46.435       81.484       29.709     2156.253     6639.706      882.653        1.187        0.484      118.549       19.988        0.028      346.062       24.039      865.564
07/09/2013  23:21:00      -50.034       29.908        7.675       46.386       60.183       35.141     2151.690     3622.022     1234.915        0.523        0.350       58.291       28.762        0.243      345.963       23.870      865.581
07/09/2013  23:22:00      -69.080       -2.454       -6.818       69.848       45.295       24.710     4878.787     2051.668      610.562        0.618        0.377       69.124       33.359        0.233      346.029       23.983      865.581
07/09/2013  23:23:00     -122.720       86.459      -16.305       53.183       84.098       37.387     2828.472     7072.434     1397.762        1.705        0.565      150.118       43.991        0.086      346.014       23.955      865.592
07/09/2013  23:24:00     -136.601       13.734      -13.686       69.440       79.929       37.315     4821.970     6388.707     1392.387        1.582        0.630      137.290       30.402        0.049      345.990       23.914      865.621
07/09/2013  23:25:00     -126.538       79.139      -14.272       63.008       57.694       41.632     3969.966     3328.573     1733.264        1.575        0.452      149.248       35.091        0.055      345.922       23.797      865.625
07/09/2013  23:26:00      -92.059       -6.994       -2.727       69.062       54.090       41.293     4769.559     2925.767     1705.144        0.896        0.470       92.324       36.234        0.154      345.891       23.745      865.614
07/09/2013  23:27:00     -139.288       -9.012       -3.424       51.143       61.143       36.643     2615.603     3738.481     1342.691        1.359        0.385      139.579       27.800        0.040      345.922       23.798      865.616
07/09/2013  23:28:00     -111.860       47.180      -16.930       61.463       68.285       38.614     3777.677     4662.777     1491.003        1.248        0.497      121.402       21.935        0.033      346.004       23.941      865.614
07/09/2013  23:29:00     -201.690      -38.415       -7.972      117.841       71.027       45.616    13886.441     5044.868     2080.829        3.161        1.051      205.316       46.777        0.052      346.037       23.995      865.595
07/09/2013  23:30:00     -227.377       10.671      -17.022      125.541      108.301       54.312    15760.538    11729.144     2949.772        4.127        1.522      227.627       48.906        0.046      346.073       24.054      865.613
07/09/2013  23:31:00     -203.502       54.090      -22.806       89.747       65.317       53.707     8054.487     4266.313     2884.429        3.003        0.760      210.568       50.613        0.058      346.132       24.157      865.581
07/09/2013  23:32:00     -163.840      -29.116      -10.910       61.100       72.277       44.518     3733.206     5223.963     1981.890        1.937        0.547      166.407       37.167        0.050      346.083       24.074      865.572
07/09/2013  23:33:00     -149.962       28.479      -11.311       73.025       69.021       47.988     5332.630     4763.919     2302.875        1.791        0.620      152.642       32.469        0.045      346.114       24.128      865.565
07/09/2013  23:34:00      -85.760       57.932       -0.033       74.381       93.012       56.867     5532.512     8651.155     3233.804        1.406        0.871      103.494       40.118        0.150      346.194       24.265      865.524
07/09/2013  23:35:00     -126.438       12.477        3.992       94.278       99.349       45.778     8888.287     9870.162     2095.601        1.850        1.043      127.052       46.101        0.132      346.149       24.187      865.533
07/09/2013  23:36:00      -30.612      -17.256        9.343       67.375       42.088       30.370     4539.375     1771.439      922.337        0.428        0.362       35.141       34.526        0.965      346.062       24.041      865.535
07/09/2013  23:37:00     -196.055      -58.004       -6.372       98.094       63.652       35.186     9622.408     4051.514     1238.032        2.837        0.746      204.455       32.999        0.026      346.111       24.120      865.547
07/09/2013  23:38:00     -184.912      -28.951      -12.479      124.283       77.833       35.891    15446.306     6058.035     1288.140        2.898        1.140      187.164       51.484        0.076      346.047       24.012      865.555
07/09/2013  23:39:00     -285.594      -78.515      -23.525      109.425       76.271       45.067    11973.877     5817.283     2031.038        5.405        0.991      296.190       44.091        0.022      346.092       24.087      865.554
07/09/2013  23:40:00     -290.366      -58.627      -24.226       63.116       84.367       36.009     3983.596     7117.778     1296.612        5.036        0.620      296.226       32.713        0.012      346.149       24.184      865.552
07/09/2013  23:41:00     -318.897      -24.074      -36.173      147.273       77.954       57.299    21689.472     6076.856     3283.180        6.731        1.552      319.805       72.485        0.051      346.239       24.338      865.531
07/09/2013  23:42:00     -101.380       81.432      -17.229       80.410       77.151       45.911     6465.741     5952.204     2107.810        1.586        0.726      130.035       31.824        0.060      346.097       24.100      865.526
07/09/2013  23:43:00     -148.822      102.606      -25.776       61.672      101.449       40.016     3803.448    10291.917     1601.278        2.452        0.785      180.765       28.296        0.025      346.053       24.022      865.526
07/09/2013  23:44:00     -176.005      -19.651      -19.556       62.259       73.277       41.397     3876.160     5369.452     1713.752        2.135        0.548      177.098       23.987        0.018      346.028       23.979      865.537
07/09/2013  23:45:00     -179.795      -70.345      -11.913       72.346       74.553       35.285     5233.992     5558.077     1245.045        2.472        0.602      193.066       16.317        0.007      345.958       23.860      865.542
07/09/2013  23:46:00     -181.936      -62.206      -21.662       82.025       74.156       41.738     6728.163     5499.111     1742.089        2.570        0.698      192.276       34.076        0.031      345.956       23.855      865.541
07/09/2013  23:47:00     -119.822       20.257      -20.882       62.408       42.840       50.009     3894.753     1835.272     2500.880        1.172        0.412      121.522       34.669        0.081      345.978       23.895      865.539
07/09/2013  23:48:00     -243.402       -1.732      -24.155       98.439      105.057       40.088     9690.222    11036.994     1607.042        4.108        1.117      243.409       34.983        0.021      345.970       23.879      865.530
07/09/2013  23:49:00     -219.301      -41.536      -30.758       90.195       94.763       64.363     8135.160     8980.074     4142.590        3.601        1.063      223.200       50.962        0.052      345.998       23.925      865.511
07/09/2013  23:50:00      -88.633       13.860       -5.905       51.027       51.873       26.761     2603.732     2690.833      716.166        0.705        0.301       89.710       21.728        0.059      345.891       23.746      865.519
07/09/2013  23:51:00     -182.175      -60.886      -14.477       61.402       53.918       30.501     3770.152     2907.163      930.322        2.235        0.380      192.080       24.748        0.017      345.885       23.734      865.517
07/09/2013  23:52:00     -130.505      -18.022      -13.826       73.323       55.758       39.114     5376.298     3108.975     1529.895        1.378        0.501      131.743       33.729        0.066      345.915       23.786      865.518
07/09/2013  23:53:00      -97.049      -11.286      -14.802       59.110       45.646       36.767     3494.000     2083.560     1351.842        0.835        0.346       97.703       30.653        0.098      345.867       23.704      865.520
07/09/2013  23:54:00     -115.027        2.466      -18.083       49.287       47.778       29.212     2429.217     2282.691      853.362        0.956        0.278      115.053       15.811        0.019      345.856       23.686      865.515
07/09/2013  23:55:00     -115.612       26.625      -18.859       43.163       33.350       22.320     1863.040     1112.205      498.184        0.895        0.174      118.638       11.783        0.010      345.902       23.766      865.495
07/09/2013  23:56:00     -142.743       78.917      -19.954       41.516       68.034       33.967     1723.554     4628.583     1153.746        1.725        0.375      163.105       30.104        0.034      345.899       23.759      865.477
07/09/2013  23:57:00      -90.603       37.778      -12.750       44.254       73.340       32.007     1958.377     5378.729     1024.451        0.908        0.418       98.163       26.252        0.072      345.887       23.738      865.480
07/09/2013  23:58:00     -185.215      -76.881      -21.785       80.076       63.767       35.638     6412.096     4066.222     1270.088        2.622        0.587      200.537       15.123        0.006      345.821       23.623      865.462
07/09/2013  23:59:00     -255.794      -10.943      -23.295       67.688       80.227       41.266     4581.728     6436.303     1702.844        3.940        0.636      256.028       33.949        0.018      345.775       23.542      865.455
